[[{"header":{"parameterUnit":"m.s-1","parameterCategory":1,"la1":30.6,"la2":29.2853,"lo1":-89.7004,"lo2":-87.6739,"dy":0.0162,"dx":0.0183,"nx":112,"ny":82,"refTime":"2026-02-18T12:00:00:Z","depth":0,"parameterNumber":2,"parameterNumberName":"U-component_of_WINDS"},"data":[0.0,0.0,0.0,0.0,0.0,0.0,0.0,0.0,0.0,0.0,0.0,0.0,0.0,0.0,0.0,0.0,0.0,0.0,0.0,0.0,0.0,0.0,0.0,0.0,0.0,0.0,0.0,0.0,0.0,0.0,0.0,0.0,0.0,0.0,0.0,0.0,0.0,0.0,0.0,0.0,0.0,0.0,0.0,0.0,0.0,0.0,0.0,0.0,0.0,0.0,0.0,0.0,0.0,0.0,0.0,0.0,0.0,0.0,0.0,0.0,0.0,0.0,0.0,0.0,0.0,0.0,0.0,0.0,0.0,0.0,0.0,0.0,0.0,0.0,0.0,0.0,0.0,0.0,0.0,0.0,0.0,0.0,0.0,0.0,0.0,0.0,0.0,0.0,0.0,0.0,0.0,7.9502,9.3842,10.2574,10.1685,10.1423,9.4005,7.6881,0.0,0.0,0.0,0.0,0.0,0.0,0.0,0.0,0.0,0.0,0.0,0.0,0.0,0.0,0.0,0.0,0.0,0.0,0.0,0.0,0.0,0.0,0.0,0.0,0.0,0.0,0.0,0.0,0.0,0.0,0.0,0.0,0.0,0.0,0.0,0.0,0.0,0.0,0.0,0.0,0.0,0.0,0.0,0.0,0.0,0.0,0.0,0.0,0.0,0.0,0.0,0.0,0.0,0.0,0.0,0.0,0.0,0.0,0.0,0.0,0.0,0.0,0.0,0.0,0.0,0.0,0.0,0.0,0.0,0.0,0.0,0.0,0.0,0.0,0.0,0.0,0.0,0.0,0.0,0.0,0.0,0.0,0.0,0.0,0.0,0.0,0.0,0.0,0.0,0.0,0.0,0.0,0.0,0.0,0.0,0.0,0.0,0.0,0.0,0.0,0.0,0.0,0.0,0.0,7.4455,9.2802,10.0195,10.3724,10.3576,10.1718,9.3961,7.8664,0.0,0.0,0.0,0.0,0.0,0.0,0.0,0.0,0.0,0.0,0.0,0.0,0.0,0.0,0.0,0.0,0.0,0.0,0.0,0.0,0.0,0.0,0.0,0.0,0.0,0.0,0.0,0.0,0.0,0.0,0.0,0.0,0.0,0.0,0.0,0.0,0.0,0.0,0.0,0.0,0.0,0.0,0.0,0.0,0.0,0.0,0.0,0.0,0.0,0.0,0.0,0.0,0.0,0.0,0.0,0.0,0.0,0.0,0.0,0.0,0.0,0.0,0.0,0.0,0.0,0.0,0.0,0.0,0.0,0.0,0.0,0.0,0.0,0.0,0.0,0.0,0.0,0.0,0.0,0.0,0.0,0.0,0.0,0.0,0.0,0.0,0.0,0.0,0.0,0.0,0.0,0.0,0.0,0.0,0.0,0.0,0.0,0.0,0.0,0.0,0.0,0.0,0.0,6.915,7.9334,9.7297,10.209,10.3984,10.3984,10.1718,9.3991,7.9149,7.3172,0.0,0.0,0.0,0.0,0.0,0.0,0.0,0.0,0.0,0.0,0.0,0.0,0.0,0.0,0.0,0.0,0.0,0.0,0.0,0.0,0.0,0.0,0.0,0.0,0.0,0.0,0.0,0.0,0.0,0.0,0.0,0.0,0.0,0.0,0.0,0.0,0.0,0.0,0.0,0.0,0.0,0.0,0.0,0.0,0.0,0.0,0.0,0.0,0.0,0.0,0.0,0.0,0.0,0.0,0.0,0.0,0.0,0.0,0.0,0.0,0.0,0.0,0.0,0.0,0.0,0.0,0.0,0.0,0.0,0.0,0.0,0.0,0.0,0.0,0.0,0.0,0.0,0.0,0.0,0.0,0.0,0.0,0.0,0.0,0.0,0.0,0.0,0.0,0.0,0.0,0.0,0.0,0.0,0.0,0.0,0.0,0.0,0.0,0.0,0.0,0.0,0.0,7.8276,8.5966,9.9452,10.2721,10.3984,10.3984,10.0492,9.2393,7.8573,7.1218,0.0,0.0,0.0,0.0,0.0,0.0,0.0,0.0,0.0,0.0,0.0,0.0,0.0,0.0,0.0,0.0,0.0,0.0,0.0,0.0,0.0,0.0,0.0,0.0,0.0,0.0,0.0,0.0,0.0,0.0,0.0,0.0,0.0,0.0,0.0,0.0,0.0,0.0,0.0,0.0,0.0,0.0,0.0,0.0,0.0,0.0,0.0,0.0,0.0,0.0,0.0,0.0,0.0,0.0,0.0,0.0,0.0,0.0,0.0,0.0,0.0,0.0,0.0,0.0,0.0,0.0,0.0,0.0,0.0,0.0,0.0,0.0,0.0,0.0,0.0,0.0,0.0,0.0,0.0,0.0,0.0,0.0,0.0,0.0,0.0,0.0,0.0,0.0,0.0,0.0,0.0,0.0,0.0,0.0,0.0,0.0,0.0,0.0,0.0,0.0,0.0,0.0,8.3329,9.4622,10.1793,10.339,10.3984,10.3984,9.6814,8.7638,7.6679,6.6277,0.0,0.0,0.0,0.0,0.0,0.0,0.0,0.0,0.0,0.0,0.0,0.0,0.0,0.0,0.0,0.0,0.0,0.0,0.0,0.0,0.0,0.0,0.0,0.0,0.0,0.0,0.0,0.0,0.0,0.0,0.0,0.0,0.0,0.0,0.0,0.0,0.0,0.0,0.0,0.0,0.0,0.0,0.0,0.0,0.0,0.0,0.0,0.0,0.0,0.0,0.0,0.0,0.0,0.0,0.0,0.0,0.0,0.0,0.0,0.0,0.0,0.0,0.0,0.0,0.0,0.0,0.0,0.0,0.0,0.0,0.0,0.0,0.0,0.0,0.0,0.0,0.0,0.0,0.0,0.0,0.0,0.0,0.0,0.0,0.0,0.0,0.0,0.0,0.0,0.0,0.0,0.0,0.0,0.0,0.0,0.0,0.0,0.0,0.0,0.0,0.0,0.0,8.0691,9.1316,0.0,10.2721,10.3204,10.3204,9.8486,8.9904,7.6642,0.0,0.0,0.0,0.0,0.0,0.0,0.0,0.0,0.0,0.0,0.0,0.0,0.0,0.0,0.0,0.0,0.0,0.0,0.0,0.0,0.0,0.0,0.0,0.0,0.0,0.0,0.0,0.0,0.0,0.0,0.0,0.0,0.0,0.0,0.0,0.0,0.0,0.0,0.0,0.0,0.0,0.0,0.0,0.0,0.0,0.0,0.0,0.0,0.0,0.0,0.0,0.0,0.0,0.0,0.0,0.0,0.0,0.0,0.0,0.0,0.0,0.0,0.0,0.0,0.0,0.0,0.0,0.0,0.0,0.0,0.0,0.0,0.0,0.0,0.0,0.0,0.0,0.0,0.0,0.0,0.0,0.0,0.0,0.0,0.0,0.0,0.0,0.0,0.0,0.0,0.0,0.0,0.0,0.0,0.0,0.0,0.0,0.0,0.0,0.0,0.0,0.0,7.0326,8.1174,9.1465,0.0,10.2387,10.261,10.2313,9.7706,8.9124,7.5861,0.0,0.0,0.0,0.0,0.0,0.0,0.0,0.0,0.0,0.0,0.0,0.0,0.0,0.0,0.0,0.0,0.0,0.0,0.0,0.0,0.0,0.0,0.0,0.0,0.0,0.0,0.0,0.0,0.0,0.0,0.0,0.0,0.0,0.0,0.0,0.0,0.0,0.0,0.0,0.0,0.0,0.0,0.0,0.0,0.0,0.0,0.0,0.0,0.0,0.0,0.0,0.0,0.0,0.0,0.0,0.0,0.0,0.0,0.0,0.0,0.0,0.0,0.0,0.0,0.0,0.0,0.0,0.0,0.0,0.0,0.0,0.0,0.0,0.0,0.0,0.0,0.0,0.0,0.0,0.0,0.0,0.0,0.0,0.0,0.0,0.0,0.0,0.0,0.0,0.0,0.0,0.0,0.0,0.0,0.0,0.0,0.0,0.0,0.0,0.0,0.0,0.0,7.2518,8.6264,9.726,10.2201,10.2721,10.2387,10.1607,9.3322,8.396,0.0,0.0,0.0,0.0,0.0,0.0,0.0,0.0,0.0,0.0,0.0,0.0,0.0,0.0,0.0,0.0,0.0,0.0,0.0,0.0,0.0,0.0,0.0,0.0,0.0,0.0,0.0,0.0,0.0,0.0,0.0,0.0,0.0,0.0,0.0,0.0,0.0,0.0,0.0,0.0,0.0,0.0,0.0,0.0,0.0,0.0,0.0,0.0,0.0,0.0,0.0,0.0,0.0,0.0,0.0,0.0,0.0,0.0,0.0,0.0,0.0,0.0,0.0,0.0,0.0,0.0,0.0,0.0,0.0,0.0,0.0,0.0,0.0,0.0,0.0,0.0,0.0,0.0,0.0,0.0,0.0,0.0,0.0,0.0,0.0,0.0,0.0,0.0,0.0,0.0,0.0,0.0,0.0,0.0,0.0,0.0,0.0,0.0,0.0,0.0,0.0,0.0,0.0,7.1775,8.5929,9.6852,10.0604,10.2015,10.2387,10.1607,9.6443,8.7824,7.5044,0.0,0.0,0.0,0.0,0.0,0.0,0.0,0.0,0.0,0.0,0.0,0.0,0.0,0.0,0.0,0.0,0.0,0.0,0.0,0.0,0.0,0.0,0.0,0.0,0.0,0.0,0.0,0.0,0.0,0.0,0.0,0.0,0.0,0.0,0.0,0.0,0.0,0.0,0.0,0.0,0.0,0.0,0.0,0.0,0.0,0.0,0.0,0.0,0.0,0.0,0.0,0.0,0.0,0.0,0.0,0.0,0.0,0.0,0.0,0.0,0.0,0.0,0.0,0.0,0.0,0.0,0.0,0.0,0.0,0.0,0.0,0.0,0.0,0.0,0.0,0.0,0.0,0.0,0.0,0.0,0.0,0.0,0.0,0.0,0.0,0.0,0.0,0.0,0.0,0.0,0.0,0.0,0.0,0.0,0.0,0.0,0.0,0.0,0.0,0.0,0.0,0.0,7.2741,8.6375,9.7037,10.131,10.261,10.3019,10.2498,9.9043,9.1353,7.8351,0.0,0.0,0.0,0.0,0.0,0.0,0.0,0.0,0.0,0.0,0.0,0.0,0.0,0.0,0.0,0.0,0.0,0.0,0.0,0.0,0.0,0.0,0.0,0.0,0.0,0.0,0.0,0.0,0.0,0.0,0.0,0.0,0.0,0.0,0.0,0.0,0.0,0.0,0.0,0.0,0.0,0.0,0.0,0.0,0.0,0.0,0.0,0.0,0.0,0.0,0.0,0.0,0.0,0.0,0.0,0.0,0.0,0.0,0.0,0.0,0.0,0.0,0.0,0.0,0.0,0.0,0.0,0.0,0.0,0.0,0.0,0.0,0.0,0.0,0.0,0.0,0.0,0.0,0.0,0.0,0.0,0.0,0.0,0.0,0.0,0.0,0.0,0.0,0.0,0.0,0.0,0.0,0.0,0.0,0.0,0.0,0.0,0.0,0.0,0.0,0.0,0.0,7.4635,8.7341,9.7743,10.3316,10.4022,10.4096,10.4096,10.1087,9.44,8.3143,0.0,0.0,0.0,0.0,0.0,0.0,0.0,0.0,0.0,0.0,0.0,0.0,0.0,0.0,0.0,0.0,0.0,0.0,0.0,0.0,0.0,0.0,0.0,0.0,0.0,0.0,0.0,0.0,0.0,0.0,0.0,0.0,0.0,0.0,0.0,0.0,0.0,0.0,0.0,0.0,0.0,0.0,0.0,0.0,0.0,0.0,0.0,0.0,0.0,0.0,0.0,0.0,0.0,0.0,0.0,0.0,0.0,0.0,0.0,0.0,6.2269,0.0,0.0,0.0,0.0,0.0,0.0,0.0,0.0,0.0,0.0,0.0,0.0,0.0,0.0,0.0,0.0,0.0,0.0,0.0,0.0,0.0,0.0,0.0,0.0,0.0,0.0,0.0,0.0,0.0,0.0,0.0,0.0,0.0,0.0,0.0,0.0,0.0,0.0,0.0,0.0,0.0,7.3967,8.801,9.882,10.261,10.4207,10.4913,10.4913,10.1904,9.596,8.6375,0.0,0.0,0.0,0.0,0.0,0.0,0.0,0.0,0.0,0.0,0.0,0.0,0.0,0.0,0.0,0.0,0.0,0.0,0.0,0.0,0.0,0.0,0.0,0.0,0.0,0.0,0.0,0.0,0.0,0.0,0.0,0.0,0.0,0.0,0.0,0.0,0.0,0.0,0.0,0.0,0.0,0.0,0.0,0.0,0.0,0.0,0.0,0.0,0.0,0.0,0.0,0.0,0.0,0.0,0.0,0.0,0.0,0.0,0.0,0.0,0.0,6.6584,0.0,0.0,0.0,0.0,0.0,0.0,0.0,0.0,0.0,0.0,0.0,0.0,0.0,0.0,0.0,0.0,0.0,0.0,0.0,0.0,0.0,0.0,0.0,0.0,0.0,0.0,0.0,0.0,0.0,0.0,0.0,0.0,0.0,0.0,0.0,0.0,0.0,0.0,0.0,0.0,7.4821,8.8716,9.9452,10.3501,10.5025,10.5916,10.6325,10.3724,9.8895,9.139,8.2103,0.0,0.0,0.0,0.0,0.0,0.0,0.0,0.0,0.0,0.0,0.0,0.0,0.0,0.0,0.0,0.0,0.0,0.0,0.0,0.0,0.0,0.0,0.0,0.0,0.0,0.0,0.0,0.0,0.0,0.0,0.0,0.0,0.0,0.0,0.0,0.0,0.0,0.0,0.0,0.0,0.0,0.0,0.0,0.0,0.0,0.0,0.0,0.0,0.0,0.0,0.0,0.0,0.0,0.0,8.1109,8.3066,8.31,8.5164,8.8231,8.1115,7.928,8.0537,0.0,0.0,0.0,0.0,0.0,0.0,0.0,0.0,0.0,0.0,0.0,0.0,0.0,0.0,0.0,0.0,0.0,0.0,0.0,0.0,0.0,0.0,0.0,0.0,0.0,7.6419,7.6939,0.0,0.0,0.0,0.0,0.0,0.0,0.0,0.0,0.0,0.0,0.0,0.0,7.705,8.9942,10.0084,10.469,10.6028,10.6919,10.7514,10.5619,10.209,9.6591,8.7824,7.9465,0.0,0.0,0.0,0.0,0.0,0.0,0.0,0.0,0.0,0.0,0.0,0.0,0.0,0.0,0.0,0.0,0.0,0.0,0.0,0.0,0.0,0.0,0.0,0.0,0.0,0.0,0.0,0.0,0.0,0.0,0.0,0.0,6.6115,6.7703,0.0,0.0,0.0,0.0,0.0,0.0,0.0,0.0,0.0,0.0,0.0,0.0,0.0,0.0,8.0413,8.5881,8.9107,9.0033,9.5368,9.8442,9.9442,9.8711,9.9135,10.0288,9.9941,0.0,8.3713,8.1534,0.0,0.0,0.0,0.0,0.0,0.0,0.0,0.0,0.0,0.0,0.0,0.0,0.0,0.0,0.0,0.0,0.0,0.0,0.0,0.0,0.0,0.0,8.5929,8.4815,8.5706,8.5929,0.0,7.2629,6.297,5.8921,0.0,0.0,0.0,0.0,0.0,0.0,0.0,0.0,8.1137,9.2691,10.131,10.4802,10.6511,10.7514,10.7625,10.6696,10.4207,9.9935,9.4437,8.7712,7.9576,7.2072,0.0,0.0,0.0,0.0,0.0,0.0,0.0,0.0,0.0,0.0,0.0,0.0,0.0,0.0,0.0,0.0,0.0,0.0,0.0,0.0,0.0,0.0,0.0,0.0,0.0,0.0,0.0,0.0,0.0,6.3435,6.759,6.6898,6.6859,6.4551,0.0,0.0,0.0,0.0,0.0,0.0,0.0,0.0,0.0,8.3555,8.4286,8.7214,9.2756,9.602,9.8442,10.0092,10.2903,10.4905,10.6097,10.629,10.6482,10.6905,10.729,10.3711,9.7019,9.0724,8.3486,7.5894,0.0,0.0,0.0,0.0,0.0,6.9472,7.4598,0.0,0.0,0.0,0.0,0.0,0.0,0.0,0.0,0.0,0.0,0.0,0.0,0.0,0.0,9.0276,9.1613,9.1762,9.009,8.422,7.6902,0.0,6.5274,6.0815,5.2568,0.0,0.0,0.0,0.0,0.0,8.4183,9.4065,10.1607,10.4802,10.6213,10.7105,10.7625,10.6399,10.4393,10.1198,9.7223,9.2579,8.7118,7.9799,7.2555,0.0,0.0,0.0,0.0,0.0,0.0,0.0,0.0,0.0,0.0,0.0,0.0,0.0,0.0,0.0,0.0,0.0,0.0,0.0,0.0,0.0,0.0,0.0,0.0,0.0,0.0,0.0,0.0,6.7859,7.1168,6.8205,7.1822,7.0783,0.0,0.0,0.0,0.0,0.0,0.0,7.8054,8.0323,8.5286,9.3518,9.4634,9.7942,10.3905,10.4289,10.5597,10.7713,10.7521,10.829,10.9906,11.0483,11.0791,11.0906,11.1098,11.0098,10.7598,9.8477,9.1912,8.6968,8.0376,7.636,0.0,7.6327,7.7517,7.9037,8.5056,8.7012,8.6207,8.257,0.0,7.4487,6.8803,0.0,0.0,0.0,0.0,7.4004,8.1545,0.0,8.8455,9.3322,9.5105,9.5328,9.3917,9.1985,8.7787,0.0,7.5156,7.0698,6.1076,0.0,0.0,0.0,0.0,8.0765,8.7527,9.5365,10.1421,10.4319,10.5508,10.6325,10.6919,10.6102,10.4393,10.2015,9.9341,9.6369,9.3099,8.7081,8.1137,7.5378,0.0,0.0,0.0,0.0,0.0,0.0,0.0,0.0,0.0,0.0,0.0,0.0,0.0,0.0,0.0,0.0,0.0,0.0,0.0,0.0,0.0,0.0,0.0,0.0,0.0,0.0,0.0,0.0,0.0,7.713,8.3208,0.0,0.0,0.0,0.0,7.3937,7.7284,8.1823,8.7671,9.1095,9.6403,10.4097,10.5213,10.7405,11.1021,11.0214,11.0291,11.1214,11.0406,11.0906,11.2522,11.2599,11.2599,11.2599,11.3407,11.2406,10.9675,10.4328,9.8402,9.2485,8.8805,8.4708,8.1296,8.5241,8.7247,8.8511,9.3031,9.4044,9.3026,9.0677,8.4555,7.8313,7.9428,7.5973,0.0,0.0,8.058,8.3775,8.9644,9.2988,9.492,9.5254,9.596,9.6294,9.5477,9.2765,8.9644,0.0,8.3589,7.9985,7.5453,0.0,7.3484,7.575,7.9316,8.4406,9.1725,9.7149,10.0901,10.261,10.4319,10.5322,10.5322,10.5916,10.5322,10.2796,10.1793,9.9786,9.648,9.3805,8.8567,8.0468,7.5745,0.0,0.0,0.0,0.0,0.0,0.0,0.0,0.0,0.0,0.0,0.0,0.0,0.0,0.0,0.0,0.0,0.0,0.0,0.0,0.0,0.0,0.0,0.0,0.0,0.0,0.0,0.0,0.0,8.1708,8.8094,0.0,0.0,8.167,8.317,8.2901,8.8556,9.3672,9.7442,10.0289,10.4097,10.9098,10.8983,11.0214,11.3099,11.1714,11.1483,11.2291,11.1983,11.2099,11.2714,11.3907,11.4407,11.4407,11.4714,11.3984,11.2406,10.8906,10.4903,10.0591,9.7959,9.5604,9.3785,9.4942,9.5857,9.6755,9.8269,9.8668,9.7762,9.3927,9.0001,8.6667,8.6311,8.5186,8.4443,8.6709,8.8381,9.0202,9.3285,9.5105,9.6294,9.6889,9.7223,9.7186,9.6369,9.5254,9.4028,9.2616,8.8418,8.3775,7.9651,8.0654,8.162,8.0431,8.4815,9.0164,9.5477,9.8598,10.1124,10.3316,10.4096,10.4616,10.521,10.4505,10.3427,10.2015,10.0715,9.9192,9.752,9.6071,9.2691,8.7118,8.3413,7.4462,0.0,0.0,0.0,0.0,0.0,0.0,0.0,0.0,0.0,0.0,0.0,0.0,0.0,0.0,0.0,0.0,0.0,0.0,0.0,0.0,0.0,0.0,0.0,0.0,0.0,0.0,8.7632,8.4786,9.271,9.5172,8.694,9.0517,9.3249,9.2979,9.8173,10.2289,10.4597,10.6905,10.929,11.1791,11.1906,11.2714,11.4407,11.3291,11.2906,11.3099,11.3099,11.3099,11.3214,11.4599,11.5291,11.5291,11.5291,11.4484,11.2983,11.0983,10.8482,10.5787,10.3689,10.2599,10.198,10.1703,10.1901,10.227,10.2118,10.1909,10.1123,9.7102,9.5254,9.4293,9.248,9.2554,9.3413,9.3935,9.4561,9.5365,9.6703,9.7446,9.8003,9.856,9.8486,9.8152,9.7557,9.7223,9.6777,9.596,9.2505,8.8753,8.5781,8.749,8.8195,8.4926,8.931,9.3731,9.596,9.8635,10.1012,10.2981,10.339,10.3687,10.391,10.2201,10.1012,10.0715,9.8375,9.6926,9.6666,9.4474,9.1827,8.8703,8.4498,7.6665,6.5047,0.0,0.0,0.0,0.0,0.0,0.0,0.0,0.0,0.0,0.0,0.0,0.0,0.0,0.0,0.0,0.0,0.0,0.0,0.0,0.0,0.0,0.0,0.0,7.6515,8.5055,9.0287,8.7055,9.7673,10.2289,9.4903,9.9404,10.3097,10.3982,10.5597,10.729,10.8906,11.0598,11.1906,11.2791,11.4407,11.5291,11.5291,11.5291,11.4791,11.3984,11.3984,11.3984,11.3984,11.4907,11.5291,11.5291,11.5215,11.3791,11.1406,11.0483,10.9213,10.7521,10.579,10.5097,10.5097,10.5097,10.5097,10.5095,10.4507,10.3897,10.2998,10.0495,10.0305,10.0495,9.7992,9.8008,9.8854,9.8792,9.8983,9.9374,10.0117,10.0269,10.0269,10.0307,9.9712,9.9118,9.9118,9.8523,9.7706,9.6889,9.6071,9.5254,9.44,9.4251,9.3174,8.9979,9.2914,0.0,9.3434,9.7372,10.0604,10.131,10.209,10.2201,10.1495,9.9155,9.8152,9.9006,9.5254,9.3322,9.414,8.9559,8.6452,8.5187,7.9214,7.4714,7.2011,0.0,0.0,0.0,0.0,0.0,0.0,0.0,0.0,0.0,0.0,0.0,0.0,0.0,0.0,0.0,0.0,0.0,0.0,0.0,0.0,0.0,0.0,8.2247,8.2439,9.121,9.8211,9.9712,10.4597,10.6982,10.4905,10.6213,10.6982,10.6713,10.879,11.0291,11.0791,11.2406,11.3714,11.4599,11.4407,11.4907,11.6176,11.4984,11.4214,11.3984,11.3984,11.3714,11.3099,11.3984,11.4407,11.4291,11.3714,11.2714,11.1406,10.9906,10.8598,10.7598,10.6521,10.602,10.602,10.602,10.602,10.5979,10.5896,10.5306,10.44,10.3421,10.2409,10.1598,10.0382,10.0292,10.0544,10.0482,10.0917,10.1189,10.0993,10.1013,10.0807,10.0411,10.0501,10.0507,10.0113,10.009,10.0133,9.9443,9.8635,9.7446,9.5403,9.5068,9.4957,9.466,0.0,0.0,9.8115,9.9489,9.9935,9.9006,9.9081,9.9118,9.8895,9.6629,9.6071,0.0,9.5241,9.3438,9.3322,9.2142,9.0766,8.9225,8.193,7.6808,0.0,0.0,0.0,0.0,0.0,0.0,0.0,0.0,0.0,0.0,0.0,0.0,0.0,0.0,0.0,0.0,0.0,0.0,0.0,0.0,0.0,0.0,8.3978,9.021,9.2556,9.7942,10.3097,10.679,10.8906,11.0291,11.0983,11.0983,11.0791,11.0406,11.1714,11.2522,11.2522,11.3791,11.4791,11.5291,11.5099,11.5484,11.6484,11.5215,11.4407,11.3984,11.3984,11.3483,11.2714,11.3214,11.3714,0.0,11.2291,11.1406,11.0791,10.9098,10.7905,0.0,0.0,0.0,0.0,0.0,10.6405,10.6405,10.6405,10.6097,10.5518,10.4879,10.43,10.3693,10.2699,10.2581,10.2905,10.2602,10.2601,10.2689,10.2569,10.2423,10.2209,10.2118,10.2073,10.1896,10.1301,10.1357,10.1407,10.0815,0.0,0.0,9.7619,9.7093,9.6517,9.5291,9.6852,9.8189,0.0,9.9749,10.0604,9.9972,9.9898,9.9786,9.9452,9.6517,0.0,0.0,0.0,9.055,8.8772,8.9149,0.0,0.0,0.0,0.0,0.0,0.0,0.0,0.0,7.1403,6.9872,0.0,0.0,0.0,0.0,0.0,0.0,0.0,0.0,0.0,0.0,0.0,0.0,0.0,0.0,0.0,0.0,9.213,9.9634,10.3982,10.4674,10.6097,10.9906,11.1214,11.2406,11.3907,11.3984,11.3984,11.3984,11.4099,11.4099,11.4099,0.0,0.0,0.0,0.0,11.6484,11.6407,11.5676,11.4791,11.3907,11.3791,11.3291,11.2599,11.2483,11.2906,11.3599,11.1098,11.0098,10.9906,10.8213,10.7098,10.6405,10.6405,10.6405,10.6405,10.6405,10.6405,0.0,0.0,0.0,0.0,10.5482,10.571,10.6015,10.4477,10.4719,10.5303,10.4616,10.4209,10.4078,10.461,10.4319,10.4016,10.4495,10.4098,10.3378,10.2762,10.2618,10.228,10.167,10.1371,10.1145,10.0432,9.9598,9.7855,9.4102,9.7334,0.0,9.6331,9.9192,10.1718,10.209,0.0,0.0,10.1198,9.7595,9.5477,9.5663,9.1242,8.7257,8.4092,8.4823,8.5358,8.5475,8.7494,8.9979,9.2941,9.4595,9.4249,9.1615,7.7987,7.4857,0.0,0.0,0.0,0.0,0.0,0.0,0.0,0.0,0.0,0.0,0.0,0.0,0.0,0.0,0.0,8.8682,9.6394,10.3291,10.8295,10.9604,11.0294,11.1218,11.2599,11.3599,11.4022,11.4022,11.3984,11.3984,11.4714,11.4984,11.4984,11.5792,0.0,11.6292,11.6407,11.6176,11.5484,11.5407,11.4484,11.2906,0.0,0.0,11.1714,11.0983,11.1214,11.1906,10.9983,10.9213,10.8983,10.729,10.6597,10.6405,10.6405,10.6405,10.6405,10.6405,10.6405,10.6405,10.6405,10.6405,10.6405,10.6213,10.5882,10.5601,10.5295,10.5324,0.0,10.5303,10.5601,10.5809,10.5407,10.5167,10.5087,10.4723,10.4806,10.4887,10.4287,10.447,10.4697,10.4098,10.2998,10.2096,10.1984,10.0382,9.8598,9.7149,9.83,9.9341,9.9341,10.0604,10.0789,9.9006,9.882,9.8783,9.8598,9.6629,9.596,9.7334,9.4028,9.1987,9.1926,9.2309,9.2665,9.2945,9.4635,9.5557,9.5557,9.725,9.8135,9.8168,9.1667,8.8881,0.0,0.0,0.0,0.0,0.0,0.0,0.0,0.0,0.0,0.0,0.0,7.1133,7.5786,0.0,8.8969,9.5808,10.1479,10.6487,11.0297,11.2299,11.3373,11.3411,11.4104,11.4791,11.5215,11.5291,11.5291,11.5291,11.5676,11.5907,11.5907,11.6292,11.6484,11.6484,11.6484,11.6099,11.5291,11.4907,11.3984,11.2714,11.1406,11.1098,11.1406,10.9713,10.9906,11.1406,10.879,10.8098,10.879,10.7098,10.6405,10.6405,10.6405,10.6405,10.6405,10.6405,10.6405,10.6405,10.6405,10.6405,10.6405,10.6405,10.6199,10.5985,10.5985,10.5985,10.5985,10.5985,10.5985,10.5908,10.5985,10.5686,10.5495,10.5495,10.5686,10.5809,10.5192,10.5495,10.5809,10.5192,10.4492,10.3776,10.3359,10.2214,10.0741,9.9332,10.0121,10.0901,10.0901,10.1607,10.1607,10.0418,10.0307,10.0307,10.0307,9.8449,9.7546,9.8282,9.6243,9.5344,9.6012,9.6477,9.6963,9.7557,9.875,9.9442,9.9481,10.1096,10.1784,10.1498,9.9708,9.7674,0.0,0.0,0.0,0.0,0.0,0.0,0.0,0.0,6.4634,7.0551,7.4951,7.9416,8.5032,9.0093,9.5593,10.2285,10.6218,10.9296,11.168,11.3912,11.5336,11.5336,11.5413,11.5836,11.6407,11.6484,11.6484,11.6484,11.6484,11.6484,11.6484,11.6407,11.6292,11.6484,11.6176,11.5715,11.5099,11.4214,11.3291,11.2406,11.0906,11.0714,11.1406,10.9213,10.9406,11.1291,10.8406,10.779,10.879,10.7405,10.6905,10.6905,10.6905,10.6905,10.679,10.6521,10.6405,10.6405,10.6405,10.6405,10.6405,10.6405,10.6405,10.6405,10.6405,10.6405,10.6405,10.6405,10.5997,10.5809,10.6322,10.6035,10.5771,10.6322,10.6405,10.6322,10.5809,10.6112,10.628,10.5809,10.563,10.5303,10.4626,10.3969,10.2862,10.0927,10.1779,10.2416,10.1783,10.2273,10.2721,10.2721,10.2721,10.2721,10.2721,10.0789,9.9575,9.9505,9.8479,9.8211,9.8923,9.9393,10.0018,10.0789,10.1597,10.2404,10.3097,10.4789,10.5008,10.3879,10.4712,10.3325,5.8534,5.8127,5.9996,6.4771,6.6052,6.9471,0.0,0.0,8.1311,8.7287,9.0686,9.307,9.4579,9.8417,10.2306,10.552,10.8798,11.1714,11.3516,11.4593,11.533,11.533,11.5907,11.6407,11.6484,11.6484,11.6484,11.6484,11.6484,11.6484,11.6484,11.583,11.583,11.6484,11.5099,11.4214,11.4099,11.3291,11.2406,11.1598,11.0714,11.0714,11.1522,11.0406,11.0483,11.1406,11.0291,10.9406,10.8906,10.8713,10.8598,10.8598,10.8598,10.8598,10.8406,10.6905,10.6405,10.6405,10.6405,10.6405,10.6405,10.6405,10.6405,10.6405,10.6405,10.6405,10.6405,10.6405,10.6402,10.6284,10.6405,10.6287,10.6284,10.6405,10.6405,10.6405,10.6284,10.6402,10.6405,10.6284,10.5901,10.5495,10.538,10.4882,10.3871,10.2166,10.2221,10.238,10.2268,10.2515,10.2721,10.2721,10.2721,10.2721,10.2721,10.1793,10.1513,10.2021,10.1183,10.1295,10.24,10.2485,10.2835,10.352,10.4289,10.4713,10.4789,10.6597,10.7287,10.7206,10.7533,10.5627,7.171,7.0478,6.9663,0.0,7.637,7.9018,8.5092,8.5836,8.6662,9.1655,9.5084,9.7633,9.8942,10.229,10.5486,0.0,11.0294,11.2599,11.3824,11.4785,11.5093,11.4593,11.4791,11.522,11.5792,11.583,11.6022,11.6484,11.6484,11.6484,11.6484,11.5715,11.5715,11.649,11.4907,11.3978,11.4022,11.3137,11.2329,11.1522,11.0637,11.0714,11.1522,11.0098,10.9598,11.0021,11.0098,10.9713,10.8906,10.8906,10.8906,10.8906,10.8906,10.8906,10.879,10.8098,10.7598,10.7213,10.7213,10.679,10.6405,10.6405,10.6405,10.6405,10.6405,10.6405,10.6405,10.6405,10.6405,10.6405,10.6405,10.6405,10.6405,10.6405,10.6405,10.6405,10.6405,10.6405,10.6405,10.6405,10.6199,10.5991,10.5991,10.5817,10.5409,10.4721,10.3795,10.3185,10.3185,10.292,10.2792,10.3245,10.3282,10.341,10.3802,10.3527,10.3587,10.4191,10.3905,10.4125,10.4917,10.5038,10.5124,10.529,10.5713,10.5905,10.5905,10.7098,10.7713,10.7713,10.8267,10.7809,7.7621,7.7626,0.0,8.1473,8.5098,8.7847,8.856,9.0016,9.219,9.5483,9.8477,10.0903,10.2092,10.4903,10.7598,10.8975,11.1406,11.3368,11.4209,11.4708,11.4516,11.3401,11.2868,11.2911,11.3786,11.4478,11.5285,11.6099,11.6215,11.6215,11.6215,11.5638,11.5484,11.5803,11.4638,11.3901,11.3599,11.3022,11.2329,11.1522,11.0863,11.0863,11.1522,11.0214,10.9713,11.0021,11.0406,11.0291,10.9906,10.9713,10.9598,10.9598,10.9598,10.9598,10.9598,10.9598,10.8906,10.8021,10.8021,10.7521,10.679,10.679,10.6597,10.6405,10.6405,10.6405,10.6405,10.6405,10.6405,10.6405,10.6405,10.6597,10.679,10.679,10.6905,10.7021,10.679,10.679,10.6713,10.6405,10.6405,10.6405,10.6405,10.6405,10.6405,10.6405,10.5116,10.4199,10.4199,10.3571,10.341,10.3929,10.3891,10.4139,10.459,10.461,10.4926,10.5484,10.5495,10.5809,10.6364,10.6405,10.6405,10.6405,10.6405,10.6405,10.6405,10.729,10.779,10.8098,10.8906,10.9374,6.9797,0.0,7.8651,8.4498,9.0365,9.5329,9.7788,9.9673,10.1212,10.2097,10.3714,10.4908,10.498,10.7098,10.9101,10.9979,11.2291,11.4297,11.5138,11.4593,11.3401,11.1829,11.0102,10.9409,0.0,11.2632,11.4401,11.5285,11.5285,11.5285,11.5285,11.5285,11.4907,11.4109,11.4022,11.3593,11.2719,11.2719,11.2291,11.1522,11.1522,11.1522,11.1522,11.1406,11.1829,11.2478,11.1791,11.1906,11.2522,11.1714,11.1406,11.1406,11.1406,11.1406,11.1406,11.1406,11.0291,10.8906,10.8906,10.829,10.7713,10.7713,10.7098,10.6405,10.6405,10.6405,10.6405,10.6405,10.6405,10.6405,10.6405,10.7021,10.7713,10.7713,10.829,10.8598,10.779,10.7713,10.7405,10.6597,10.6405,10.6405,10.6405,10.6405,10.6405,10.6405,10.5894,10.5407,10.5407,10.4904,10.459,10.459,10.459,10.461,10.461,10.461,10.4926,10.5484,10.5495,10.5809,10.6364,10.6405,10.6405,10.6405,10.6405,10.6405,10.6405,10.729,10.8098,10.8906,10.979,11.0295,7.6761,8.2227,8.806,9.4569,9.8548,10.1404,10.3405,10.3788,10.3788,10.3518,10.2094,10.0668,10.0205,10.213,10.409,10.4966,10.9585,11.3401,11.4324,11.4708,11.383,11.0987,11.061,0.0,0.0,0.0,0.0,11.5105,11.5291,11.5478,11.6099,11.5605,11.5182,11.4907,11.4291,11.3907,11.3593,11.2983,11.2603,11.2291,11.1791,11.1522,11.1522,11.1522,11.1906,11.267,11.1786,11.1978,11.2599,11.1791,11.1791,11.2291,11.2291,11.2291,11.2291,11.2291,11.1598,11.0521,10.9983,10.9213,10.8406,10.7905,10.7521,10.7213,10.6597,10.679,10.729,10.729,10.729,10.7405,10.7905,10.7905,10.779,10.8406,10.8713,10.8713,10.7905,10.7713,10.7405,10.6597,10.6405,10.6405,10.6405,10.6405,10.6405,10.6405,10.5901,10.5434,10.498,10.4685,10.4816,10.5192,10.5206,10.5434,10.5809,10.5809,10.5901,10.6074,10.6117,10.6199,10.6405,10.6405,10.6405,10.6405,10.6405,10.6905,10.8098,10.779,10.8713,11.0598,11.0291,11.1089,8.3702,8.92,9.4254,10.1402,10.4208,10.5592,10.7018,10.6633,10.5707,10.4593,10.1091,9.798,9.6827,9.7673,9.8981,10.016,10.5311,10.9886,11.2274,11.2274,11.1627,11.0406,10.9876,10.8916,0.0,0.0,0.0,11.3681,11.4484,11.5093,11.5638,11.572,11.5489,11.4901,11.4912,11.4604,11.3972,11.3401,11.2983,11.2719,11.2175,11.1906,11.1906,11.1906,11.2406,11.3099,11.2594,11.267,11.3099,11.2599,11.2522,11.2714,11.3022,11.2983,11.2714,11.2714,11.2214,11.1406,11.0906,11.0098,10.929,10.879,10.8406,10.8021,10.7521,10.7713,10.8098,10.8098,10.8098,10.8213,10.879,10.8713,10.8713,10.9213,10.9598,10.9598,10.879,10.8598,10.829,10.7521,10.7098,10.6905,10.6905,10.6905,10.679,10.6405,10.6304,10.5983,10.5295,10.5167,10.5396,10.5809,10.6124,10.6336,10.6402,10.6713,10.6713,10.6405,10.6405,10.6405,10.6405,10.6405,10.6713,10.729,10.729,10.7982,10.9406,10.879,10.9406,11.1021,11.0791,11.1714,8.9916,9.429,9.7549,10.4931,10.7318,10.8163,10.8898,10.8321,10.7087,10.5092,10.0633,9.6289,0.0,0.0,9.3913,9.5674,9.9853,10.4697,10.9694,10.8421,10.7801,0.0,0.0,0.0,0.0,0.0,0.0,11.1406,0.0,11.4016,11.3972,11.5638,11.583,11.4132,11.5566,11.5726,11.4132,11.4132,11.3593,11.2834,11.2834,11.2834,11.2796,11.2796,11.3219,11.4066,11.3984,11.4022,11.4099,11.3984,11.3483,11.2906,11.3714,11.3599,11.2791,11.2791,11.2291,11.1598,11.1598,11.0983,11.0291,11.0214,10.9598,10.8983,10.8906,10.8906,10.8983,10.8983,10.8983,10.8983,10.8983,10.9598,11.0214,11.0291,11.0906,11.1291,11.0406,11.0214,10.9906,10.9098,10.829,10.779,10.779,10.779,10.7521,10.6713,10.7213,10.7405,10.6597,10.6405,10.6405,10.6521,10.7213,10.729,10.6521,10.7213,10.729,10.6521,10.6405,10.6405,10.6405,10.6521,10.729,10.8906,10.8983,10.9483,11.0406,11.0291,11.0406,11.0483,11.1291,11.2099,9.5405,10.1702,10.7087,11.0286,11.1329,11.1522,11.1714,10.909,10.5316,10.0397,9.3869,8.7305,0.0,0.0,0.0,9.1129,10.0398,0.0,11.2504,11.3493,0.0,11.2222,0.0,11.1378,10.9713,10.9594,0.0,0.0,11.2796,11.333,11.4016,11.5638,11.6022,11.4978,11.5984,11.5984,11.4978,11.5028,11.4527,11.3709,11.3709,11.3714,11.3681,11.3681,11.4104,11.4907,11.4286,11.4401,11.4907,11.4297,11.4297,11.472,11.4868,11.4791,11.4638,11.4599,11.4099,11.3291,11.2599,11.1906,11.1098,11.0406,10.9983,10.9713,10.9098,10.9406,10.9906,10.9906,10.9906,10.9983,11.0714,11.0483,11.0406,11.1021,11.1291,11.1291,11.0406,11.0214,10.9906,10.9098,10.8713,10.8598,10.8598,10.8598,10.8482,10.829,10.8482,10.829,10.7521,10.679,10.6597,10.729,10.7021,10.6597,10.6405,10.6597,10.6597,10.6405,10.7021,10.7098,10.6405,10.8213,10.9098,10.8906,11.0214,11.1598,11.2983,11.2406,11.2714,11.3984,11.3599,11.4099,10.1894,10.7202,11.1204,11.2863,11.3022,11.1786,10.847,10.5273,10.0697,9.2525,8.5619,7.9477,7.4217,7.8181,8.3062,0.0,0.0,0.0,11.061,11.2334,11.3209,0.0,11.3416,0.0,11.1396,11.1281,11.1714,0.0,11.2688,11.318,11.4516,11.583,11.6292,11.583,11.6292,11.6099,11.5285,11.572,11.5413,11.4593,11.4593,11.4593,11.4604,11.4604,11.4984,11.583,0.0,11.5907,11.6407,11.5913,11.5682,11.5836,11.5792,11.5599,11.5285,11.533,11.4714,11.3907,11.3407,11.2714,11.1906,11.1021,11.0791,11.0714,11.0214,11.0406,11.0791,11.0791,11.0791,11.0906,11.1406,11.1098,11.0906,11.1406,11.1522,11.1406,11.0906,11.0791,11.0483,10.9598,10.9483,10.929,10.8983,10.9213,10.929,10.8983,10.9213,10.9213,10.829,10.7521,10.7213,10.7598,10.7598,10.7405,10.7021,10.7598,10.8098,10.8098,10.8213,10.8213,10.8098,10.9406,11.0291,11.0598,11.1906,11.3214,11.4599,11.4099,11.4099,11.4714,11.4984,11.5599,10.8206,11.1281,11.2389,11.3972,11.3478,11.0589,10.3191,9.9585,9.4636,8.3443,7.7169,7.2583,6.8853,7.2723,7.7562,8.1032,0.0,10.1072,10.7609,10.9189,11.0885,11.3972,11.3703,11.3203,11.3203,11.3011,11.2978,11.3188,11.3037,11.3493,11.4978,11.6022,11.6484,11.6484,11.6484,11.6215,11.5478,11.6215,11.6099,11.5478,11.5478,11.5478,11.5478,11.5478,11.5907,11.6676,0.0,0.0,11.8029,11.7837,11.7369,11.6676,11.6484,11.6099,11.5478,11.5478,11.5022,11.433,11.4214,11.3714,11.2906,11.2022,11.1598,11.1522,11.1522,11.1598,11.1714,11.1714,11.1714,11.1791,11.1791,11.1791,11.1791,11.1714,11.1714,11.1598,11.1522,11.1522,11.1291,11.0483,11.0406,11.0098,10.9406,10.9906,11.0098,10.9406,10.9983,11.0291,10.9483,10.8482,10.7905,10.7905,10.8482,10.8713,10.8098,10.9406,11.0214,11.0406,10.979,10.9713,11.0291,11.0714,11.1483,11.2791,11.3907,11.4907,11.5599,11.5599,11.5215,11.4484,11.5984,11.6676,11.1098,11.3522,11.4785,11.5093,11.3618,11.0073,10.3084,9.6895,0.0,7.7456,7.1516,6.6736,6.1263,6.6703,7.4692,8.2904,9.241,10.2082,11.1583,11.3587,11.4708,0.0,11.5907,11.583,11.583,0.0,0.0,0.0,0.0,11.3901,11.4209,11.5715,11.6484,11.6484,11.6484,11.6407,11.6292,11.6407,11.6407,11.6292,11.6292,11.6292,11.6292,11.6292,11.6792,11.7606,0.0,0.0,11.8823,11.8085,11.7669,11.7491,11.6792,11.6407,11.6292,11.6292,11.6215,11.5984,11.533,11.5022,11.4599,11.2983,11.2022,11.1522,11.1522,11.2022,11.2522,11.2522,11.3022,11.3599,11.3599,11.3599,11.3407,11.2714,11.2522,11.2291,11.1598,11.1522,11.1522,11.1291,11.1291,11.1214,11.1098,11.1214,11.1214,11.1098,11.1714,11.2214,11.2099,11.0098,10.8713,10.8713,10.879,10.9098,10.9713,10.9983,11.0483,11.1214,11.1791,11.1791,11.1291,11.3291,11.4214,11.3791,11.5984,11.7215,11.7407,11.7407,11.7292,11.71,11.7407,11.7984,11.3022,11.5022,11.6182,11.6707,11.4279,10.8985,9.8093,0.0,0.0,6.8482,6.3604,6.071,5.6977,6.2866,7.0488,7.7193,8.6853,9.6925,10.6693,11.0001,11.2818,11.6676,11.7221,11.7221,0.0,11.6869,0.0,0.0,0.0,11.583,11.5285,11.6099,11.6484,11.6484,11.6484,11.6484,11.6484,11.6869,11.7221,11.7221,11.7606,11.7914,11.7914,11.7914,11.8299,11.9113,11.9092,0.0,12.0284,11.9515,11.8908,11.8376,11.7491,11.6869,11.6484,11.6484,11.6484,11.6407,11.6099,11.5715,11.5215,11.433,11.3522,11.2791,11.2791,11.3099,11.3407,11.3407,11.3714,11.3984,11.3984,11.3984,11.3907,11.3483,11.3022,11.2714,11.2791,11.2406,11.2291,11.2714,11.2791,11.2791,11.2791,11.2791,11.2791,11.2791,11.3099,11.3214,11.2791,11.1983,11.1406,11.0906,11.0906,11.1021,11.1483,11.1906,11.2483,11.3407,11.3407,11.3407,11.3483,11.5099,11.5676,11.5291,11.7407,11.8484,11.8484,11.8484,11.8484,11.8484,11.8908,11.96,11.4093,11.6215,11.7189,11.7715,11.458,10.7508,9.2975,8.538,7.693,6.101,5.7061,5.6078,5.4724,5.9848,6.6059,0.0,8.0366,9.0223,10.0824,10.5273,10.988,11.6676,11.7914,0.0,11.8106,11.8684,0.0,0.0,0.0,0.0,11.6599,11.6484,11.6484,11.6484,11.6484,11.6599,11.6792,11.7491,11.7914,11.8106,11.8799,11.9107,11.9107,11.9107,11.9492,12.0307,12.0292,0.0,0.0,12.0716,11.9908,11.9299,11.8376,11.7491,11.6792,11.6984,11.6869,11.6792,11.6984,11.6599,11.6099,11.5907,11.5022,11.4022,11.3984,11.4099,11.4291,11.4291,11.4407,11.4484,11.4484,11.4484,11.4484,11.4291,11.3599,11.3214,11.3907,11.3483,11.3214,11.3907,11.3984,11.3984,11.3984,11.3984,11.3984,11.3984,11.4214,11.3984,11.3291,11.3984,11.4291,11.3791,11.3291,11.3099,11.3483,11.4099,11.4984,11.5984,11.5484,11.5407,11.6099,11.6676,11.71,11.71,11.8792,11.9485,11.9408,11.9485,11.96,11.9715,12.0292,12.0985,11.3786,11.6708,11.8029,11.7291,11.3426,10.5898,9.1269,8.2741,7.3783,5.8984,5.5265,5.467,5.4535,5.6942,0.0,0.0,0.0,8.458,9.9358,10.4368,10.8997,11.583,0.0,0.0,11.9015,11.9107,0.0,0.0,0.0,0.0,11.6599,11.6484,11.6484,11.6484,11.6484,11.6869,11.7683,11.7799,11.8177,11.9015,11.9092,11.9092,11.9092,11.9092,11.9515,12.0331,0.0,0.0,0.0,12.0716,12.0284,12.01,11.9299,11.8376,11.7799,11.8613,11.8376,11.7799,11.8613,11.8805,11.8613,11.7799,11.5984,11.4022,11.4022,11.4599,11.5176,11.5176,11.5676,11.6292,11.6292,11.6292,11.6099,11.5407,11.4484,11.3907,11.3984,11.3907,11.3907,11.3984,11.3984,11.3984,11.3984,11.3984,11.3984,11.3984,11.4714,11.5176,11.5099,11.5792,11.6484,11.7292,11.5291,11.4484,11.5984,11.6176,11.6984,11.86,11.8715,11.8715,11.8715,11.8792,11.8908,11.8908,12.0485,12.0985,12.0216,12.0985,12.1408,12.1408,12.1408,12.1908,11.4123,11.7598,11.8988,11.8604,11.2423,10.3199,9.123,8.077,7.0225,5.8192,5.4649,5.3726,5.3726,5.4975,5.8346,0.0,0.0,0.0,8.6722,9.2603,9.9409,10.929,11.3297,0.0,0.0,0.0,0.0,0.0,0.0,0.0,11.8092,11.8061,11.8106,11.8106,11.8106,11.8183,11.8613,11.9107,11.9523,11.9784,12.04,12.0639,12.0639,12.0639,12.0831,12.11,0.0,0.0,0.0,12.1216,12.0831,12.0284,11.9908,11.9292,11.86,11.8992,11.8915,11.8638,11.9023,11.91,11.9023,11.8092,11.71,11.6176,11.5676,11.5715,11.5984,11.5984,11.6292,11.6484,11.6484,11.6484,11.6407,11.6099,11.5407,11.4907,11.5407,11.5099,11.4907,11.5407,11.5484,11.5484,11.5484,11.5484,11.5484,11.5484,11.6215,11.6792,11.6792,11.7484,11.8215,11.8484,11.7215,11.6984,11.86,11.8292,11.86,11.9715,11.9792,11.9792,11.9792,12.0793,12.1408,12.1408,12.2485,12.2908,12.2601,12.2908,12.3101,12.3101,12.3101,12.3601,11.1768,11.6477,11.8913,11.9106,11.1498,10.1276,9.096,7.9533,6.8171,5.7846,5.4552,5.3572,5.3572,5.4262,5.6263,0.0,0.0,6.8693,7.7803,8.3994,9.1413,10.181,0.0,11.1208,0.0,0.0,0.0,0.0,0.0,0.0,0.0,11.9792,11.9607,11.9107,11.9107,11.9184,11.9492,12.0023,12.04,12.0716,12.1293,12.16,12.16,12.16,12.16,12.16,0.0,0.0,0.0,12.16,12.1216,12.0716,12.0716,12.0207,11.9515,11.9723,11.9677,11.9515,11.9708,11.9708,11.9323,11.8507,11.7977,11.7606,11.6792,11.6484,11.6484,11.6484,11.6484,11.6484,11.6484,11.6484,11.6484,11.6484,11.6099,11.5792,11.6407,11.6099,11.5792,11.6407,11.6484,11.6599,11.6792,11.6907,11.6984,11.7176,11.7792,11.8292,11.8484,11.91,11.9715,12.0216,11.9715,11.9715,12.06,12.0408,12.06,12.1408,12.1408,12.1408,12.1408,12.2601,12.3293,12.3293,12.4101,12.4409,12.4101,12.4409,12.4601,12.4909,12.4601,12.4986,10.5901,11.2616,11.7406,11.8217,11.0725,10.0428,9.0072,7.9095,6.8181,5.7824,5.5034,5.4477,5.4477,5.515,5.6533,5.9121,6.2382,6.7603,7.6121,8.171,8.7456,9.4313,0.0,10.2914,10.9628,11.7192,0.0,0.0,0.0,0.0,0.0,12.16,12.0831,11.9208,11.9131,11.9515,12.0284,12.0284,12.0716,12.16,12.16,12.16,12.16,12.16,12.16,0.0,0.0,0.0,0.0,12.16,12.16,12.16,12.16,12.11,12.04,12.1293,12.1023,12.04,12.1293,12.1023,12.0207,11.9323,11.8523,11.7606,11.6792,11.6484,11.6484,11.6484,11.6484,11.6484,11.6484,11.6484,11.6484,11.6484,11.6484,11.6484,11.6484,11.6484,11.6484,11.6484,11.6484,11.6792,11.76,11.7792,11.81,11.8908,11.91,11.9408,12.0216,12.0292,12.0908,12.2716,12.2908,12.2485,12.1677,12.2408,12.3216,12.3985,12.4101,12.4101,12.4101,12.4101,12.4101,12.4101,12.4909,12.4986,12.4101,12.4986,12.5794,12.6678,12.5794,12.5909,9.4883,10.0396,10.371,10.2208,9.6245,8.8983,8.2186,7.3408,6.4733,5.7978,5.5455,5.4493,5.4493,5.4703,5.6472,6.1312,6.3507,6.6381,7.1428,8.0473,8.8748,9.4459,10.6928,11.5708,0.0,0.0,0.0,0.0,0.0,0.0,0.0,12.16,12.1408,12.0831,12.0831,12.0908,12.1216,12.1216,12.1293,12.16,12.16,12.16,12.16,12.2224,0.0,0.0,0.0,0.0,0.0,12.16,12.16,12.16,12.16,12.1408,12.1216,12.1485,12.1408,12.1216,12.1485,12.1408,12.0985,12.0185,11.9376,11.8491,11.7683,11.6984,11.6484,11.6484,11.6484,11.6484,11.6484,11.6484,11.6484,11.6484,11.6484,11.6484,11.6484,11.6484,11.6676,11.7292,11.7407,11.7715,11.8484,11.8715,11.8792,11.91,12.01,12.0908,12.1177,12.2216,12.3101,12.3716,12.4293,12.4486,12.4178,12.3909,12.4101,12.4909,12.4986,12.4986,12.4986,12.5601,12.5909,12.5909,12.6101,12.6178,12.5909,12.6717,12.7602,12.8409,12.8102,12.8102,8.5796,9.1879,9.5339,9.4364,8.8771,8.2407,7.7959,7.0054,6.239,5.794,5.5934,5.4951,5.4989,5.4951,5.6242,6.025,6.218,6.4821,0.0,0.0,0.0,9.5709,0.0,0.0,0.0,0.0,0.0,0.0,0.0,0.0,0.0,12.1793,12.16,12.16,12.16,12.16,12.16,12.16,12.16,12.16,12.16,12.16,12.16,12.2494,0.0,0.0,0.0,0.0,0.0,12.16,12.16,12.16,12.16,12.16,12.16,12.16,12.16,12.16,12.16,12.1408,12.0985,12.0492,11.9492,11.8376,11.7606,11.6869,11.6484,11.6484,11.6484,11.6484,11.6484,11.6715,11.6984,11.6984,11.7215,11.7484,11.7484,11.7484,11.76,11.8215,11.8292,11.86,11.9408,11.9792,12.0216,12.0485,12.1716,12.2678,12.2985,12.3909,12.4716,12.4986,12.5794,12.6217,12.5909,12.5409,12.5293,12.5909,12.5909,12.5909,12.5909,12.6409,12.6678,12.6678,12.6678,12.6794,12.7178,12.8294,12.8986,12.9217,12.9487,12.9487,0.0,8.5436,9.0125,9.1476,8.5821,7.9092,7.5837,6.8269,0.0,5.7786,5.6323,5.5724,5.6032,5.5818,5.6071,5.7422,5.9626,0.0,0.0,7.7891,0.0,0.0,0.0,0.0,0.0,0.0,0.0,0.0,0.0,0.0,0.0,12.2224,12.1677,12.16,12.16,12.16,12.16,12.16,12.16,12.16,12.16,12.16,12.1677,12.2609,0.0,0.0,0.0,0.0,0.0,12.16,12.16,12.16,12.16,12.16,12.16,12.16,12.16,12.16,12.16,12.11,12.04,12.0284,11.9177,11.7683,11.6869,11.6484,11.6484,11.6484,11.6484,11.6599,11.6599,11.7215,11.7907,11.7907,11.8484,11.91,11.91,11.91,11.91,11.9215,11.9215,11.9408,12.0292,12.11,12.1985,12.2793,12.3601,12.4486,12.5409,12.5486,12.5909,12.6794,12.7486,12.7717,12.6909,12.6794,12.6794,12.6678,12.6678,12.6678,12.6678,12.6678,12.6678,12.6678,12.6794,12.7217,12.8102,12.9717,13.0102,12.941,13.0217,13.0217,6.4986,0.0,7.1695,7.0105,6.8625,6.7011,0.0,6.2198,5.9524,0.0,0.0,0.0,0.0,0.0,0.0,0.0,0.0,0.0,7.3947,0.0,0.0,0.0,0.0,0.0,0.0,0.0,0.0,0.0,0.0,0.0,0.0,12.2801,12.2301,12.16,12.16,12.16,12.16,12.16,12.16,12.16,12.16,12.187,12.2609,12.3379,0.0,0.0,0.0,0.0,12.2494,12.187,12.16,12.16,12.16,12.16,12.16,12.16,12.16,12.16,12.16,12.1485,12.1216,12.0477,11.96,11.8568,11.7792,11.6984,11.6484,11.6484,11.6984,11.7484,11.7484,11.81,11.8792,11.8792,11.8985,11.91,11.91,11.91,11.9292,11.9908,11.9985,12.0292,12.11,12.1985,12.2716,12.2908,12.4216,12.5409,12.6294,12.6909,12.7602,12.8486,12.8794,12.8794,12.8602,12.7986,12.7409,12.6678,12.6678,12.6678,12.6678,12.6678,12.6678,12.6678,12.7294,12.8409,12.991,13.0294,13.0718,13.1102,13.1295,13.1295,5.8484,6.2355,6.5876,6.4839,6.434,6.369,6.2298,0.0,0.0,0.0,0.0,0.0,0.0,0.0,0.0,0.0,0.0,0.0,0.0,0.0,0.0,0.0,0.0,0.0,0.0,0.0,0.0,0.0,0.0,0.0,0.0,12.2894,12.2224,12.1677,12.16,12.16,12.16,12.16,12.16,12.16,12.1985,12.2417,12.2917,12.3678,12.3861,0.0,0.0,0.0,12.2301,12.1793,12.16,12.16,12.16,12.16,12.16,12.16,12.16,12.16,12.16,12.16,12.1485,12.0639,11.9985,11.9492,11.8677,11.81,11.76,11.7215,11.7407,11.7907,11.8292,11.8985,11.9715,11.9715,11.9985,12.0216,12.0216,12.0216,12.0408,12.0793,12.0908,12.1177,12.1985,12.2908,12.3601,12.3985,12.5178,12.6294,12.7101,12.7602,12.8217,12.9102,12.9602,12.9602,12.9217,12.9102,12.8717,12.7909,12.7794,12.7794,12.7794,12.7794,12.7794,12.7794,12.8717,12.9602,13.0487,13.091,13.1295,13.1679,13.1679,13.1679,5.6631,6.1651,6.651,6.5816,6.4929,6.3896,6.272,0.0,0.0,0.0,0.0,0.0,0.0,0.0,0.0,0.0,0.0,0.0,0.0,0.0,0.0,0.0,0.0,0.0,0.0,0.0,0.0,0.0,0.0,0.0,0.0,12.2878,12.2001,12.1793,12.1677,12.16,12.16,12.16,12.16,12.16,12.2301,12.2801,12.287,12.3591,12.3581,0.0,0.0,0.0,12.1793,12.1677,12.16,12.16,12.16,12.16,12.16,12.16,12.16,12.16,12.16,12.16,12.1485,12.0639,12.0292,12.01,11.9215,11.9023,11.8908,11.8215,11.81,11.8407,11.91,11.9908,12.0485,12.0485,12.11,12.16,12.16,12.16,12.16,12.1793,12.1793,12.21,12.2908,12.3793,12.4601,12.5486,12.6294,12.7178,12.8025,12.8217,12.8602,12.9294,13.0217,13.041,12.9602,13.0294,13.041,12.9602,12.9294,12.9217,12.9217,12.9217,12.9294,12.941,13.0102,13.0602,13.0679,13.141,13.1679,13.1679,13.1679,13.1679,5.9525,6.4748,6.7519,5.9706,5.9699,6.1036,0.0,0.0,0.0,0.0,0.0,0.0,0.0,0.0,0.0,0.0,0.0,0.0,0.0,0.0,0.0,0.0,0.0,0.0,0.0,0.0,0.0,0.0,0.0,0.0,0.0,12.332,12.2696,12.1801,12.1793,12.1677,12.16,12.16,12.16,12.16,12.1677,12.2216,12.2889,12.3005,12.3399,0.0,0.0,12.2801,12.2609,12.187,12.16,12.16,12.16,12.16,12.16,12.16,12.16,12.16,12.16,12.16,12.1485,12.06,12.0292,11.9985,11.8484,11.8523,11.91,11.8908,11.9408,11.9908,12.01,12.0793,12.1408,12.1408,12.1485,12.16,12.16,12.16,12.1793,12.2601,12.2716,12.2985,12.3793,12.4601,12.5486,12.6409,12.7217,12.8025,12.8909,12.9602,13.0217,13.0294,13.0987,13.1487,13.1295,13.141,13.1487,13.1295,12.9987,12.9217,12.9217,12.9217,12.9487,13.0294,13.041,13.0794,13.1487,13.1602,13.1679,13.1679,13.1679,13.1679,5.7904,6.1698,6.4612,6.2145,6.619,7.0079,0.0,0.0,0.0,0.0,0.0,0.0,0.0,0.0,0.0,0.0,0.0,0.0,0.0,0.0,0.0,0.0,0.0,0.0,0.0,0.0,0.0,0.0,0.0,0.0,0.0,0.0,12.2508,12.1998,12.1892,12.1793,12.1677,12.16,12.16,12.16,12.2062,12.2485,12.2861,12.2861,12.3101,12.3379,0.0,12.2224,12.2224,12.1793,12.16,12.16,12.16,12.16,12.16,12.16,12.16,12.16,12.16,12.16,12.1485,12.11,12.0985,12.0908,12.01,12.01,12.0485,12.0485,12.0408,12.0408,12.0908,12.1293,12.16,12.16,12.16,12.1677,12.2216,12.2293,12.2485,12.3408,12.3524,12.3985,12.5293,12.5409,12.5986,12.7794,12.7986,12.8409,12.9717,13.0294,13.0679,13.1102,13.1487,13.1679,13.1679,13.1679,13.1679,13.1679,13.0987,13.0602,13.0602,13.0602,13.0718,13.1102,13.1102,13.1295,13.1679,13.1679,13.1679,13.1679,13.1679,13.1679,5.7633,6.0152,6.3245,0.0,0.0,0.0,0.0,0.0,0.0,0.0,0.0,0.0,0.0,0.0,0.0,0.0,0.0,0.0,0.0,0.0,0.0,0.0,0.0,0.0,0.0,0.0,0.0,0.0,0.0,0.0,0.0,0.0,12.212,12.212,12.1995,12.1815,12.1793,12.1677,12.16,12.16,12.2301,12.2609,12.2609,12.2609,12.2609,12.2609,12.187,12.16,12.16,12.16,12.16,12.16,12.16,12.16,12.16,12.16,12.16,12.16,12.16,12.16,12.16,12.1408,12.1408,12.1485,12.11,12.1293,12.16,12.1408,12.0985,12.0793,12.1408,12.16,12.16,12.16,12.16,12.1793,12.2716,12.2908,12.3216,12.4216,12.4601,12.5216,12.6717,12.6601,12.6986,12.9217,12.8909,12.8986,13.0294,13.0679,13.091,13.141,13.1602,13.1679,13.1679,13.1679,13.1679,13.1679,13.1679,13.1679,13.1679,13.1679,13.1679,13.1679,13.1679,13.1679,13.1679,13.1679,13.1679,13.1679,13.1679,13.1679,6.2504,6.5058,6.7113,6.7348,0.0,0.0,0.0,0.0,0.0,0.0,0.0,0.0,0.0,0.0,0.0,0.0,0.0,0.0,0.0,0.0,0.0,0.0,0.0,0.0,0.0,0.0,0.0,0.0,0.0,0.0,0.0,0.0,0.0,12.212,12.2082,12.2001,12.1793,12.1793,12.1677,12.16,12.1677,12.1677,12.1677,12.1677,12.1677,12.1677,12.16,12.16,12.16,12.16,12.16,12.16,12.16,12.16,12.16,12.16,12.16,12.16,12.16,12.16,12.1485,12.0677,12.0908,12.1293,11.9792,12.0408,12.1408,12.06,12.0908,12.1485,12.16,12.16,12.16,12.16,12.16,12.1793,12.2716,12.2908,12.3408,12.4986,12.5986,12.6794,12.7717,12.8409,12.9294,13.0294,13.041,13.041,13.0487,13.1179,13.1295,13.0679,13.1295,13.1679,13.1679,13.1679,13.1679,13.1679,13.1679,13.1679,13.1679,13.1679,13.1679,13.1679,13.1679,13.1679,13.1679,13.1679,13.1679,13.1679,13.1679,13.1679,5.9452,6.312,6.695,0.0,0.0,0.0,0.0,0.0,0.0,0.0,0.0,0.0,0.0,0.0,0.0,0.0,0.0,0.0,0.0,0.0,0.0,0.0,0.0,0.0,0.0,0.0,0.0,0.0,0.0,0.0,0.0,0.0,0.0,12.2197,12.2082,12.212,12.1995,12.1898,12.1815,12.1693,12.1608,12.16,12.16,12.16,12.16,12.16,12.16,12.16,12.16,12.16,12.16,12.16,12.16,12.16,12.16,12.16,12.16,12.16,12.16,12.16,12.1485,12.1177,12.1293,12.1485,12.0793,12.11,12.1485,12.1177,12.1293,12.16,12.16,12.16,12.16,12.16,12.16,12.1985,12.3293,12.3601,12.4216,12.5909,12.6486,12.6986,12.7794,12.7794,12.8102,12.9487,12.9217,12.9294,13.041,13.0794,13.0987,13.1179,13.1487,13.1679,13.1679,13.1679,13.1679,13.1679,13.1679,13.1679,13.1679,13.1679,13.1679,13.1679,13.1679,13.1679,13.1679,13.1679,13.1679,13.1679,13.1679,13.1679,5.9973,6.2726,6.6428,0.0,0.0,0.0,0.0,0.0,0.0,0.0,0.0,0.0,0.0,0.0,0.0,0.0,0.0,0.0,0.0,0.0,0.0,0.0,0.0,0.0,0.0,0.0,0.0,0.0,0.0,0.0,0.0,0.0,0.0,0.0,12.2198,12.2121,12.2081,12.1995,12.1909,12.1821,12.1693,12.1608,12.16,12.16,12.16,12.16,12.16,12.16,12.16,12.16,12.16,12.16,12.16,12.16,12.16,12.16,12.16,12.16,12.16,12.16,12.16,12.16,12.16,12.16,12.16,12.16,12.16,12.16,12.16,12.16,12.16,12.16,12.1677,12.1908,12.1985,12.2485,12.4101,12.4486,12.4909,12.6409,12.6909,12.7294,12.7794,12.7717,12.7909,12.8986,12.8909,12.9217,13.0294,13.0718,13.1102,13.1602,13.1679,13.1679,13.1679,13.1679,13.1679,13.1679,13.1679,13.1679,13.1679,13.1679,13.1679,13.1679,13.1679,13.1679,13.1679,13.1679,13.1679,13.1679,13.1679,13.1679,6.5613,6.4986,0.0,0.0,0.0,0.0,0.0,0.0,0.0,0.0,0.0,0.0,0.0,0.0,0.0,0.0,0.0,0.0,0.0,0.0,0.0,0.0,0.0,0.0,0.0,0.0,0.0,0.0,0.0,0.0,0.0,0.0,0.0,0.0,12.2313,12.2198,12.2081,12.2081,12.1998,12.1783,12.1783,12.17,12.16,12.16,12.16,12.16,12.16,12.16,12.16,12.16,12.16,12.16,12.16,12.16,12.16,12.16,12.16,12.16,12.16,12.16,12.16,12.16,12.16,12.16,12.16,12.16,12.16,12.16,12.16,12.16,12.16,12.16,12.1793,12.2716,12.2908,12.3408,12.4986,12.5409,12.5678,12.6486,12.7294,12.7909,12.7909,12.8602,12.9217,12.9217,12.991,13.0487,13.0487,13.1179,13.1679,13.1679,13.1679,13.1679,13.1679,13.1679,13.1679,13.1679,13.1679,13.1679,13.1679,13.1679,13.1679,13.1679,13.1679,13.1679,13.1679,13.1679,13.1679,13.1679,13.1679,13.1679,5.9545,6.4393,0.0,0.0,0.0,0.0,0.0,0.0,0.0,0.0,0.0,0.0,0.0,0.0,0.0,0.0,0.0,0.0,0.0,0.0,0.0,0.0,0.0,0.0,0.0,0.0,0.0,0.0,0.0,0.0,0.0,0.0,0.0,0.0,12.2313,12.2313,12.2198,12.2082,12.208,12.2001,12.1917,12.1783,12.16,12.16,12.16,12.16,12.16,12.16,12.16,12.16,12.1685,12.17,12.1608,12.1685,12.17,12.1608,12.16,12.16,12.16,12.16,12.16,12.16,12.16,12.16,12.16,12.16,12.16,12.16,12.16,12.16,12.16,12.21,12.2601,12.2793,12.3293,12.3985,12.5178,12.5909,12.6409,12.6601,12.7294,12.7717,12.7178,12.7294,12.7409,12.7409,12.7678,12.8294,12.941,13.0794,13.1679,13.1679,13.1679,13.1679,13.1679,13.1679,13.1679,13.1679,13.1679,13.1679,13.1679,13.1679,13.1679,13.1679,13.1679,13.1679,13.1679,13.1679,13.1679,13.1679,13.1679,13.1679,6.4749,0.0,0.0,0.0,0.0,0.0,0.0,0.0,0.0,0.0,0.0,0.0,0.0,0.0,0.0,0.0,0.0,0.0,0.0,0.0,0.0,0.0,0.0,0.0,0.0,0.0,0.0,0.0,0.0,0.0,0.0,0.0,0.0,0.0,12.2313,12.2313,12.2313,12.2198,12.2198,12.2081,12.1962,12.1875,12.17,12.1693,12.1731,12.1731,12.1731,12.1731,12.1693,12.17,12.1783,12.1788,12.17,12.1738,12.1821,12.1608,12.16,12.16,12.16,12.16,12.16,12.16,12.16,12.16,12.16,12.16,12.16,12.16,12.1793,12.21,12.21,12.2985,12.3793,12.3485,12.3985,12.4909,12.5678,12.6294,12.6678,12.6678,12.7101,12.7294,12.6794,12.6678,12.6678,12.6678,12.6986,12.7794,12.9487,13.0602,13.1295,13.1679,13.1679,13.1679,13.1679,13.1679,13.1679,13.1679,13.1679,13.1679,13.1679,13.1679,13.1679,13.1679,13.1679,13.1679,13.1679,13.1679,13.1679,13.1679,13.1679,13.1679,7.5521,0.0,0.0,0.0,0.0,0.0,0.0,0.0,0.0,0.0,0.0,0.0,0.0,0.0,0.0,0.0,0.0,0.0,0.0,0.0,0.0,0.0,0.0,0.0,0.0,0.0,0.0,0.0,0.0,0.0,0.0,0.0,0.0,12.2313,12.2313,12.2313,12.2313,12.2313,12.2198,0.0,12.2121,12.208,12.1921,12.1832,12.1783,12.1783,12.1783,12.1783,12.1783,12.1914,12.1879,12.1879,12.1788,12.1783,12.1783,12.1731,12.1562,12.1562,12.16,12.16,12.16,12.16,12.16,12.16,12.16,12.16,12.16,12.16,12.2216,12.2908,12.2908,12.4101,12.5216,12.4409,12.4909,12.5678,12.6486,12.6794,12.6794,12.6678,12.6794,12.6794,12.6678,12.6678,12.6678,12.6678,12.7409,12.8486,13.0102,13.041,13.0794,13.1487,13.1679,13.1679,13.1679,13.1679,13.1679,13.1679,13.1679,13.1679,13.1679,13.1679,13.1679,13.1679,13.1679,13.1679,13.1679,13.1679,13.1679,13.1679,13.1679,13.1679,6.6688,7.4038,0.0,0.0,10.0195,0.0,0.0,0.0,0.0,0.0,0.0,0.0,0.0,0.0,0.0,0.0,0.0,0.0,0.0,0.0,0.0,0.0,0.0,0.0,0.0,0.0,0.0,0.0,0.0,0.0,0.0,0.0,0.0,12.2313,12.2313,12.2313,12.2313,12.2313,12.2313,0.0,12.2275,12.2198,12.2198,12.1998,12.1875,12.1875,12.1875,12.1875,12.1875,12.1917,12.1998,12.2003,12.1879,12.1879,12.2001,12.1788,12.1777,12.17,12.1608,12.16,12.16,12.16,12.16,12.16,12.16,12.16,12.16,12.16,12.2216,12.2908,12.2908,12.4101,12.5409,12.5178,12.5794,12.6486,12.6678,12.7217,12.7486,12.6794,12.7217,12.7409,12.6794,12.6678,12.6678,12.6678,12.7409,12.8025,12.8409,12.9717,13.0602,13.0718,13.1295,13.1679,13.1679,13.1679,13.1679,13.1679,13.1679,13.1679,13.1679,13.1679,13.1679,13.1679,13.1679,13.1679,13.1679,13.1679,13.1679,13.1679,13.1679,13.1679,7.0104,0.0,0.0,9.6313,0.0,11.3111,11.4889,11.6898,0.0,0.0,0.0,0.0,0.0,0.0,0.0,0.0,0.0,0.0,0.0,0.0,0.0,0.0,0.0,0.0,0.0,0.0,0.0,0.0,0.0,0.0,0.0,12.2313,12.212,12.1694,12.1694,12.1501,12.1114,12.1114,12.1114,12.1114,12.1114,12.1308,12.1694,12.1888,12.1998,12.1879,12.1998,12.2001,12.2001,12.208,12.2121,12.2198,12.2003,12.2003,12.212,12.1875,12.1794,12.1832,12.1783,12.17,12.1693,12.1693,12.1685,12.16,12.16,12.16,12.16,12.16,12.2485,12.3485,12.3485,12.4716,12.5986,12.5986,12.6409,12.6678,12.6678,12.6986,12.7217,12.6794,12.6986,12.7217,12.6794,12.6678,12.6678,12.6678,12.7101,12.7486,12.7909,12.9102,12.9987,13.0487,13.1179,13.1679,13.1679,13.1679,13.1679,13.1679,13.1679,13.1679,13.1679,13.1679,13.1679,13.1679,13.1679,13.1679,13.1679,13.1679,13.1679,13.1679,13.1679,13.1679,7.4022,0.0,8.8012,10.3421,11.0214,0.0,11.439,11.6282,11.7981,11.8174,0.0,0.0,0.0,0.0,0.0,0.0,0.0,0.0,0.0,0.0,0.0,0.0,0.0,0.0,0.0,0.0,0.0,0.0,0.0,0.0,12.1888,12.1888,12.1501,12.0805,12.0805,12.0379,11.9683,11.9683,11.9683,11.9683,11.9683,12.0108,12.0805,12.1425,12.1811,12.2001,12.212,12.2121,12.2082,12.2314,12.2313,12.2313,12.2198,12.2121,12.2081,12.2001,12.1921,12.1921,12.1879,12.1914,12.1827,12.1783,12.1693,12.1608,12.16,12.16,12.16,12.16,12.2716,12.3909,12.4101,12.5293,12.6486,12.6678,12.6678,12.6678,12.6678,12.6678,12.6678,12.6678,12.6678,12.6678,12.6678,12.6678,12.6678,12.6678,12.6678,12.6909,12.7602,12.8602,12.9487,13.0217,13.1102,13.1679,13.1679,13.1679,13.1679,13.1679,13.1679,13.1679,13.1679,13.1679,13.1679,13.1679,13.1679,13.1679,13.1679,13.1679,13.1679,13.1679,13.1679,13.1679,6.2607,0.0,9.3335,0.0,11.021,11.2685,0.0,0.0,11.6398,0.0,0.0,0.0,0.0,0.0,0.0,0.0,0.0,0.0,0.0,0.0,0.0,0.0,0.0,0.0,0.0,0.0,0.0,0.0,0.0,0.0,11.9992,11.9992,11.9992,11.9915,11.9915,11.9799,11.9683,11.9683,11.9683,11.9683,11.9683,11.9799,11.9915,11.9992,12.0806,12.2198,12.2275,12.2275,12.2275,12.2313,12.2313,12.2313,12.2313,12.2275,12.2275,12.2121,12.212,12.208,12.1921,12.1917,12.1914,12.1827,12.1821,12.1815,12.1608,12.16,12.16,12.16,12.2293,12.3216,12.3909,12.4793,12.5794,12.6486,12.6678,12.6678,12.6678,12.6678,12.6678,12.6678,12.6678,12.6678,12.6678,12.6678,12.6678,12.6678,12.6678,12.6678,12.6794,12.8217,12.9217,12.941,13.0794,13.1679,13.1679,13.1679,13.1679,13.1679,13.1679,13.1679,13.1679,13.1679,13.1679,13.1679,13.1679,13.1679,13.1679,13.1679,13.1679,13.1679,13.1679,13.1679,6.7859,8.0817,9.374,0.0,10.9785,11.1796,11.3532,11.4886,11.5892,11.5779,11.7094,0.0,0.0,0.0,0.0,0.0,0.0,0.0,0.0,0.0,0.0,0.0,0.0,0.0,0.0,0.0,0.0,0.0,0.0,11.9683,11.9683,11.9683,11.9489,11.8987,11.8987,11.8793,11.829,11.829,11.829,11.829,11.8793,11.8987,11.8987,11.9489,12.0379,12.1617,12.1617,12.1617,12.1617,12.212,12.2004,12.1617,12.212,12.2313,12.2313,12.2198,12.2198,12.2198,12.2121,12.212,12.2001,12.1998,12.1871,12.1821,12.17,12.1685,12.16,12.16,12.2216,12.2985,12.3293,12.3985,12.4793,12.5178,12.5601,12.5986,12.5986,12.6409,12.6678,12.6678,12.6678,12.6678,12.6678,12.6678,12.6678,12.6678,12.6678,12.6909,12.7294,12.8409,12.941,12.991,13.0987,13.1679,13.1679,13.1679,13.1679,13.1679,13.1679,13.1679,13.1679,13.1679,13.1679,13.1679,13.1679,13.1679,13.1679,13.1679,13.1679,13.1679,13.1679,13.1679,7.0075,0.0,8.8004,10.0898,10.6001,10.8707,0.0,0.0,11.4805,0.0,11.547,11.6704,0.0,0.0,0.0,0.0,0.0,0.0,0.0,0.0,0.0,0.0,0.0,0.0,0.0,0.0,0.0,0.0,0.0,11.8406,11.8406,11.8406,11.8097,11.7478,11.7401,11.7091,11.6511,11.682,11.6898,11.6898,11.771,11.8097,11.8097,11.8793,11.9489,12.0379,12.0805,12.1114,12.1385,12.2004,12.1888,12.1385,12.2004,12.2313,12.2313,12.2313,12.2313,12.2313,12.2313,12.2198,12.2082,12.2081,12.1998,12.1909,12.1788,12.1821,12.1693,12.1693,12.2116,12.2686,12.3109,12.3485,12.3985,12.4601,12.5101,12.5486,12.5678,12.6178,12.6678,12.6678,12.6678,12.6678,12.6678,12.6678,12.6678,12.6678,12.6678,12.6986,12.7794,12.8717,12.9487,13.041,13.1179,13.1679,13.1679,13.1679,13.1679,13.1679,13.1679,13.1679,13.1679,13.1679,13.1679,13.1679,13.1679,13.1679,13.1679,13.1679,13.1679,13.1679,13.1679,13.1679,0.0,6.653,7.3584,8.8784,9.6255,10.1581,10.8204,0.0,11.2527,11.3191,11.4113,11.4689,11.4805,0.0,0.0,0.0,0.0,0.0,0.0,0.0,0.0,0.0,0.0,0.0,0.0,0.0,0.0,0.0,11.4886,11.4886,11.4886,11.4886,11.4809,11.4809,11.4809,11.4809,11.4693,11.5583,11.6008,11.6008,11.682,11.7285,11.7285,11.7285,11.7787,11.86,12.0302,12.1501,12.2197,12.2313,12.2313,12.2197,12.2313,12.2313,12.2313,12.2313,12.2313,12.2313,12.2313,12.2313,12.2275,12.2121,12.2081,12.208,12.1921,12.1917,12.1917,12.1917,12.1909,12.2207,12.3825,12.3618,12.3601,12.5986,12.5986,12.5601,12.6486,12.6678,12.6678,12.6678,12.6678,12.6678,12.6678,12.6678,12.6678,12.6678,12.6678,12.6986,12.7794,12.8717,12.9487,13.041,13.1179,13.1679,13.1679,13.1679,13.1679,13.1679,13.1679,13.1679,13.1679,13.1679,13.1679,13.1679,13.1679,13.1679,13.1679,13.1679,13.1679,13.1679,13.1679,13.1679,0.0,6.3902,7.0004,8.2147,9.0653,9.7369,10.2572,10.8122,11.2217,11.2492,11.361,11.438,11.3915,11.4499,11.508,0.0,0.0,0.0,0.0,0.0,0.0,0.0,0.0,0.0,0.0,0.0,0.0,0.0,0.0,0.0,11.4616,11.4616,11.4616,11.4616,11.4616,11.4886,11.5389,11.5699,11.6201,11.6704,11.7091,11.7207,11.7207,11.7207,11.7594,11.8406,11.9103,11.9799,12.0689,12.181,12.2004,12.1501,12.212,12.2313,12.2313,12.2313,12.2313,12.2313,12.2313,12.2313,12.2313,12.2198,12.2237,12.2081,12.2003,12.1998,12.1917,12.1917,12.1909,12.2091,12.3208,12.3194,12.3408,12.5409,12.5601,12.5601,12.6486,12.6678,12.6678,12.6678,12.6678,12.6678,12.6678,12.7101,12.7294,12.6794,12.7602,12.8409,12.8717,12.9487,13.041,13.1179,13.1487,13.1679,13.1679,13.1679,13.1679,13.1679,13.1679,13.1679,13.1679,13.1679,13.1679,13.1679,13.1679,13.1679,13.1679,13.1679,13.1679,13.1679,13.1679,13.1679,5.4653,0.0,0.0,0.0,8.2545,8.8654,9.8399,10.3692,10.732,11.021,11.2217,11.3068,11.2565,11.2914,11.3494,11.4109,11.3915,0.0,0.0,0.0,0.0,0.0,0.0,0.0,0.0,0.0,0.0,0.0,0.0,0.0,11.3803,11.3803,11.3803,11.3803,11.3803,11.3997,11.4616,11.5196,11.5815,11.6318,11.6898,11.7207,11.7207,11.7207,11.7517,11.7981,11.829,11.9103,12.0186,12.1385,12.1694,12.1501,12.212,12.2313,12.2313,12.2313,12.2313,12.2313,12.2313,12.2313,12.2313,12.2313,12.2198,12.2198,12.2198,12.2081,12.2003,12.2003,12.1998,12.2222,12.3302,12.3902,12.4379,12.5264,12.5726,12.5986,12.6601,12.6678,12.6678,12.6678,12.6678,12.6794,12.7101,12.7486,12.7794,12.7602,12.8486,12.9294,12.9602,13.0102,13.0794,13.1602,13.1679,13.1679,13.1679,13.1679,13.1679,13.1679,13.1679,13.1679,13.1679,13.1679,13.1679,13.1679,13.1679,13.1679,13.1679,13.1679,13.1679,13.1679,13.1679,13.1679,0.0,0.0,0.0,0.0,0.0,7.5182,9.5146,9.7336,9.7539,10.6087,10.9287,11.0481,11.0709,11.0709,11.1289,11.2875,11.2604,11.2411,11.3184,0.0,0.0,0.0,0.0,0.0,0.0,0.0,0.0,0.0,0.0,11.2101,11.2101,11.2101,11.2101,11.2101,11.2101,11.2101,11.2101,11.3687,11.4616,11.4693,11.6395,11.7207,11.7207,11.7207,11.7207,11.7207,11.7981,11.9296,12.0882,12.0998,12.1501,12.2313,12.2313,12.2313,12.2313,12.2313,12.2313,12.2313,12.2313,12.2313,12.2313,12.2313,12.2313,12.2313,12.2313,12.2313,12.2313,12.2313,12.2198,12.2506,12.4206,12.5698,12.6599,12.579,12.6197,12.6678,12.6678,12.6678,12.6678,12.6678,12.6794,12.6986,12.7794,12.8025,12.8294,12.9102,12.9217,12.9602,13.041,13.0487,13.0794,13.1602,13.1679,13.1679,13.1679,13.1679,13.1679,13.1679,13.1679,13.1679,13.1679,13.1679,13.1679,13.1679,13.1679,13.1679,13.1679,13.1679,13.1679,13.1679,13.1679,13.1679,4.7658,0.0,0.0,0.0,0.0,0.0,0.0,8.2084,8.7981,9.7137,10.0414,10.3112,10.8117,10.9509,11.0012,11.0477,11.0902,11.1211,11.1482,11.1985,0.0,0.0,0.0,0.0,0.0,0.0,0.0,0.0,11.2101,11.2101,11.2101,11.2101,11.2101,11.2101,11.2101,11.2411,11.2991,11.3494,11.4306,11.5505,11.6008,11.6588,11.7207,11.7207,11.7207,11.7207,11.7401,11.8097,11.918,12.0495,12.1501,12.2313,12.2313,12.2313,12.2313,12.2313,12.2313,12.2313,12.2313,12.2313,12.2313,12.2313,12.2313,12.2313,12.2313,12.2313,12.2313,12.2313,12.2198,12.2506,12.4124,12.5698,12.6889,12.6696,12.6767,12.6921,12.6921,12.7422,12.7801,12.7612,12.8102,12.8602,12.8794,12.941,12.9602,12.9294,13.0217,13.091,13.0487,13.0987,13.1487,13.1679,13.1679,13.1679,13.1679,13.1679,13.1679,13.1679,13.1679,13.1679,13.1679,13.1679,13.1679,13.1679,13.1679,13.1679,13.1679,13.1679,13.1679,13.1679,13.1679,13.1679,0.0,0.0,0.0,0.0,0.0,0.0,7.2918,7.6931,8.1793,9.4065,9.7952,10.0479,10.4829,10.6608,10.7421,10.7421,10.8388,10.9509,11.0206,11.0709,11.1211,0.0,0.0,0.0,0.0,11.2101,11.2101,11.2101,11.2101,11.2101,11.2101,11.2101,11.2101,11.2101,11.2101,11.2488,11.3378,11.3687,11.4499,11.5892,11.6318,11.6704,11.7207,11.7207,11.7207,11.7207,11.7207,11.771,11.8484,11.9489,12.0611,12.181,12.181,12.2004,12.2313,12.2313,12.2313,12.2313,12.2313,12.2313,12.2313,12.2313,12.2313,12.2313,12.2313,12.2313,12.2313,12.2313,12.2701,12.3473,12.4824,12.6135,12.7097,12.7097,12.7015,12.701,12.701,12.7898,12.8624,12.8083,12.8699,12.9382,12.9679,13.0217,13.041,13.0294,13.1102,13.1487,13.1102,13.141,13.1679,13.1679,13.1679,13.1679,13.1679,13.1679,13.1679,13.1679,13.1679,13.1679,13.1679,13.1679,13.1679,13.1679,13.1679,13.1679,13.1679,13.1679,13.1679,13.1679,13.1679,13.1679,0.0,0.0,0.0,0.0,0.0,0.0,7.5118,7.5681,7.6559,9.1354,9.5933,9.7702,9.9336,10.1193,10.2315,10.2005,10.4287,10.6879,10.9084,10.9393,10.9819,11.0593,0.0,0.0,11.1714,11.1908,11.2024,11.2024,11.2024,11.2101,11.2101,11.2101,11.2101,11.2101,11.2101,11.2411,11.3184,11.3919,11.4809,11.5815,11.6511,11.7014,11.7207,11.7207,11.7207,11.7207,11.7207,11.7594,11.829,11.829,11.9296,12.0998,12.0998,12.1501,12.2313,12.2313,12.2313,12.2313,12.2313,12.2313,12.2313,12.2313,12.2313,12.2313,12.2313,12.2313,12.2313,12.2391,12.359,12.4982,12.5911,12.6683,12.7181,12.7181,12.7101,12.7015,12.7015,12.8405,12.9287,12.8379,12.8996,12.9912,13.0575,13.0729,13.0871,13.1564,13.1679,13.1679,13.1679,13.1679,13.1679,13.1679,13.1679,13.1679,13.1679,13.1679,13.1679,13.1679,13.1679,13.1679,13.1679,13.1679,13.1679,13.1679,13.1679,13.1679,13.1679,13.1679,13.1679,13.1679,13.1679,13.1679,5.5659,5.6652,5.8044,0.0,0.0,0.0,0.0,5.9959,6.4286,7.0247,7.3844,7.7921,8.4327,8.8002,8.9395,8.7345,9.4772,10.2585,10.7807,10.9084,10.9587,10.9703,10.9819,0.0,11.0012,11.0593,11.1095,11.1095,11.1714,11.2101,11.2101,11.2101,11.2101,11.2101,11.2101,11.2217,11.2295,11.2488,11.3416,11.4886,11.5002,11.5815,11.7207,11.7207,11.7207,11.7207,11.7207,11.7285,11.7401,11.7401,11.8793,12.0998,12.0998,12.1501,12.2313,12.2313,12.2313,12.2313,12.2313,12.2313,12.2313,12.2313,12.2313,12.2313,12.2313,12.2313,12.2391,12.3087,12.4015,12.4982,12.5911,12.6723,12.738,12.738,12.7303,12.7263,12.7263,12.8577,12.9737,12.9418,13.0605,13.1594,13.1826,13.1732,13.1674,13.179,13.1768,13.1679,13.1679,13.1679,13.1679,13.1679,13.1679,13.1679,13.1679,13.1679,13.1679,13.1679,13.1679,13.1679,13.1679,13.1679,13.1679,13.1679,13.1679,13.1679,13.1679,13.1679,13.1679,13.1679,13.1679,13.1679,5.8799,5.8877,5.9804,5.936,0.0,0.0,0.0,0.0,6.1834,6.8643,7.0363,7.2352,7.7945,8.0343,8.1658,8.2084,8.9317,9.5623,9.7827,10.3591,10.7807,10.8194,10.831,0.0,10.8891,10.9703,11.0206,11.0206,11.1018,11.1521,11.1521,11.1908,11.2101,11.2101,11.2101,11.2295,11.272,11.272,11.33,11.4616,11.4616,11.5312,11.6588,11.6588,11.682,11.7207,11.7207,11.7207,11.7207,11.7207,11.8213,11.9683,12.0186,12.1114,12.2313,12.2313,12.2313,12.2313,12.2313,12.2313,12.2313,12.2313,12.2313,12.2313,12.2313,12.2313,12.2584,12.3783,12.448,12.5098,12.6414,12.711,12.7381,12.7381,12.769,12.8,12.8,12.9315,13.0514,13.0471,13.1512,13.2276,13.211,13.2018,13.201,13.201,13.1915,13.1818,13.1818,13.1691,13.1679,13.1679,13.1679,13.1679,13.1679,13.1679,13.1679,13.1679,13.1679,13.1679,13.1679,13.1679,13.1679,13.1679,13.1679,13.1679,13.1679,13.1679,13.1679,13.1679,13.1679,13.1679,0.0,0.0,0.0,0.0,0.0,5.9951,0.0,0.0,0.0,0.0,0.0,6.8816,7.191,7.2761,7.3767,7.6204,0.0,0.0,0.0,9.4269,0.0,10.3204,10.4906,0.0,10.6299,10.6802,10.7691,10.9393,10.8813,10.9084,11.0709,11.1521,11.1908,11.2101,11.2101,11.2411,11.3107,11.3107,11.3494,11.4306,11.4306,11.4886,11.5892,11.5892,11.6395,11.7207,11.7207,11.7207,11.7207,11.7207,11.771,11.8484,11.9412,12.0689,12.2081,12.2197,12.2313,12.2313,12.2313,12.2313,12.2313,12.2313,12.2313,12.2313,12.2313,12.2391,12.2816,12.4402,12.4905,12.5408,12.6994,12.7381,12.7381,12.7381,12.8,12.8618,12.8618,13.0011,13.121,13.121,13.1906,13.2407,13.2193,13.2187,13.211,13.211,13.1972,13.1925,13.1915,13.1779,13.173,13.1679,13.1679,13.1679,13.1679,13.1679,13.1679,13.1679,13.1679,13.1679,13.1679,13.1679,13.1679,13.1679,13.1679,13.1679,13.1679,13.1679,13.1679,13.1679,13.1679,13.1679,0.0,0.0,0.0,0.0,6.6089,0.0,0.0,0.0,0.0,0.0,0.0,0.0,0.0,0.0,0.0,0.0,0.0,0.0,7.3535,8.0227,8.6571,8.9704,9.7402,0.0,0.0,9.864,10.1386,10.8891,10.332,10.2817,11.0399,11.0902,11.1289,11.2101,11.2101,11.2101,11.2217,11.2217,11.2604,11.3416,11.3416,11.4306,11.5892,11.5892,11.6395,11.7207,11.7207,11.7207,11.7207,11.7207,11.771,11.8484,11.9412,12.0302,12.1192,12.2004,12.2313,12.2313,12.2313,12.2313,12.2313,12.2313,12.2313,12.2313,12.2313,12.2816,12.359,12.448,12.5408,12.6182,12.711,12.7381,12.7381,12.7381,12.8,12.8618,12.8618,13.0011,13.121,13.121,13.1906,13.2487,13.2484,13.2401,13.2276,13.2276,13.2187,13.2018,13.1877,13.1915,13.1828,13.1679,13.1679,13.1679,13.1679,13.1679,13.1679,13.1679,13.1679,13.1679,13.1679,13.1679,13.1679,13.1679,13.1679,13.1679,13.1679,13.1679,13.1679,13.1679,13.1679,13.1679,0.0,0.0,0.0,0.0,0.0,0.0,0.0,0.0,5.4675,0.0,0.0,0.0,0.0,0.0,0.0,0.0,6.3787,0.0,0.0,7.2877,7.9995,0.0,0.0,0.0,0.0,0.0,0.0,0.0,10.158,10.2005,10.7498,10.9703,11.1018,11.1289,11.1792,11.2101,11.2101,11.2101,11.2295,11.2604,11.2604,11.3494,11.5118,11.5118,11.5892,11.7207,11.7207,11.7207,11.7207,11.7207,11.7401,11.7787,11.86,11.9799,12.0998,12.1385,12.1888,12.2313,12.2313,12.2313,12.2313,12.2313,12.2313,12.2313,12.2313,12.2507,12.3087,12.4402,12.5098,12.5679,12.6994,12.7381,12.7381,12.7381,12.8386,12.9392,12.9392,13.0707,13.1984,13.1984,13.2216,13.2487,13.2487,13.2484,13.2404,13.2404,13.2281,13.2193,13.211,13.2096,13.2002,13.1828,13.1779,13.1818,13.1679,13.1679,13.1679,13.1679,13.1679,13.1679,13.1679,13.1679,13.1679,13.1679,13.1679,13.1679,13.1679,13.1679,13.1679,13.1679,13.1679,13.1679,7.1433,0.0,0.0,0.0,0.0,0.0,0.0,0.0,0.0,0.0,0.0,0.0,0.0,0.0,0.0,0.0,0.0,6.2781,0.0,6.5528,7.1253,0.0,0.0,0.0,0.0,0.0,0.0,0.0,0.0,9.9143,10.5409,10.831,11.009,11.0786,11.1598,11.2101,11.2101,11.2101,11.2101,11.2101,11.2101,11.2991,11.4616,11.4616,11.5583,11.7207,11.7207,11.7207,11.7207,11.7207,11.7207,11.7285,11.7787,11.9103,12.0689,12.0882,12.1617,12.2313,12.2313,12.2313,12.2313,12.2313,12.2313,12.2313,12.2313,12.2584,12.3203,12.448,12.5098,12.5795,12.711,12.7381,12.7381,12.7381,12.8696,12.9895,12.9895,13.1288,13.2487,13.2487,13.2487,13.2487,13.2487,13.2487,13.2487,13.2487,13.2404,13.2323,13.2281,13.2193,13.2103,13.1877,13.1915,13.179,13.1679,13.1679,13.1679,13.1679,13.1679,13.1679,13.1679,13.1679,13.1679,13.1679,13.1679,13.1679,13.1679,13.1679,13.1679,13.1679,13.1679,13.1679,0.0,0.0,0.0,0.0,0.0,0.0,0.0,0.0,5.8178,0.0,0.0,0.0,0.0,0.0,0.0,0.0,0.0,0.0,0.0,0.0,0.0,0.0,0.0,0.0,0.0,0.0,8.278,0.0,8.9085,0.0,10.5022,10.6608,10.831,11.0709,11.1598,11.2101,11.2101,11.2101,11.2101,11.2101,11.2101,11.2991,11.4616,11.4616,11.5583,11.7207,11.7207,11.7207,11.7207,11.7207,11.7207,11.7207,11.7207,11.829,11.9799,12.0689,12.1617,12.2313,12.2313,12.2313,12.2313,12.2313,12.2313,12.2313,12.2313,12.3396,12.4712,12.4789,12.5988,12.7303,12.7381,12.7381,12.7381,12.7381,12.8696,12.9895,12.9895,13.1288,13.2487,13.2487,13.2487,13.2487,13.2487,13.2487,13.2487,13.2487,13.2487,13.2407,13.2281,13.2319,13.2193,13.1877,13.1915,13.179,13.1679,13.1679,13.1679,13.1679,13.1679,13.1679,13.1679,13.1679,13.1679,13.1679,13.1679,13.1679,13.1679,13.1679,13.1679,13.1679,13.1679,13.1679,0.0,0.0,8.8124,7.5673,0.0,0.0,0.0,0.0,0.0,0.0,0.0,0.0,0.0,0.0,0.0,0.0,0.0,0.0,0.0,0.0,0.0,0.0,0.0,0.0,0.0,0.0,0.0,8.8737,8.8853,9.2412,10.0999,10.3901,10.6183,10.8194,11.0206,11.1521,11.2101,11.2101,11.2101,11.2101,11.2101,11.2991,11.4616,11.4616,11.5583,11.7207,11.7207,11.7207,11.7207,11.7207,11.7207,11.7207,11.7207,11.8213,11.9683,11.9992,12.1114,12.2313,12.2313,12.2313,12.2313,12.2313,12.2313,12.2391,12.2894,12.3512,12.4209,12.5292,12.6104,12.6684,12.7303,12.7381,12.7381,12.7381,12.8696,12.9895,12.9895,13.1288,13.2487,13.2487,13.2487,13.2487,13.2487,13.2487,13.2487,13.2487,13.2487,13.2525,13.2407,13.2407,13.2401,13.2232,13.2103,13.201,13.1828,13.1807,13.1679,13.1679,13.1679,13.1679,13.1679,13.1679,13.1679,13.1679,13.1679,13.1679,13.1679,13.1679,13.1679,13.1679,13.1679,13.1679,8.9804,9.2617,0.0,0.0,8.1251,0.0,6.5583,0.0,0.0,0.0,0.0,0.0,0.0,0.0,0.0,0.0,0.0,0.0,0.0,5.0248,0.0,0.0,0.0,0.0,0.0,7.1601,7.7558,8.5526,8.5991,8.9395,0.0,0.0,10.4287,10.5989,10.9084,11.1095,11.1598,11.1908,11.2101,11.2101,11.2411,11.33,11.4616,11.4886,11.5815,11.7207,11.7207,11.7207,11.7207,11.7207,11.7207,11.7207,11.7207,11.8213,11.9683,11.9683,12.0805,12.2313,12.2313,12.2313,12.2313,12.2313,12.2313,12.2507,12.3319,12.3706,12.4286,12.5679,12.6298,12.6684,12.7303,12.7381,12.7497,12.7806,12.8889,13.0011,13.0321,13.1481,13.2487,13.2487,13.2487,13.2487,13.2487,13.2487,13.2487,13.2487,13.2487,13.2487,13.2487,13.2487,13.2407,13.2281,13.2232,13.2018,13.179,13.1691,13.1679,13.1679,13.1679,13.1679,13.1679,13.1679,13.1679,13.1679,13.1679,13.1679,13.1679,13.1679,13.1679,13.1679,13.1679,13.1679]},{"header":{"parameterUnit":"m.s-1","parameterCategory":1,"la1":30.6,"la2":29.2853,"lo1":-89.7004,"lo2":-87.6739,"dy":0.0162,"dx":0.0183,"nx":112,"ny":82,"refTime":"2026-02-18T12:00:00:Z","depth":0,"parameterNumber":3,"parameterNumberName":"V-component_of_WINDS"},"data":[0.0,0.0,0.0,0.0,0.0,0.0,0.0,0.0,0.0,0.0,0.0,0.0,0.0,0.0,0.0,0.0,0.0,0.0,0.0,0.0,0.0,0.0,0.0,0.0,0.0,0.0,0.0,0.0,0.0,0.0,0.0,0.0,0.0,0.0,0.0,0.0,0.0,0.0,0.0,0.0,0.0,0.0,0.0,0.0,0.0,0.0,0.0,0.0,0.0,0.0,0.0,0.0,0.0,0.0,0.0,0.0,0.0,0.0,0.0,0.0,0.0,0.0,0.0,0.0,0.0,0.0,0.0,0.0,0.0,0.0,0.0,0.0,0.0,0.0,0.0,0.0,0.0,0.0,0.0,0.0,0.0,0.0,0.0,0.0,0.0,0.0,0.0,0.0,0.0,0.0,0.0,-2.5832,-3.0491,-3.3576,-3.3777,-3.3199,-3.0998,-2.6285,0.0,0.0,0.0,0.0,0.0,0.0,0.0,0.0,0.0,0.0,0.0,0.0,0.0,0.0,0.0,0.0,0.0,0.0,0.0,0.0,0.0,0.0,0.0,0.0,0.0,0.0,0.0,0.0,0.0,0.0,0.0,0.0,0.0,0.0,0.0,0.0,0.0,0.0,0.0,0.0,0.0,0.0,0.0,0.0,0.0,0.0,0.0,0.0,0.0,0.0,0.0,0.0,0.0,0.0,0.0,0.0,0.0,0.0,0.0,0.0,0.0,0.0,0.0,0.0,0.0,0.0,0.0,0.0,0.0,0.0,0.0,0.0,0.0,0.0,0.0,0.0,0.0,0.0,0.0,0.0,0.0,0.0,0.0,0.0,0.0,0.0,0.0,0.0,0.0,0.0,0.0,0.0,0.0,0.0,0.0,0.0,0.0,0.0,0.0,0.0,0.0,0.0,0.0,0.0,-2.4551,-3.0153,-3.2555,-3.3702,-3.3904,-3.305,-3.0757,-2.613,0.0,0.0,0.0,0.0,0.0,0.0,0.0,0.0,0.0,0.0,0.0,0.0,0.0,0.0,0.0,0.0,0.0,0.0,0.0,0.0,0.0,0.0,0.0,0.0,0.0,0.0,0.0,0.0,0.0,0.0,0.0,0.0,0.0,0.0,0.0,0.0,0.0,0.0,0.0,0.0,0.0,0.0,0.0,0.0,0.0,0.0,0.0,0.0,0.0,0.0,0.0,0.0,0.0,0.0,0.0,0.0,0.0,0.0,0.0,0.0,0.0,0.0,0.0,0.0,0.0,0.0,0.0,0.0,0.0,0.0,0.0,0.0,0.0,0.0,0.0,0.0,0.0,0.0,0.0,0.0,0.0,0.0,0.0,0.0,0.0,0.0,0.0,0.0,0.0,0.0,0.0,0.0,0.0,0.0,0.0,0.0,0.0,0.0,0.0,0.0,0.0,0.0,0.0,-2.2802,-2.5969,-3.1614,-3.3171,-3.3787,-3.3787,-3.305,-3.0539,-2.5908,-2.3952,0.0,0.0,0.0,0.0,0.0,0.0,0.0,0.0,0.0,0.0,0.0,0.0,0.0,0.0,0.0,0.0,0.0,0.0,0.0,0.0,0.0,0.0,0.0,0.0,0.0,0.0,0.0,0.0,0.0,0.0,0.0,0.0,0.0,0.0,0.0,0.0,0.0,0.0,0.0,0.0,0.0,0.0,0.0,0.0,0.0,0.0,0.0,0.0,0.0,0.0,0.0,0.0,0.0,0.0,0.0,0.0,0.0,0.0,0.0,0.0,0.0,0.0,0.0,0.0,0.0,0.0,0.0,0.0,0.0,0.0,0.0,0.0,0.0,0.0,0.0,0.0,0.0,0.0,0.0,0.0,0.0,0.0,0.0,0.0,0.0,0.0,0.0,0.0,0.0,0.0,0.0,0.0,0.0,0.0,0.0,0.0,0.0,0.0,0.0,0.0,0.0,0.0,-2.5433,-2.7932,-3.2314,-3.3376,-3.3787,-3.3787,-3.2652,-3.002,-2.553,-2.314,0.0,0.0,0.0,0.0,0.0,0.0,0.0,0.0,0.0,0.0,0.0,0.0,0.0,0.0,0.0,0.0,0.0,0.0,0.0,0.0,0.0,0.0,0.0,0.0,0.0,0.0,0.0,0.0,0.0,0.0,0.0,0.0,0.0,0.0,0.0,0.0,0.0,0.0,0.0,0.0,0.0,0.0,0.0,0.0,0.0,0.0,0.0,0.0,0.0,0.0,0.0,0.0,0.0,0.0,0.0,0.0,0.0,0.0,0.0,0.0,0.0,0.0,0.0,0.0,0.0,0.0,0.0,0.0,0.0,0.0,0.0,0.0,0.0,0.0,0.0,0.0,0.0,0.0,0.0,0.0,0.0,0.0,0.0,0.0,0.0,0.0,0.0,0.0,0.0,0.0,0.0,0.0,0.0,0.0,0.0,0.0,0.0,0.0,0.0,0.0,0.0,0.0,-2.7075,-3.0745,-3.3074,-3.3593,-3.3787,-3.3787,-3.1457,-2.8475,-2.4914,-2.1535,0.0,0.0,0.0,0.0,0.0,0.0,0.0,0.0,0.0,0.0,0.0,0.0,0.0,0.0,0.0,0.0,0.0,0.0,0.0,0.0,0.0,0.0,0.0,0.0,0.0,0.0,0.0,0.0,0.0,0.0,0.0,0.0,0.0,0.0,0.0,0.0,0.0,0.0,0.0,0.0,0.0,0.0,0.0,0.0,0.0,0.0,0.0,0.0,0.0,0.0,0.0,0.0,0.0,0.0,0.0,0.0,0.0,0.0,0.0,0.0,0.0,0.0,0.0,0.0,0.0,0.0,0.0,0.0,0.0,0.0,0.0,0.0,0.0,0.0,0.0,0.0,0.0,0.0,0.0,0.0,0.0,0.0,0.0,0.0,0.0,0.0,0.0,0.0,0.0,0.0,0.0,0.0,0.0,0.0,0.0,0.0,0.0,0.0,0.0,0.0,0.0,0.0,-2.6218,-2.967,0.0,-3.3376,-3.3533,-3.3533,-3.2,-2.9212,-2.4902,0.0,0.0,0.0,0.0,0.0,0.0,0.0,0.0,0.0,0.0,0.0,0.0,0.0,0.0,0.0,0.0,0.0,0.0,0.0,0.0,0.0,0.0,0.0,0.0,0.0,0.0,0.0,0.0,0.0,0.0,0.0,0.0,0.0,0.0,0.0,0.0,0.0,0.0,0.0,0.0,0.0,0.0,0.0,0.0,0.0,0.0,0.0,0.0,0.0,0.0,0.0,0.0,0.0,0.0,0.0,0.0,0.0,0.0,0.0,0.0,0.0,0.0,0.0,0.0,0.0,0.0,0.0,0.0,0.0,0.0,0.0,0.0,0.0,0.0,0.0,0.0,0.0,0.0,0.0,0.0,0.0,0.0,0.0,0.0,0.0,0.0,0.0,0.0,0.0,0.0,0.0,0.0,0.0,0.0,0.0,0.0,0.0,0.0,0.0,0.0,0.0,0.0,-2.285,-2.6375,-2.9719,0.0,-3.3268,-3.334,-3.3243,-3.1747,-2.8958,-2.4649,0.0,0.0,0.0,0.0,0.0,0.0,0.0,0.0,0.0,0.0,0.0,0.0,0.0,0.0,0.0,0.0,0.0,0.0,0.0,0.0,0.0,0.0,0.0,0.0,0.0,0.0,0.0,0.0,0.0,0.0,0.0,0.0,0.0,0.0,0.0,0.0,0.0,0.0,0.0,0.0,0.0,0.0,0.0,0.0,0.0,0.0,0.0,0.0,0.0,0.0,0.0,0.0,0.0,0.0,0.0,0.0,0.0,0.0,0.0,0.0,0.0,0.0,0.0,0.0,0.0,0.0,0.0,0.0,0.0,0.0,0.0,0.0,0.0,0.0,0.0,0.0,0.0,0.0,0.0,0.0,0.0,0.0,0.0,0.0,0.0,0.0,0.0,0.0,0.0,0.0,0.0,0.0,0.0,0.0,0.0,0.0,0.0,0.0,0.0,0.0,0.0,0.0,-2.3562,-2.8029,-3.1602,-3.3207,-3.3376,-3.3268,-3.3014,-3.0322,-2.728,0.0,0.0,0.0,0.0,0.0,0.0,0.0,0.0,0.0,0.0,0.0,0.0,0.0,0.0,0.0,0.0,0.0,0.0,0.0,0.0,0.0,0.0,0.0,0.0,0.0,0.0,0.0,0.0,0.0,0.0,0.0,0.0,0.0,0.0,0.0,0.0,0.0,0.0,0.0,0.0,0.0,0.0,0.0,0.0,0.0,0.0,0.0,0.0,0.0,0.0,0.0,0.0,0.0,0.0,0.0,0.0,0.0,0.0,0.0,0.0,0.0,0.0,0.0,0.0,0.0,0.0,0.0,0.0,0.0,0.0,0.0,0.0,0.0,0.0,0.0,0.0,0.0,0.0,0.0,0.0,0.0,0.0,0.0,0.0,0.0,0.0,0.0,0.0,0.0,0.0,0.0,0.0,0.0,0.0,0.0,0.0,0.0,0.0,0.0,0.0,0.0,0.0,0.0,-2.3321,-2.792,-3.1469,-3.2688,-3.3147,-3.3268,-3.3014,-3.1336,-2.8536,-2.4383,0.0,0.0,0.0,0.0,0.0,0.0,0.0,0.0,0.0,0.0,0.0,0.0,0.0,0.0,0.0,0.0,0.0,0.0,0.0,0.0,0.0,0.0,0.0,0.0,0.0,0.0,0.0,0.0,0.0,0.0,0.0,0.0,0.0,0.0,0.0,0.0,0.0,0.0,0.0,0.0,0.0,0.0,0.0,0.0,0.0,0.0,0.0,0.0,0.0,0.0,0.0,0.0,0.0,0.0,0.0,0.0,0.0,0.0,0.0,0.0,0.0,0.0,0.0,0.0,0.0,0.0,0.0,0.0,0.0,0.0,0.0,0.0,0.0,0.0,0.0,0.0,0.0,0.0,0.0,0.0,0.0,0.0,0.0,0.0,0.0,0.0,0.0,0.0,0.0,0.0,0.0,0.0,0.0,0.0,0.0,0.0,0.0,0.0,0.0,0.0,0.0,0.0,-2.3635,-2.8065,-3.1529,-3.2917,-3.334,-3.3473,-3.3304,-3.2181,-2.9682,-2.5458,0.0,0.0,0.0,0.0,0.0,0.0,0.0,0.0,0.0,0.0,0.0,0.0,0.0,0.0,0.0,0.0,0.0,0.0,0.0,0.0,0.0,0.0,0.0,0.0,0.0,0.0,0.0,0.0,0.0,0.0,0.0,0.0,0.0,0.0,0.0,0.0,0.0,0.0,0.0,0.0,0.0,0.0,0.0,0.0,0.0,0.0,0.0,0.0,0.0,0.0,0.0,0.0,0.0,0.0,0.0,0.0,0.0,0.0,0.0,0.0,0.0,0.0,0.0,0.0,0.0,0.0,0.0,0.0,0.0,0.0,0.0,0.0,0.0,0.0,0.0,0.0,0.0,0.0,0.0,0.0,0.0,0.0,0.0,0.0,0.0,0.0,0.0,0.0,0.0,0.0,0.0,0.0,0.0,0.0,0.0,0.0,0.0,0.0,0.0,0.0,0.0,0.0,-2.4251,-2.8379,-3.1759,-3.3569,-3.3799,-3.3823,-3.3823,-3.2845,-3.0672,-2.7015,0.0,0.0,0.0,0.0,0.0,0.0,0.0,0.0,0.0,0.0,0.0,0.0,0.0,0.0,0.0,0.0,0.0,0.0,0.0,0.0,0.0,0.0,0.0,0.0,0.0,0.0,0.0,0.0,0.0,0.0,0.0,0.0,0.0,0.0,0.0,0.0,0.0,0.0,0.0,0.0,0.0,0.0,0.0,0.0,0.0,0.0,0.0,0.0,0.0,0.0,0.0,0.0,0.0,0.0,0.0,0.0,0.0,0.0,0.0,0.0,-1.5381,0.0,0.0,0.0,0.0,0.0,0.0,0.0,0.0,0.0,0.0,0.0,0.0,0.0,0.0,0.0,0.0,0.0,0.0,0.0,0.0,0.0,0.0,0.0,0.0,0.0,0.0,0.0,0.0,0.0,0.0,0.0,0.0,0.0,0.0,0.0,0.0,0.0,0.0,0.0,0.0,0.0,-2.4033,-2.8596,-3.2109,-3.334,-3.3859,-3.4088,-3.4088,-3.3111,-3.1179,-2.8065,0.0,0.0,0.0,0.0,0.0,0.0,0.0,0.0,0.0,0.0,0.0,0.0,0.0,0.0,0.0,0.0,0.0,0.0,0.0,0.0,0.0,0.0,0.0,0.0,0.0,0.0,0.0,0.0,0.0,0.0,0.0,0.0,0.0,0.0,0.0,0.0,0.0,0.0,0.0,0.0,0.0,0.0,0.0,0.0,0.0,0.0,0.0,0.0,0.0,0.0,0.0,0.0,0.0,0.0,0.0,0.0,0.0,0.0,0.0,0.0,0.0,-1.5985,0.0,0.0,0.0,0.0,0.0,0.0,0.0,0.0,0.0,0.0,0.0,0.0,0.0,0.0,0.0,0.0,0.0,0.0,0.0,0.0,0.0,0.0,0.0,0.0,0.0,0.0,0.0,0.0,0.0,0.0,0.0,0.0,0.0,0.0,0.0,0.0,0.0,0.0,0.0,0.0,-2.4311,-2.8825,-3.2314,-3.363,-3.4125,-3.4414,-3.4547,-3.3702,-3.2133,-2.9695,-2.6677,0.0,0.0,0.0,0.0,0.0,0.0,0.0,0.0,0.0,0.0,0.0,0.0,0.0,0.0,0.0,0.0,0.0,0.0,0.0,0.0,0.0,0.0,0.0,0.0,0.0,0.0,0.0,0.0,0.0,0.0,0.0,0.0,0.0,0.0,0.0,0.0,0.0,0.0,0.0,0.0,0.0,0.0,0.0,0.0,0.0,0.0,0.0,0.0,0.0,0.0,0.0,0.0,0.0,0.0,-1.6318,-1.7656,-1.6718,-1.6554,-1.715,-1.6872,-1.649,-1.6386,0.0,0.0,0.0,0.0,0.0,0.0,0.0,0.0,0.0,0.0,0.0,0.0,0.0,0.0,0.0,0.0,0.0,0.0,0.0,0.0,0.0,0.0,0.0,0.0,0.0,-2.483,-2.4999,0.0,0.0,0.0,0.0,0.0,0.0,0.0,0.0,0.0,0.0,0.0,0.0,-2.5035,-2.9224,-3.2519,-3.4016,-3.445,-3.474,-3.4933,-3.4318,-3.3171,-3.1384,-2.8536,-2.582,0.0,0.0,0.0,0.0,0.0,0.0,0.0,0.0,0.0,0.0,0.0,0.0,0.0,0.0,0.0,0.0,0.0,0.0,0.0,0.0,0.0,0.0,0.0,0.0,0.0,0.0,0.0,0.0,0.0,0.0,0.0,0.0,-1.1956,-1.2395,0.0,0.0,0.0,0.0,0.0,0.0,0.0,0.0,0.0,0.0,0.0,0.0,0.0,0.0,-1.5813,-1.5917,-1.6515,-1.7909,-1.7675,-1.7801,-1.7982,-1.785,-1.7703,-1.7909,-1.8072,0.0,-1.6842,-1.6774,0.0,0.0,0.0,0.0,0.0,0.0,0.0,0.0,0.0,0.0,0.0,0.0,0.0,0.0,0.0,0.0,0.0,0.0,0.0,0.0,0.0,0.0,-2.792,-2.7558,-2.7848,-2.792,0.0,-2.3599,-2.046,-1.9145,0.0,0.0,0.0,0.0,0.0,0.0,0.0,0.0,-2.6363,-3.0117,-3.2917,-3.4052,-3.4607,-3.4933,-3.497,-3.4668,-3.3859,-3.2471,-3.0684,-2.85,-2.5856,-2.3418,0.0,0.0,0.0,0.0,0.0,0.0,0.0,0.0,0.0,0.0,0.0,0.0,0.0,0.0,0.0,0.0,0.0,0.0,0.0,0.0,0.0,0.0,0.0,0.0,0.0,0.0,0.0,0.0,0.0,-1.1185,-1.1918,-1.1796,-1.1789,-1.1382,0.0,0.0,0.0,0.0,0.0,0.0,0.0,0.0,0.0,-1.4733,-1.4862,-1.5574,-1.7191,-1.7147,-1.758,-1.8551,-1.8376,-1.8498,-1.8708,-1.8742,-1.8776,-1.885,-1.8918,-1.852,-1.7981,-1.7635,-1.7365,-1.7173,0.0,0.0,0.0,0.0,0.0,-2.2573,-2.4238,0.0,0.0,0.0,0.0,0.0,0.0,0.0,0.0,0.0,0.0,0.0,0.0,0.0,0.0,-2.9332,-2.9767,-2.9815,-2.9272,-2.7365,-2.4987,0.0,-2.1209,-1.976,-1.708,0.0,0.0,0.0,0.0,0.0,-2.7353,-3.0564,-3.3014,-3.4052,-3.4511,-3.4801,-3.497,-3.4571,-3.3919,-3.2881,-3.159,-3.0081,-2.8306,-2.5928,-2.3575,0.0,0.0,0.0,0.0,0.0,0.0,0.0,0.0,0.0,0.0,0.0,0.0,0.0,0.0,0.0,0.0,0.0,0.0,0.0,0.0,0.0,0.0,0.0,0.0,0.0,0.0,0.0,0.0,-1.1965,-1.2549,-1.2026,-1.2664,-1.2481,0.0,0.0,0.0,0.0,0.0,0.0,-1.3763,-1.4163,-1.5038,-1.649,-1.6686,-1.727,-1.8321,-1.8389,-1.862,-1.8993,-1.8959,-1.9094,-1.9379,-1.9481,-1.9535,-1.9556,-1.959,-1.9413,-1.8972,-1.8474,-1.7866,-1.7496,-1.9111,-1.957,0.0,-2.2067,-2.3146,-2.3787,-2.6411,-2.7226,-2.7181,-2.663,0.0,-2.4202,-2.2355,0.0,0.0,0.0,0.0,-2.4045,-2.6496,0.0,-2.8741,-3.0322,-3.0902,-3.0974,-3.0515,-2.9888,-2.8524,0.0,-2.442,-2.2971,-1.9845,0.0,0.0,0.0,0.0,-2.6242,-2.8439,-3.0986,-3.2954,-3.3895,-3.4281,-3.4547,-3.474,-3.4475,-3.3919,-3.3147,-3.2278,-3.1312,-3.025,-2.8294,-2.6363,-2.4492,0.0,0.0,0.0,0.0,0.0,0.0,0.0,0.0,0.0,0.0,0.0,0.0,0.0,0.0,0.0,0.0,0.0,0.0,0.0,0.0,0.0,0.0,0.0,0.0,0.0,0.0,0.0,0.0,0.0,-1.36,-1.4672,0.0,0.0,0.0,0.0,-1.3037,-1.3627,-1.4428,-1.5459,-1.6062,-1.6998,-1.8355,-1.8552,-1.8938,-1.9576,-1.9434,-1.9447,-1.961,-1.9468,-1.9556,-1.9841,-1.9854,-1.9854,-1.9854,-1.9997,-1.982,-1.9339,-1.8396,-1.8238,-1.8396,-1.8068,-1.8198,-1.8956,-2.0268,-2.0946,-2.1863,-2.5581,-2.6745,-2.6895,-2.859,-2.7473,-2.5446,-2.5808,-2.4685,0.0,0.0,-2.6182,-2.722,-2.9127,-3.0214,-3.0841,-3.095,-3.1179,-3.1288,-3.1022,-3.0141,-2.9127,0.0,-2.716,-2.5989,-2.4516,0.0,-2.3876,-2.4613,-2.5771,-2.7425,-2.9803,-3.1566,-3.2785,-3.334,-3.3895,-3.4221,-3.4221,-3.4414,-3.4221,-3.34,-3.3074,-3.2423,-3.1348,-3.0479,-2.8777,-2.6146,-2.2797,0.0,0.0,0.0,0.0,0.0,0.0,0.0,0.0,0.0,0.0,0.0,0.0,0.0,0.0,0.0,0.0,0.0,0.0,0.0,0.0,0.0,0.0,0.0,0.0,0.0,0.0,0.0,0.0,-1.4407,-1.5533,0.0,0.0,-1.4401,-1.4665,-1.4618,-1.5615,-1.6517,-1.7182,-1.7684,-1.8355,-1.9237,-1.9217,-1.9434,-1.9942,-1.9698,-1.9657,-1.98,-1.9746,-1.9766,-1.9875,-2.0085,-2.0173,-2.0173,-2.0227,-2.0098,-1.982,-1.9203,-1.8733,-1.8644,-1.9708,-2.0103,-2.0577,-2.2356,-2.3235,-2.3676,-2.5185,-2.5517,-2.5739,-2.7155,-2.666,-2.6084,-2.7628,-2.7679,-2.7437,-2.8174,-2.8717,-2.9308,-3.031,-3.0902,-3.1288,-3.1481,-3.159,-3.1578,-3.1312,-3.095,-3.0552,-3.0093,-2.8729,-2.722,-2.588,-2.6206,-2.652,-2.6134,-2.7558,-2.9296,-3.1022,-3.2036,-3.2857,-3.3569,-3.3823,-3.3992,-3.4185,-3.3956,-3.3606,-3.3147,-3.2724,-3.2229,-3.1686,-3.1215,-3.0117,-2.8306,-2.63,-2.3121,0.0,0.0,0.0,0.0,0.0,0.0,0.0,0.0,0.0,0.0,0.0,0.0,0.0,0.0,0.0,0.0,0.0,0.0,0.0,0.0,0.0,0.0,0.0,0.0,0.0,0.0,-1.5452,-1.495,-1.6347,-1.6781,-1.533,-1.5961,-1.6442,-1.6395,-1.7311,-1.8036,-1.8443,-1.885,-1.9271,-1.9712,-1.9732,-1.9875,-2.0173,-1.9976,-1.9908,-1.9942,-1.9942,-1.9942,-1.9963,-2.0207,-2.0329,-2.0329,-2.0329,-2.0187,-1.9922,-1.9569,-1.9128,-1.8891,-1.9921,-2.0408,-2.0516,-2.185,-2.2591,-2.2907,-2.3576,-2.4466,-2.5213,-2.5791,-2.5746,-2.5707,-2.6955,-2.8076,-2.9005,-2.9168,-3.0042,-3.0986,-3.1421,-3.1662,-3.1843,-3.2024,-3.2,-3.1891,-3.1698,-3.159,-3.1445,-3.1179,-3.0057,-2.8837,-2.7872,-2.8427,-2.8656,-2.7594,-2.9019,-3.0455,-3.1179,-3.2048,-3.2821,-3.3461,-3.3593,-3.369,-3.3762,-3.3207,-3.2821,-3.2724,-3.1964,-3.1493,-3.1409,-3.0696,-2.9615,-2.7968,-2.5834,-2.2164,-1.6822,0.0,0.0,0.0,0.0,0.0,0.0,0.0,0.0,0.0,0.0,0.0,0.0,0.0,0.0,0.0,0.0,0.0,0.0,0.0,0.0,0.0,0.0,0.0,-1.3492,-1.4997,-1.592,-1.535,-1.7222,-1.8036,-1.6734,-1.7528,-1.8179,-1.8335,-1.862,-1.8918,-1.9203,-1.9501,-1.9732,-1.9888,-2.0173,-2.0329,-2.0329,-2.0329,-2.0241,-2.0098,-2.0098,-2.0098,-2.0098,-2.0261,-2.0329,-2.0329,-2.0315,-2.0064,-1.9644,-1.9481,-1.9257,-1.8959,-1.8654,-1.8531,-1.8531,-1.8531,-1.8531,-1.8768,-2.1025,-2.3509,-2.5442,-2.4823,-2.4777,-2.4823,-2.4205,-2.6032,-2.8113,-2.8328,-3.0026,-3.2049,-3.2289,-3.2579,-3.2579,-3.2592,-3.2398,-3.2205,-3.2205,-3.2012,-3.1747,-3.1481,-3.1215,-3.095,-3.0672,-3.0624,-3.0274,-2.9236,-3.0189,0.0,-3.0358,-3.1638,-3.2688,-3.2917,-3.3171,-3.3207,-3.2978,-3.2217,-3.1891,-3.2169,-3.095,-3.0322,-3.0588,-2.8884,-2.7051,-2.5032,-2.0855,-1.7249,-1.3998,0.0,0.0,0.0,0.0,0.0,0.0,0.0,0.0,0.0,0.0,0.0,0.0,0.0,0.0,0.0,0.0,0.0,0.0,0.0,0.0,0.0,0.0,-1.4502,-1.4536,-1.6083,-1.7317,-1.7582,-1.8443,-1.8864,-1.8498,-1.8728,-1.8864,-1.8816,-1.9183,-1.9447,-1.9535,-1.982,-2.0051,-2.0207,-2.0173,-2.0261,-2.0485,-2.0275,-2.0139,-2.0098,-2.0098,-2.0051,-1.9942,-2.0098,-2.0173,-2.0153,-2.0051,-1.9875,-1.9644,-1.9379,-1.9149,-1.8972,-1.8782,-1.8694,-1.8694,-1.8694,-1.8694,-1.8926,-1.9388,-1.9993,-2.0766,-2.2219,-2.3878,-2.5567,-2.7132,-2.8049,-2.8593,-2.8813,-2.7987,-2.7587,-2.9437,-2.9921,-3.0339,-3.2142,-3.1206,-3.0249,-3.2046,-3.1079,-3.0137,-3.1832,-3.2048,-3.1662,-3.0998,-3.089,-3.0853,-3.0757,0.0,0.0,-3.1879,-3.2326,-3.2471,-3.2169,-3.2193,-3.2205,-3.2133,-3.1397,-3.1215,0.0,-2.9573,-2.879,-3.0322,-2.6857,-2.4533,-2.3491,-1.967,-1.738,0.0,0.0,0.0,0.0,0.0,0.0,0.0,0.0,0.0,0.0,0.0,0.0,0.0,0.0,0.0,0.0,0.0,0.0,0.0,0.0,0.0,0.0,-1.4808,-1.5906,-1.632,-1.727,-1.8179,-1.883,-1.9203,-1.9447,-1.9569,-1.9569,-1.9535,-1.9468,-1.9698,-1.9841,-1.9841,-2.0064,-2.0241,-2.0329,-2.0295,-2.0363,-2.0539,-2.0315,-2.0173,-2.0098,-2.0098,-2.001,-1.9875,-1.9963,-2.0051,0.0,-1.98,-1.9644,-1.9535,-1.9237,-1.9027,0.0,0.0,0.0,0.0,0.0,-1.8762,-1.8762,-1.8762,-1.8708,-1.8843,-2.0149,-2.1457,-2.2988,-2.4182,-2.5339,-2.6134,-2.6058,-2.6534,-2.7275,-2.7723,-2.8404,-2.9308,-2.9765,-2.8787,-2.8258,-3.0729,-2.9303,-2.8123,-3.0582,0.0,0.0,-3.0078,-3.0846,-3.136,-3.0962,-3.1469,-3.1904,0.0,-3.241,-3.2688,-3.2483,-3.2459,-3.2423,-3.2314,-3.136,0.0,0.0,0.0,-2.7684,-2.7352,-2.3471,0.0,0.0,0.0,0.0,0.0,0.0,0.0,0.0,-1.83,-1.9049,0.0,0.0,0.0,0.0,0.0,0.0,0.0,0.0,0.0,0.0,0.0,0.0,0.0,0.0,0.0,0.0,-1.6038,-1.7344,-1.8335,-1.8457,-1.8708,-1.9379,-1.961,-1.982,-2.0085,-2.0098,-2.0098,-2.0098,-2.0119,-2.0119,-2.0119,0.0,0.0,0.0,0.0,-2.0539,-2.0526,-2.0397,-2.0241,-2.0085,-2.0064,-1.9976,-1.9854,-1.9834,-1.9908,-2.0031,-1.959,-1.9413,-1.9379,-1.9081,-1.8884,-1.8762,-1.8762,-1.8762,-1.8762,-1.8762,-1.8762,0.0,0.0,0.0,0.0,-1.8599,-1.8877,-1.9171,-1.8893,-2.0355,-2.2383,-2.2237,-2.5259,-2.8131,-2.6082,-2.7222,-2.8358,-2.6538,-2.5713,-2.6015,-2.8498,-2.6778,-2.5738,-2.8196,-2.8828,-2.8764,-2.8561,-3.0688,-3.1795,-3.0576,-3.1626,0.0,-3.13,-3.2229,-3.305,-3.3171,0.0,0.0,-3.2881,-3.171,-3.1022,-3.1083,-2.9646,-2.7094,-2.3321,-2.0168,-1.8144,-1.7196,-1.6216,-1.5866,-1.6388,-1.668,-1.8534,-2.1995,-1.8005,-1.8664,0.0,0.0,0.0,0.0,0.0,0.0,0.0,0.0,0.0,0.0,0.0,0.0,0.0,0.0,0.0,-1.4641,-1.6131,-1.7517,-1.8609,-1.8833,-1.92,-1.9361,-1.9854,-2.0031,-2.0105,-2.0105,-2.0098,-2.0098,-2.0227,-2.0275,-2.0275,-2.0417,0.0,-2.0505,-2.0526,-2.0485,-2.0363,-2.0349,-2.0187,-1.9908,0.0,0.0,-1.9698,-1.9569,-1.961,-1.9732,-1.9393,-1.9257,-1.9217,-1.8918,-1.8796,-1.8762,-1.8762,-1.8762,-1.8762,-1.8762,-1.8762,-1.8762,-1.8762,-1.8762,-1.8762,-1.8728,-2.0102,-2.1725,-2.1662,-2.1907,0.0,-2.2383,-2.1725,-2.1287,-2.2645,-2.3556,-2.4261,-2.5625,-2.4437,-2.3734,-2.6244,-2.484,-2.369,-2.6196,-2.8081,-2.9276,-2.9243,-3.0929,-3.2036,-3.1566,-3.194,-3.2278,-3.2278,-3.2688,-3.2748,-3.2169,-3.2109,-3.2097,-3.2036,-3.1397,-3.1179,-3.1626,-3.0552,-2.7248,-2.1012,-2.1949,-2.0755,-1.6807,-1.69,-1.6849,-1.6849,-1.7148,-1.7746,-1.8638,-2.0742,-2.4023,0.0,0.0,0.0,0.0,0.0,0.0,0.0,0.0,0.0,0.0,0.0,-1.1585,-1.2173,0.0,-1.4091,-1.5603,-1.6982,-1.8059,-1.8953,-1.9297,-1.9736,-1.9742,-1.9863,-2.0241,-2.0315,-2.0329,-2.0329,-2.0329,-2.0397,-2.0438,-2.0438,-2.0505,-2.0539,-2.0539,-2.0539,-2.0471,-2.0329,-2.0261,-2.0098,-1.9875,-1.9644,-1.959,-1.9644,-1.9345,-1.9379,-1.9644,-1.9183,-1.9061,-1.9183,-1.8884,-1.8762,-1.8762,-1.8762,-1.8762,-1.8762,-1.8762,-1.8762,-1.8762,-1.8762,-1.8762,-1.8762,-1.8762,-1.9683,-2.0601,-2.0601,-2.0601,-2.0601,-2.0601,-2.0601,-2.0586,-2.0601,-2.1502,-2.2424,-2.2424,-2.1502,-2.1287,-2.3803,-2.2424,-2.1287,-2.3803,-2.5086,-2.5874,-2.577,-2.7388,-2.9602,-3.1796,-3.2531,-3.2785,-3.2785,-3.3014,-3.3014,-3.2628,-3.2592,-3.2592,-3.2592,-3.1988,-3.1225,-3.0048,-2.828,-2.5102,-2.0627,-2.0507,-1.9507,-1.7202,-1.7412,-1.7534,-1.7541,-1.7826,-1.8635,-1.9729,-2.1649,-2.4353,0.0,0.0,0.0,0.0,0.0,0.0,0.0,0.0,-0.966,-1.1016,-1.1704,-1.2223,-1.2708,-1.3464,-1.4713,-1.6658,-1.7775,-1.8781,-1.9441,-1.983,-2.0077,-2.0077,-2.0091,-2.0165,-2.0526,-2.0539,-2.0539,-2.0539,-2.0539,-2.0539,-2.0539,-2.0526,-2.0505,-2.0539,-2.0485,-2.0404,-2.0295,-2.0139,-1.9976,-1.982,-1.9556,-1.9522,-1.9644,-1.9257,-1.9291,-1.9624,-1.9115,-1.9006,-1.9183,-1.8938,-1.885,-1.885,-1.885,-1.885,-1.883,-1.8782,-1.8762,-1.8762,-1.8762,-1.8762,-1.8762,-1.8762,-1.8762,-1.8762,-1.8762,-1.8762,-1.8762,-1.8762,-2.0124,-2.1287,-1.9226,-2.0131,-2.1279,-1.9226,-1.8762,-1.9226,-2.1287,-2.0146,-1.9458,-2.1287,-2.1971,-2.2383,-2.2,-2.4242,-2.7081,-3.0616,-3.2091,-3.2538,-3.2336,-3.2984,-3.3376,-3.3376,-3.3376,-3.3376,-3.3376,-3.2748,-3.1157,-2.8533,-2.6387,-2.3805,-2.1027,-1.9095,-1.8086,-1.7772,-1.7914,-1.8057,-1.8179,-1.8477,-1.9462,-2.1371,-2.178,-2.338,-1.0189,-1.0249,-1.0444,-1.0549,-1.0462,-1.0848,0.0,0.0,-1.1971,-1.4216,-1.4972,-1.5157,-1.5615,-1.5368,-1.5518,-1.6713,-1.8451,-1.9698,-2.0271,-2.0464,-2.0336,-2.0336,-2.0438,-2.0526,-2.0539,-2.0539,-2.0539,-2.0539,-2.0539,-2.0539,-2.0539,-2.0424,-2.0424,-2.0539,-2.0295,-2.0139,-2.0119,-1.9976,-1.982,-1.9678,-1.9522,-1.9522,-1.9664,-1.9468,-1.9481,-1.9644,-1.9447,-1.9291,-1.9203,-1.9169,-1.9149,-1.9149,-1.9149,-1.9149,-1.9115,-1.885,-1.8762,-1.8762,-1.8762,-1.8762,-1.8762,-1.8762,-1.8762,-1.8762,-1.8762,-1.8762,-1.8762,-1.8762,-1.9001,-1.9219,-1.8762,-1.898,-1.9219,-1.8762,-1.8762,-1.8762,-1.9219,-1.9001,-1.8762,-1.9219,-2.0825,-2.2424,-2.2399,-2.4455,-2.6139,-2.6184,-2.8108,-2.9841,-2.9808,-3.1832,-3.3376,-3.3376,-3.3376,-3.3376,-3.3376,-3.3074,-3.1764,-2.9254,-2.8775,-2.6433,-2.1766,-2.155,-2.0222,-1.8253,-1.8389,-1.8464,-1.8477,-1.8796,-1.9159,-1.9386,-2.1634,-2.4872,-1.2161,-1.1478,-1.0878,0.0,-1.2951,-1.3223,-1.3097,-1.2063,-1.1794,-1.4107,-1.5912,-1.6996,-1.7669,-1.7577,-1.7652,0.0,-1.92,-1.9854,-2.0326,-2.0498,-2.0553,-2.0464,-2.0241,-2.0057,-2.0417,-2.0424,-2.0458,-2.0539,-2.0539,-2.0539,-2.0539,-2.0404,-2.0404,-2.0278,-2.0261,-2.0354,-2.0105,-1.9949,-1.9807,-1.9664,-1.9508,-1.9522,-1.9664,-1.9413,-1.9325,-1.94,-1.9413,-1.9345,-1.9203,-1.9203,-1.9203,-1.9203,-1.9203,-1.9203,-1.9183,-1.9061,-1.8972,-1.8905,-1.8905,-1.883,-1.8762,-1.8762,-1.8762,-1.8762,-1.8762,-1.8762,-1.8762,-1.8762,-1.8762,-1.8762,-1.8762,-1.8762,-1.8762,-1.8762,-1.8762,-1.8762,-1.8762,-1.8762,-1.8762,-1.8762,-1.9683,-2.0363,-2.0363,-2.1048,-2.1685,-2.1544,-2.612,-2.9588,-2.9588,-3.1712,-3.2904,-3.1319,-3.133,-3.0631,-2.9275,-2.8954,-2.7998,-2.5495,-2.5185,-2.3561,-2.0156,-1.9942,-1.9483,-1.8565,-1.864,-1.8674,-1.8674,-1.8884,-1.8993,-1.8993,-2.0311,-2.2424,-1.2815,-1.2295,0.0,-1.2722,-1.405,-1.4898,-1.4423,-1.3453,-1.3162,-1.491,-1.67,-1.8019,-1.8691,-1.8733,-1.8972,-1.9706,-1.9644,-1.999,-2.0395,-2.0484,-2.045,-2.0251,-1.9902,-1.9655,-2.032,-2.0443,-2.0587,-2.0471,-2.0492,-2.0492,-2.0492,-2.039,-2.0363,-1.9899,-2.0214,-2.034,-2.0031,-1.9929,-1.9807,-1.9664,-1.9798,-1.9798,-1.9664,-1.9434,-1.9345,-1.94,-1.9468,-1.9447,-1.9379,-1.9345,-1.9325,-1.9325,-1.9325,-1.9325,-1.9325,-1.9325,-1.9203,-1.9047,-1.9047,-1.8959,-1.883,-1.883,-1.8796,-1.8762,-1.8762,-1.8762,-1.8762,-1.8762,-1.8762,-1.8762,-1.8762,-1.8796,-1.883,-1.883,-1.885,-1.8871,-1.883,-1.883,-1.8816,-1.8762,-1.8762,-1.8762,-1.8762,-1.8762,-1.8762,-1.8762,-2.3785,-2.7677,-2.7677,-2.9943,-3.0631,-2.8822,-2.8812,-2.7904,-2.632,-2.6082,-2.4949,-2.2662,-2.2424,-2.1287,-1.8994,-1.8762,-1.8762,-1.8762,-1.8762,-1.8762,-1.8762,-1.8918,-1.9006,-1.9061,-1.9203,-2.0765,-1.1524,0.0,-1.2809,-1.0562,-1.2097,-1.4886,-1.7243,-1.7799,-1.7619,-1.7773,-1.7821,-1.8026,-1.8747,-1.8884,-1.8992,-1.964,-1.98,-1.9897,-2.0302,-2.0464,-2.0251,-1.9719,-1.9166,-1.9046,0.0,-2.0114,-2.0429,-2.0587,-2.0587,-2.0587,-2.0587,-2.0587,-2.0261,-1.9607,-2.0105,-2.0285,-1.9622,-1.9622,-1.98,-1.9664,-1.9664,-1.9664,-1.9664,-1.9644,-1.9719,-2.0086,-1.9712,-1.9732,-1.9841,-1.9698,-1.9644,-1.9644,-1.9644,-1.9644,-1.9644,-1.9644,-1.9447,-1.9203,-1.9203,-1.9094,-1.8993,-1.8993,-1.8884,-1.8762,-1.8762,-1.8762,-1.8762,-1.8762,-1.8762,-1.8762,-1.8762,-1.8871,-1.8993,-1.8993,-1.9094,-1.9149,-1.9006,-1.8993,-1.8938,-1.8796,-1.8762,-1.8762,-1.8762,-1.8762,-1.8762,-1.8762,-2.1064,-2.2645,-2.2645,-2.4702,-2.632,-2.632,-2.632,-2.6082,-2.6082,-2.6082,-2.4949,-2.2662,-2.2424,-2.1287,-1.8994,-1.8762,-1.8762,-1.8762,-1.8762,-1.8762,-1.8762,-1.8918,-1.9061,-1.9203,-1.9359,-2.094,-1.0959,-1.3207,-1.5725,-1.519,-1.627,-1.7424,-1.8233,-1.8534,-1.8534,-1.8486,-1.8462,-1.8658,-1.8798,-1.8698,-1.9057,-1.9691,-2.0063,-2.0251,-2.0416,-2.0484,-2.0071,-1.932,-1.851,0.0,0.0,0.0,0.0,-2.0037,-2.0329,-2.0622,-2.0471,-2.0124,-2.0051,-2.0261,-2.0153,-2.0085,-2.0285,-1.9922,-1.9602,-1.98,-1.9712,-1.9664,-1.9664,-1.9664,-1.9732,-2.012,-1.9962,-1.9997,-1.9854,-1.9712,-1.9712,-1.98,-1.98,-1.98,-1.98,-1.98,-1.9678,-1.9488,-1.9393,-1.9257,-1.9115,-1.9027,-1.8959,-1.8905,-1.8796,-1.883,-1.8918,-1.8918,-1.8918,-1.8938,-1.9027,-1.9027,-1.9006,-1.9115,-1.9169,-1.9169,-1.9027,-1.8993,-1.8938,-1.8796,-1.8762,-1.8762,-1.8762,-1.8762,-1.8762,-1.8762,-2.0825,-2.2892,-2.472,-2.5616,-2.5406,-2.3803,-2.3564,-2.2892,-2.1287,-2.1287,-2.0825,-2.0139,-1.9907,-1.9683,-1.8762,-1.8762,-1.8762,-1.8762,-1.8762,-1.885,-1.9061,-1.9006,-1.9169,-1.9501,-1.9447,-2.0088,-1.2883,-1.5327,-1.7895,-1.8336,-1.8844,-1.9094,-1.9111,-1.9042,-1.9115,-1.8913,-1.8736,-1.8159,-1.7291,-1.7222,-1.7676,-1.9243,-1.9756,-2.0366,-2.0556,-2.0556,-2.0185,-1.9468,-1.8633,-1.7982,0.0,0.0,0.0,-1.9789,-2.0187,-2.0553,-2.039,-2.0144,-2.0104,-2.0519,-2.0004,-1.995,-2.0609,-2.0251,-1.9922,-1.9622,-1.978,-1.9732,-1.9732,-1.9732,-1.982,-1.9942,-2.0107,-2.012,-1.9942,-1.9854,-1.9841,-1.9875,-1.9929,-1.9922,-1.9875,-1.9875,-1.9786,-1.9644,-1.9556,-1.9413,-1.9271,-1.9183,-1.9115,-1.9047,-1.8959,-1.8993,-1.9061,-1.9061,-1.9061,-1.9081,-1.9183,-1.9169,-1.9169,-1.9257,-1.9325,-1.9325,-1.9183,-1.9149,-1.9094,-1.8959,-1.8884,-1.885,-1.885,-1.885,-1.883,-1.8762,-2.0182,-2.1803,-2.3343,-2.3556,-2.2884,-2.1287,-2.1109,-2.0429,-1.9001,-1.8816,-1.8816,-1.8762,-1.8762,-1.8762,-1.8762,-1.8762,-1.8816,-1.8918,-1.8918,-1.904,-1.9291,-1.9183,-1.9291,-1.9576,-1.9535,-1.9698,-1.6868,-1.8328,-1.8962,-1.9448,-1.9648,-1.9803,-1.9692,-1.9588,-1.9606,-1.9004,-1.8197,-1.7195,0.0,0.0,-1.5084,-1.8164,-1.9184,-1.9641,-2.0331,-2.0339,-2.0467,0.0,0.0,0.0,0.0,0.0,0.0,-1.9644,0.0,-2.0361,-2.0609,-2.039,-2.0424,-2.0381,-2.0118,-1.9885,-2.0381,-2.0381,-2.0285,-1.9642,-1.9642,-1.9642,-1.9635,-1.9635,-1.9709,-1.9856,-2.0098,-2.0105,-2.0119,-2.0098,-2.001,-1.9908,-2.0051,-2.0031,-1.9888,-1.9888,-1.98,-1.9678,-1.9678,-1.9569,-1.9447,-1.9434,-1.9325,-1.9217,-1.9203,-1.9203,-1.9217,-1.9217,-1.9217,-1.9217,-1.9217,-1.9325,-1.9434,-1.9447,-1.9556,-1.9624,-1.9468,-1.9434,-1.9379,-1.9237,-1.9094,-1.9006,-1.9006,-1.9006,-1.8959,-1.8816,-1.8905,-1.8938,-1.8796,-1.8762,-1.8762,-1.8782,-1.8905,-1.8918,-1.8782,-1.8905,-1.8918,-1.8782,-1.8762,-1.8762,-1.8762,-1.8782,-1.8918,-1.9203,-1.9217,-1.9305,-1.9468,-1.9447,-1.9468,-1.9481,-1.9624,-1.9766,-1.8113,-1.9079,-1.9606,-1.9695,-1.963,-1.9664,-1.9698,-1.9727,-1.9519,-1.8834,-1.8034,-1.6378,0.0,0.0,0.0,-1.5864,-1.6576,0.0,-1.7819,-1.9502,0.0,-1.9283,0.0,-1.8888,-1.9345,-1.9571,0.0,0.0,-1.9635,-1.9983,-2.0361,-2.039,-2.0458,-2.0532,-2.0451,-2.0451,-2.0532,-2.0024,-1.9937,-2.0306,-2.0306,-2.0051,-1.9789,-1.9789,-1.9863,-2.0261,-2.0409,-2.0429,-2.0261,-1.9897,-1.9897,-1.997,-2.0254,-2.0241,-2.0214,-2.0207,-2.0119,-1.9976,-1.9854,-1.9732,-1.959,-1.9468,-1.9393,-1.9345,-1.9237,-1.9291,-1.9379,-1.9379,-1.9379,-1.9393,-1.9522,-1.9481,-1.9468,-1.9576,-1.9624,-1.9624,-1.9468,-1.9434,-1.9379,-1.9237,-1.9169,-1.9149,-1.9149,-1.9149,-1.9128,-1.9094,-1.9128,-1.9094,-1.8959,-1.883,-1.8796,-1.8918,-1.8871,-1.8796,-1.8762,-1.8796,-1.8796,-1.8762,-1.8871,-1.8884,-1.8762,-1.9081,-1.9237,-1.9203,-1.9434,-1.9678,-1.9922,-1.982,-1.9875,-2.0098,-2.0031,-2.0119,-1.9115,-1.9627,-2.0109,-2.0155,-1.9929,-1.9962,-1.9859,-1.9749,-1.9346,-1.8195,-1.6255,-1.4014,-1.2087,-1.151,-1.2414,0.0,0.0,0.0,-1.851,-1.9555,-2.0217,0.0,-1.9488,0.0,-2.0144,-2.0123,-1.9698,0.0,-1.911,-1.9702,-2.045,-2.0424,-2.0505,-2.0424,-2.0505,-2.0471,-2.0587,-2.0144,-2.0091,-2.0464,-2.0464,-2.0464,-1.995,-1.995,-2.0275,-2.0424,0.0,-2.0438,-2.0526,-2.0178,-2.0138,-2.0165,-2.0417,-2.0383,-2.0587,-2.0336,-2.0227,-2.0085,-1.9997,-1.9875,-1.9732,-1.9576,-1.9535,-1.9522,-1.9434,-1.9468,-1.9535,-1.9535,-1.9535,-1.9556,-1.9644,-1.959,-1.9556,-1.9644,-1.9664,-1.9644,-1.9556,-1.9535,-1.9481,-1.9325,-1.9305,-1.9271,-1.9217,-1.9257,-1.9271,-1.9217,-1.9257,-1.9257,-1.9094,-1.8959,-1.8905,-1.8972,-1.8972,-1.8938,-1.8871,-1.8972,-1.9061,-1.9061,-1.9081,-1.9081,-1.9061,-1.9291,-1.9447,-1.9501,-1.9732,-1.9963,-2.0207,-2.0119,-2.0119,-2.0227,-2.0275,-2.0383,-1.9567,-2.0123,-2.0577,-2.0609,-2.0265,-1.9998,-1.9825,-1.9132,-1.8181,-1.6598,-1.3607,-1.1172,-1.0751,-1.0221,-1.1419,-1.6302,0.0,-1.9875,-2.043,-2.0483,-2.0551,-2.0609,-2.0561,-2.047,-2.047,-2.0436,-2.0175,-1.9195,-1.8916,-1.9502,-2.0532,-2.0458,-2.0539,-2.0539,-2.0539,-2.0492,-2.0622,-2.0492,-2.0471,-2.0622,-2.0622,-2.0622,-2.0622,-2.0622,-2.0438,-2.0573,0.0,0.0,-2.0546,-2.0513,-2.0695,-2.0573,-2.0539,-2.0471,-2.0622,-2.0622,-2.0282,-2.0159,-2.0139,-2.0051,-1.9908,-1.9752,-1.9678,-1.9664,-1.9664,-1.9678,-1.9698,-1.9698,-1.9698,-1.9712,-1.9712,-1.9712,-1.9712,-1.9698,-1.9698,-1.9678,-1.9664,-1.9664,-1.9624,-1.9481,-1.9468,-1.9413,-1.9291,-1.9379,-1.9413,-1.9291,-1.9393,-1.9447,-1.9305,-1.9128,-1.9027,-1.9027,-1.9128,-1.9169,-1.9061,-1.9291,-1.9434,-1.9468,-1.9359,-1.9345,-1.9447,-1.9522,-1.9657,-1.9888,-2.0085,-2.0261,-2.0383,-2.0383,-2.0315,-2.0187,-2.0451,-2.0573,-1.959,-2.0017,-2.0498,-2.0553,-1.8758,-1.768,-1.9338,-1.6215,0.0,-1.2614,-1.1167,-1.0123,-0.9977,-0.982,-1.1329,-1.6303,-1.8172,-1.9381,-2.0429,-2.054,-2.0484,0.0,-2.0438,-2.0424,-2.0424,0.0,0.0,0.0,0.0,-2.034,-2.0395,-2.0404,-2.0539,-2.0539,-2.0539,-2.0526,-2.0505,-2.0526,-2.0526,-2.0505,-2.0505,-2.0505,-2.0505,-2.0505,-2.0594,-2.0473,0.0,0.0,-2.1219,-2.1353,-2.1013,-2.0453,-2.0594,-2.0526,-2.0505,-2.0505,-2.0492,-2.0451,-2.0336,-2.0282,-2.0207,-1.9922,-1.9752,-1.9664,-1.9664,-1.9752,-1.9841,-1.9841,-1.9929,-2.0031,-2.0031,-2.0031,-1.9997,-1.9875,-1.9841,-1.98,-1.9678,-1.9664,-1.9664,-1.9624,-1.9624,-1.961,-1.959,-1.961,-1.961,-1.959,-1.9698,-1.9786,-1.9766,-1.9413,-1.9169,-1.9169,-1.9183,-1.9237,-1.9345,-1.9393,-1.9481,-1.961,-1.9712,-1.9712,-1.9624,-1.9976,-2.0139,-2.0064,-2.0451,-2.0668,-2.0702,-2.0702,-2.0682,-2.0648,-2.0702,-2.0804,-1.9929,-2.0282,-2.0225,-1.8746,-1.7334,-1.6288,-1.6856,0.0,0.0,-1.0847,-0.9932,-0.948,-0.979,-1.0098,-1.1164,-1.4133,-1.7276,-1.9499,-2.0015,-2.0388,-2.0401,-2.0573,-2.0406,-2.0406,0.0,-2.0607,0.0,0.0,0.0,-2.0424,-2.0587,-2.0471,-2.0539,-2.0539,-2.0539,-2.0539,-2.0539,-2.0607,-2.0406,-2.0406,-2.0473,-2.0526,-2.0526,-2.0526,-2.0593,-2.0467,-2.1267,0.0,-2.148,-2.1343,-2.0967,-2.0607,-2.0453,-2.0607,-2.0539,-2.0539,-2.0539,-2.0526,-2.0471,-2.0404,-2.0315,-2.0159,-2.0017,-1.9888,-1.9888,-1.9942,-1.9997,-1.9997,-2.0051,-2.0098,-2.0098,-2.0098,-2.0085,-2.001,-1.9929,-1.9875,-1.9888,-1.982,-1.98,-1.9875,-1.9888,-1.9888,-1.9888,-1.9888,-1.9888,-1.9888,-1.9942,-1.9963,-1.9888,-1.9746,-1.9644,-1.9556,-1.9556,-1.9576,-1.9657,-1.9732,-1.9834,-1.9997,-1.9997,-1.9997,-2.001,-2.0295,-2.0397,-2.0329,-2.0702,-2.0892,-2.0892,-2.0892,-2.0892,-2.0892,-2.0967,-2.1089,-2.0374,-2.0492,-2.0137,-1.733,-1.6358,-1.5588,-1.4518,-1.276,-1.1154,-1.0073,-0.9293,-0.9007,-0.9526,-1.0149,-1.0906,0.0,-1.544,-1.8151,-1.8459,-1.9749,-2.0613,-2.0573,-2.0526,0.0,-2.056,-2.066,0.0,0.0,0.0,0.0,-2.056,-2.0539,-2.0539,-2.0539,-2.0539,-2.056,-2.0594,-2.0453,-2.0526,-2.056,-2.068,-2.0734,-2.0734,-2.0734,-2.0801,-2.0673,-2.1211,0.0,0.0,-2.1285,-2.1143,-2.0767,-2.0607,-2.0453,-2.0594,-2.0627,-2.0607,-2.0594,-2.0627,-2.056,-2.0471,-2.0438,-2.0282,-2.0105,-2.0098,-2.0119,-2.0153,-2.0153,-2.0173,-2.0187,-2.0187,-2.0187,-2.0187,-2.0153,-2.0031,-1.9963,-2.0085,-2.001,-1.9963,-2.0085,-2.0098,-2.0098,-2.0098,-2.0098,-2.0098,-2.0098,-2.0139,-2.0098,-1.9976,-2.0098,-2.0153,-2.0064,-1.9976,-1.9942,-2.001,-2.0119,-2.0275,-2.0451,-2.0363,-2.0349,-2.0471,-2.0573,-2.0648,-2.0648,-2.0946,-2.1068,-2.1055,-2.1068,-2.1089,-2.1109,-2.1211,-2.1333,-2.032,-2.0841,-2.0546,-1.7791,-1.6699,-1.6063,-1.4048,-1.2181,-1.0534,-0.9871,-0.9372,-0.8904,-0.9004,-0.9529,0.0,0.0,0.0,-1.3585,-1.4628,-1.8168,-2.0447,-2.0424,0.0,0.0,-2.1253,-2.0734,0.0,0.0,0.0,0.0,-2.056,-2.0539,-2.0539,-2.0539,-2.0539,-2.0607,-2.0486,-2.0506,-2.0838,-2.1253,-2.1267,-2.1267,-2.1267,-2.1267,-2.1343,-2.1218,0.0,0.0,0.0,-2.1285,-2.148,-2.1177,-2.0767,-2.0607,-2.0506,-2.0381,-2.0607,-2.0506,-2.0381,-2.0415,-2.0381,-2.0506,-2.0451,-2.0105,-2.0105,-2.0207,-2.0309,-2.0309,-2.0397,-2.0505,-2.0505,-2.0505,-2.0471,-2.0349,-2.0187,-2.0085,-2.0098,-2.0085,-2.0085,-2.0098,-2.0098,-2.0098,-2.0098,-2.0098,-2.0098,-2.0098,-2.0227,-2.0309,-2.0295,-2.0417,-2.0539,-2.0682,-2.0329,-2.0187,-2.0451,-2.0485,-2.0627,-2.0912,-2.0933,-2.0933,-2.0933,-2.0946,-2.0967,-2.0967,-2.1245,-2.1333,-2.1197,-2.1333,-2.1408,-2.1408,-2.1408,-2.1496,-1.8331,-1.8363,-1.858,-1.7461,-1.6802,-1.5884,-1.4042,-1.1891,-1.0026,-0.9869,-0.9268,-0.887,-0.887,-0.9447,-0.9895,0.0,0.0,0.0,-1.3542,-1.7372,-2.0225,-2.0997,-2.1254,0.0,0.0,0.0,0.0,0.0,0.0,0.0,-2.1089,-2.0817,-2.056,-2.056,-2.056,-2.0573,-2.0381,-2.0734,-2.1075,-2.1391,-2.1501,-2.1272,-2.1272,-2.1272,-2.1306,-2.1353,0.0,0.0,0.0,-2.1374,-2.1306,-2.148,-2.1143,-2.1034,-2.0912,-2.0714,-2.07,-2.0919,-2.0987,-2.1001,-2.0987,-2.1089,-2.0648,-2.0485,-2.0397,-2.0404,-2.0451,-2.0451,-2.0505,-2.0539,-2.0539,-2.0539,-2.0526,-2.0471,-2.0349,-2.0261,-2.0349,-2.0295,-2.0261,-2.0349,-2.0363,-2.0363,-2.0363,-2.0363,-2.0363,-2.0363,-2.0492,-2.0594,-2.0594,-2.0716,-2.0845,-2.0892,-2.0668,-2.0627,-2.0912,-2.0858,-2.0912,-2.1109,-2.1123,-2.1123,-2.1123,-2.1299,-2.1408,-2.1408,-2.1597,-2.1672,-2.1618,-2.1672,-2.1706,-2.1706,-2.1706,-2.1794,-1.6953,-1.6888,-1.7241,-1.727,-1.6912,-1.6041,-1.4,-1.1709,-1.0036,-0.981,-0.9374,-0.8845,-0.8845,-0.9446,-0.9794,0.0,0.0,-1.1958,-1.2671,-1.5378,-1.7976,-1.9559,0.0,-2.1365,0.0,0.0,0.0,0.0,0.0,0.0,0.0,-2.1123,-2.0821,-2.0734,-2.0734,-2.0747,-2.0801,-2.1163,-2.1501,-2.1285,-2.1387,-2.1441,-2.1441,-2.1441,-2.1441,-2.1441,0.0,0.0,0.0,-2.1441,-2.1374,-2.1285,-2.1285,-2.1466,-2.1343,-2.0841,-2.1102,-2.1343,-2.1377,-2.1377,-2.1308,-2.143,-2.1068,-2.0473,-2.0594,-2.0539,-2.0539,-2.0539,-2.0539,-2.0539,-2.0539,-2.0539,-2.0539,-2.0539,-2.0471,-2.0417,-2.0526,-2.0471,-2.0417,-2.0526,-2.0539,-2.056,-2.0594,-2.0614,-2.0627,-2.0661,-2.077,-2.0858,-2.0892,-2.1001,-2.1109,-2.1197,-2.1109,-2.1109,-2.1265,-2.1231,-2.1265,-2.1408,-2.1408,-2.1408,-2.1408,-2.1618,-2.174,-2.174,-2.1882,-2.1937,-2.1882,-2.1937,-2.1971,-2.2025,-2.1971,-2.2038,-1.63,-1.6831,-1.7285,-1.7141,-1.6795,-1.5906,-1.3863,-1.1997,-1.0494,-0.9936,-0.9333,-0.8872,-0.8872,-0.9353,-0.9841,-0.9761,-1.0859,-1.1616,-1.1546,-1.1665,-1.2875,-1.5783,0.0,-2.1406,-2.1309,-2.1456,0.0,0.0,0.0,0.0,0.0,-2.1441,-2.1306,-2.1288,-2.1274,-2.1343,-2.148,-2.148,-2.1285,-2.1441,-2.1441,-2.1441,-2.1441,-2.1441,-2.1441,0.0,0.0,0.0,0.0,-2.1441,-2.1441,-2.1441,-2.1441,-2.1353,-2.1501,-2.1387,-2.134,-2.1501,-2.1387,-2.134,-2.1466,-2.1308,-2.0899,-2.0473,-2.0594,-2.0539,-2.0539,-2.0539,-2.0539,-2.0539,-2.0539,-2.0539,-2.0539,-2.0539,-2.0539,-2.0539,-2.0539,-2.0539,-2.0539,-2.0539,-2.0539,-2.0594,-2.0736,-2.077,-2.0824,-2.0967,-2.1001,-2.1055,-2.1197,-2.1211,-2.1319,-2.1638,-2.1672,-2.1597,-2.1455,-2.1584,-2.1726,-2.1862,-2.1882,-2.1882,-2.1882,-2.1882,-2.1882,-2.1882,-2.2025,-2.2038,-2.1882,-2.2038,-2.2181,-2.2337,-2.2181,-2.2201,-1.5453,-1.635,-1.6658,-1.6646,-1.6538,-1.589,-1.3938,-1.1955,-1.0542,-0.9962,-0.9654,-0.9486,-0.9486,-0.9646,-0.9958,-1.0398,-1.077,-1.1108,-1.1473,-1.2027,-1.267,-1.4117,-1.5504,-1.7809,0.0,0.0,0.0,0.0,0.0,0.0,0.0,-2.1441,-2.1408,-2.1306,-2.1306,-2.1319,-2.1374,-2.1374,-2.1387,-2.1441,-2.1441,-2.1441,-2.1441,-2.1277,0.0,0.0,0.0,0.0,0.0,-2.1441,-2.1441,-2.1441,-2.1441,-2.1408,-2.1374,-2.1421,-2.1408,-2.1374,-2.1421,-2.1408,-2.1333,-2.0922,-2.0781,-2.0627,-2.0486,-2.0627,-2.0539,-2.0539,-2.0539,-2.0539,-2.0539,-2.0539,-2.0539,-2.0539,-2.0539,-2.0539,-2.0539,-2.0539,-2.0573,-2.0682,-2.0702,-2.0756,-2.0892,-2.0933,-2.0946,-2.1001,-2.1177,-2.1319,-2.1367,-2.155,-2.1706,-2.1815,-2.1916,-2.195,-2.1896,-2.1848,-2.1882,-2.2025,-2.2038,-2.2038,-2.2038,-2.2147,-2.2201,-2.2201,-2.2235,-2.2249,-2.2201,-2.2344,-2.25,-2.2642,-2.2588,-2.2588,-1.3397,-1.3936,-1.4036,-1.4735,-1.5054,-1.4716,-1.3396,-1.188,-1.0581,-0.9956,-0.9863,-0.9813,-0.982,-0.9813,-0.9917,-1.0353,-1.1104,-1.1868,0.0,0.0,0.0,-1.4731,0.0,0.0,0.0,0.0,0.0,0.0,0.0,0.0,0.0,-2.1475,-2.1441,-2.1441,-2.1441,-2.1441,-2.1441,-2.1441,-2.1441,-2.1441,-2.1441,-2.1441,-2.1441,-2.1323,0.0,0.0,0.0,0.0,0.0,-2.1441,-2.1441,-2.1441,-2.1441,-2.1441,-2.1441,-2.1441,-2.1441,-2.1441,-2.1441,-2.1408,-2.1333,-2.0975,-2.0801,-2.0607,-2.0473,-2.0607,-2.0539,-2.0539,-2.0539,-2.0539,-2.0539,-2.058,-2.0627,-2.0627,-2.0668,-2.0716,-2.0716,-2.0716,-2.0736,-2.0845,-2.0858,-2.0912,-2.1055,-2.1123,-2.1197,-2.1245,-2.1462,-2.1631,-2.1686,-2.1848,-2.1991,-2.2038,-2.2181,-2.2255,-2.2201,-2.2113,-2.2093,-2.2201,-2.2201,-2.2201,-2.2201,-2.2289,-2.2337,-2.2337,-2.2337,-2.2357,-2.2425,-2.2622,-2.2744,-2.2784,-2.2832,-2.2832,0.0,-1.0301,-0.987,-1.2043,-1.2443,-1.2527,-1.2351,-1.1424,0.0,-0.9929,-0.9678,-0.97,-0.9754,-0.9842,-0.9761,-0.9738,-1.159,0.0,0.0,-1.3559,0.0,0.0,0.0,0.0,0.0,0.0,0.0,0.0,0.0,0.0,0.0,-2.1277,-2.1455,-2.1441,-2.1441,-2.1441,-2.1441,-2.1441,-2.1441,-2.1441,-2.1441,-2.1441,-2.1455,-2.1344,0.0,0.0,0.0,0.0,0.0,-2.1441,-2.1441,-2.1441,-2.1441,-2.1441,-2.1441,-2.1441,-2.1441,-2.1441,-2.1441,-2.1353,-2.1501,-2.148,-2.1014,-2.0486,-2.0607,-2.0539,-2.0539,-2.0539,-2.0539,-2.056,-2.056,-2.0668,-2.079,-2.079,-2.0892,-2.1001,-2.1001,-2.1001,-2.1001,-2.1021,-2.1021,-2.1055,-2.1211,-2.1353,-2.1509,-2.1652,-2.1794,-2.195,-2.2113,-2.2127,-2.2201,-2.2357,-2.2479,-2.252,-2.2378,-2.2357,-2.2357,-2.2337,-2.2337,-2.2337,-2.2337,-2.2337,-2.2337,-2.2337,-2.2357,-2.2432,-2.2588,-2.2873,-2.294,-2.2818,-2.2961,-2.2961,-0.8556,0.0,-1.0236,-1.2046,-1.2564,-1.2269,0.0,-1.0548,-0.9961,0.0,0.0,0.0,0.0,0.0,0.0,0.0,0.0,0.0,-1.2043,0.0,0.0,0.0,0.0,0.0,0.0,0.0,0.0,0.0,0.0,0.0,0.0,-2.1377,-2.129,-2.1441,-2.1441,-2.1441,-2.1441,-2.1441,-2.1441,-2.1441,-2.1441,-2.1489,-2.1344,-2.1478,0.0,0.0,0.0,0.0,-2.1323,-2.1489,-2.1441,-2.1441,-2.1441,-2.1441,-2.1441,-2.1441,-2.1441,-2.1441,-2.1441,-2.1421,-2.1374,-2.1514,-2.1089,-2.064,-2.077,-2.0627,-2.0539,-2.0539,-2.0627,-2.0716,-2.0716,-2.0824,-2.0946,-2.0946,-2.098,-2.1001,-2.1001,-2.1001,-2.1034,-2.1143,-2.1157,-2.1211,-2.1353,-2.1509,-2.1638,-2.1672,-2.1903,-2.2113,-2.2269,-2.2378,-2.25,-2.2656,-2.271,-2.271,-2.2676,-2.2567,-2.2466,-2.2337,-2.2337,-2.2337,-2.2337,-2.2337,-2.2337,-2.2337,-2.2445,-2.2642,-2.2907,-2.2974,-2.3049,-2.3117,-2.3151,-2.3151,-0.7959,-0.8486,-0.9258,-1.0125,-1.0767,-1.1087,-1.0425,0.0,0.0,0.0,0.0,0.0,0.0,0.0,0.0,0.0,0.0,0.0,0.0,0.0,0.0,0.0,0.0,0.0,0.0,0.0,0.0,0.0,0.0,0.0,0.0,-2.0841,-2.1277,-2.1455,-2.1441,-2.1441,-2.1441,-2.1441,-2.1441,-2.1441,-2.1509,-2.131,-2.1397,-2.1808,-2.2119,0.0,0.0,0.0,-2.129,-2.1475,-2.1441,-2.1441,-2.1441,-2.1441,-2.1441,-2.1441,-2.1441,-2.1441,-2.1441,-2.1441,-2.1421,-2.1272,-2.1157,-2.0801,-2.0926,-2.0824,-2.0736,-2.0668,-2.0702,-2.079,-2.0858,-2.098,-2.1109,-2.1109,-2.1157,-2.1197,-2.1197,-2.1197,-2.1231,-2.1299,-2.1319,-2.1367,-2.1509,-2.1672,-2.1794,-2.1862,-2.2072,-2.2269,-2.2411,-2.25,-2.2608,-2.2764,-2.2852,-2.2852,-2.2784,-2.2764,-2.2696,-2.2554,-2.2534,-2.2534,-2.2534,-2.2534,-2.2534,-2.2534,-2.2696,-2.2852,-2.3008,-2.3083,-2.3151,-2.3219,-2.3219,-2.3219,-0.7959,-0.7843,-0.8019,-0.8227,-0.8981,-0.9835,-0.9513,0.0,0.0,0.0,0.0,0.0,0.0,0.0,0.0,0.0,0.0,0.0,0.0,0.0,0.0,0.0,0.0,0.0,0.0,0.0,0.0,0.0,0.0,0.0,0.0,-1.9737,-2.0964,-2.1475,-2.1455,-2.1441,-2.1441,-2.1441,-2.1441,-2.1441,-2.129,-2.1377,-2.1665,-2.2071,-2.2347,0.0,0.0,0.0,-2.1475,-2.1455,-2.1441,-2.1441,-2.1441,-2.1441,-2.1441,-2.1441,-2.1441,-2.1441,-2.1441,-2.1441,-2.1421,-2.1272,-2.1211,-2.1177,-2.1021,-2.0987,-2.0967,-2.0845,-2.0824,-2.0878,-2.1001,-2.1143,-2.1245,-2.1245,-2.1353,-2.1441,-2.1441,-2.1441,-2.1441,-2.1475,-2.1475,-2.153,-2.1672,-2.1828,-2.1971,-2.2127,-2.2269,-2.2425,-2.2574,-2.2608,-2.2676,-2.2798,-2.2961,-2.2995,-2.2852,-2.2974,-2.2995,-2.2852,-2.2798,-2.2784,-2.2784,-2.2784,-2.2798,-2.2818,-2.294,-2.3029,-2.3042,-2.3171,-2.3219,-2.3219,-2.3219,-2.3219,-0.7837,-0.795,-0.8141,-0.9323,-0.9856,-0.9667,0.0,0.0,0.0,0.0,0.0,0.0,0.0,0.0,0.0,0.0,0.0,0.0,0.0,0.0,0.0,0.0,0.0,0.0,0.0,0.0,0.0,0.0,0.0,0.0,0.0,-1.7606,-1.8885,-2.1203,-2.1475,-2.1455,-2.1441,-2.1441,-2.1441,-2.1441,-2.1455,-2.155,-2.2222,-2.2243,-2.2036,0.0,0.0,-2.1377,-2.1344,-2.1489,-2.1441,-2.1441,-2.1441,-2.1441,-2.1441,-2.1441,-2.1441,-2.1441,-2.1441,-2.1441,-2.1421,-2.1265,-2.1211,-2.1157,-2.0892,-2.0899,-2.1001,-2.0967,-2.1055,-2.1143,-2.1177,-2.1299,-2.1408,-2.1408,-2.1421,-2.1441,-2.1441,-2.1441,-2.1475,-2.1618,-2.1638,-2.1686,-2.1828,-2.1971,-2.2127,-2.2289,-2.2432,-2.2574,-2.273,-2.2852,-2.2961,-2.2974,-2.3097,-2.3185,-2.3151,-2.3171,-2.3185,-2.3151,-2.292,-2.2784,-2.2784,-2.2784,-2.2832,-2.2974,-2.2995,-2.3063,-2.3185,-2.3205,-2.3219,-2.3219,-2.3219,-2.3219,-0.788,-0.8671,-0.9801,-1.1518,-1.0335,-0.876,0.0,0.0,0.0,0.0,0.0,0.0,0.0,0.0,0.0,0.0,0.0,0.0,0.0,0.0,0.0,0.0,0.0,0.0,0.0,0.0,0.0,0.0,0.0,0.0,0.0,0.0,-1.7763,-1.905,-2.0671,-2.1475,-2.1455,-2.1441,-2.1441,-2.1441,-2.1523,-2.1597,-2.194,-2.194,-2.1706,-2.1478,0.0,-2.1277,-2.1277,-2.1475,-2.1441,-2.1441,-2.1441,-2.1441,-2.1441,-2.1441,-2.1441,-2.1441,-2.1441,-2.1441,-2.1421,-2.1353,-2.1333,-2.1319,-2.1177,-2.1177,-2.1245,-2.1245,-2.1231,-2.1231,-2.1319,-2.1387,-2.1441,-2.1441,-2.1441,-2.1455,-2.155,-2.1564,-2.1597,-2.176,-2.1781,-2.1862,-2.2093,-2.2113,-2.2215,-2.2534,-2.2567,-2.2642,-2.2873,-2.2974,-2.3042,-2.3117,-2.3185,-2.3219,-2.3219,-2.3219,-2.3219,-2.3219,-2.3097,-2.3029,-2.3029,-2.3029,-2.3049,-2.3117,-2.3117,-2.3151,-2.3219,-2.3219,-2.3219,-2.3219,-2.3219,-2.3219,-0.7843,-0.899,-1.0442,0.0,0.0,0.0,0.0,0.0,0.0,0.0,0.0,0.0,0.0,0.0,0.0,0.0,0.0,0.0,0.0,0.0,0.0,0.0,0.0,0.0,0.0,0.0,0.0,0.0,0.0,0.0,0.0,0.0,-1.7163,-1.7163,-1.9322,-2.0658,-2.1475,-2.1455,-2.1441,-2.1441,-2.129,-2.1344,-2.1344,-2.1344,-2.1344,-2.1344,-2.1489,-2.1441,-2.1441,-2.1441,-2.1441,-2.1441,-2.1441,-2.1441,-2.1441,-2.1441,-2.1441,-2.1441,-2.1441,-2.1441,-2.1441,-2.1408,-2.1408,-2.1421,-2.1353,-2.1387,-2.1441,-2.1408,-2.1333,-2.1299,-2.1408,-2.1441,-2.1441,-2.1441,-2.1441,-2.1475,-2.1638,-2.1672,-2.1726,-2.1903,-2.1971,-2.2079,-2.2344,-2.2323,-2.2391,-2.2784,-2.273,-2.2744,-2.2974,-2.3042,-2.3083,-2.3171,-2.3205,-2.3219,-2.3219,-2.3219,-2.3219,-2.3219,-2.3219,-2.3219,-2.3219,-2.3219,-2.3219,-2.3219,-2.3219,-2.3219,-2.3219,-2.3219,-2.3219,-2.3219,-2.3219,-2.3219,-0.7952,-0.7988,-0.824,-0.8867,0.0,0.0,0.0,0.0,0.0,0.0,0.0,0.0,0.0,0.0,0.0,0.0,0.0,0.0,0.0,0.0,0.0,0.0,0.0,0.0,0.0,0.0,0.0,0.0,0.0,0.0,0.0,0.0,0.0,-1.7163,-1.7429,-1.8778,-2.1475,-2.1475,-2.1455,-2.1441,-2.1455,-2.1455,-2.1455,-2.1455,-2.1455,-2.1455,-2.1441,-2.1441,-2.1441,-2.1441,-2.1441,-2.1441,-2.1441,-2.1441,-2.1441,-2.1441,-2.1441,-2.1441,-2.1441,-2.1441,-2.1421,-2.1279,-2.1319,-2.1387,-2.1123,-2.1231,-2.1408,-2.1265,-2.1319,-2.1421,-2.1441,-2.1441,-2.1441,-2.1441,-2.1441,-2.1475,-2.1638,-2.1672,-2.176,-2.2038,-2.2215,-2.2357,-2.252,-2.2642,-2.2798,-2.2974,-2.2995,-2.2995,-2.3008,-2.313,-2.3151,-2.3042,-2.3151,-2.3219,-2.3219,-2.3219,-2.3219,-2.3219,-2.3219,-2.3219,-2.3219,-2.3219,-2.3219,-2.3219,-2.3219,-2.3219,-2.3219,-2.3219,-2.3219,-2.3219,-2.3219,-2.3219,-0.8091,-0.775,-0.7628,0.0,0.0,0.0,0.0,0.0,0.0,0.0,0.0,0.0,0.0,0.0,0.0,0.0,0.0,0.0,0.0,0.0,0.0,0.0,0.0,0.0,0.0,0.0,0.0,0.0,0.0,0.0,0.0,0.0,0.0,-1.7174,-1.7701,-1.8251,-1.9322,-2.0399,-2.0658,-2.0911,-2.1169,-2.1441,-2.1441,-2.1441,-2.1441,-2.1441,-2.1441,-2.1441,-2.1441,-2.1441,-2.1441,-2.1441,-2.1441,-2.1441,-2.1441,-2.1441,-2.1441,-2.1441,-2.1441,-2.1441,-2.1421,-2.1367,-2.1387,-2.1421,-2.1299,-2.1353,-2.1421,-2.1367,-2.1387,-2.1441,-2.1441,-2.1441,-2.1441,-2.1441,-2.1441,-2.1509,-2.174,-2.1794,-2.1903,-2.2201,-2.2303,-2.2391,-2.2534,-2.2534,-2.2588,-2.2832,-2.2784,-2.2798,-2.2995,-2.3063,-2.3097,-2.313,-2.3185,-2.3219,-2.3219,-2.3219,-2.3219,-2.3219,-2.3219,-2.3219,-2.3219,-2.3219,-2.3219,-2.3219,-2.3219,-2.3219,-2.3219,-2.3219,-2.3219,-2.3219,-2.3219,-2.3219,-0.8029,-0.7424,-0.7715,0.0,0.0,0.0,0.0,0.0,0.0,0.0,0.0,0.0,0.0,0.0,0.0,0.0,0.0,0.0,0.0,0.0,0.0,0.0,0.0,0.0,0.0,0.0,0.0,0.0,0.0,0.0,0.0,0.0,0.0,0.0,-1.7718,-1.7979,-1.8245,-1.9322,-1.9854,-2.0386,-2.0911,-2.1169,-2.1441,-2.1441,-2.1441,-2.1441,-2.1441,-2.1441,-2.1441,-2.1441,-2.1441,-2.1441,-2.1441,-2.1441,-2.1441,-2.1441,-2.1441,-2.1441,-2.1441,-2.1441,-2.1441,-2.1441,-2.1441,-2.1441,-2.1441,-2.1441,-2.1441,-2.1441,-2.1441,-2.1441,-2.1441,-2.1441,-2.1455,-2.1496,-2.1509,-2.1597,-2.1882,-2.195,-2.2025,-2.2289,-2.2378,-2.2445,-2.2534,-2.252,-2.2554,-2.2744,-2.273,-2.2784,-2.2974,-2.3049,-2.3117,-2.3205,-2.3219,-2.3219,-2.3219,-2.3219,-2.3219,-2.3219,-2.3219,-2.3219,-2.3219,-2.3219,-2.3219,-2.3219,-2.3219,-2.3219,-2.3219,-2.3219,-2.3219,-2.3219,-2.3219,-2.3219,-0.7621,-0.7261,0.0,0.0,0.0,0.0,0.0,0.0,0.0,0.0,0.0,0.0,0.0,0.0,0.0,0.0,0.0,0.0,0.0,0.0,0.0,0.0,0.0,0.0,0.0,0.0,0.0,0.0,0.0,0.0,0.0,0.0,0.0,0.0,-1.719,-1.7446,-1.8245,-1.8245,-1.905,-2.0379,-2.0379,-2.0639,-2.1441,-2.1441,-2.1441,-2.1441,-2.1441,-2.1441,-2.1441,-2.1441,-2.1441,-2.1441,-2.1441,-2.1441,-2.1441,-2.1441,-2.1441,-2.1441,-2.1441,-2.1441,-2.1441,-2.1441,-2.1441,-2.1441,-2.1441,-2.1441,-2.1441,-2.1441,-2.1441,-2.1441,-2.1441,-2.1441,-2.1475,-2.1638,-2.1672,-2.176,-2.2038,-2.2113,-2.216,-2.2303,-2.2445,-2.2554,-2.2554,-2.2676,-2.2784,-2.2784,-2.2907,-2.3008,-2.3008,-2.313,-2.3219,-2.3219,-2.3219,-2.3219,-2.3219,-2.3219,-2.3219,-2.3219,-2.3219,-2.3219,-2.3219,-2.3219,-2.3219,-2.3219,-2.3219,-2.3219,-2.3219,-2.3219,-2.3219,-2.3219,-2.3219,-2.3219,-0.9831,-1.0199,0.0,0.0,0.0,0.0,0.0,0.0,0.0,0.0,0.0,0.0,0.0,0.0,0.0,0.0,0.0,0.0,0.0,0.0,0.0,0.0,0.0,0.0,0.0,0.0,0.0,0.0,0.0,0.0,0.0,0.0,0.0,0.0,-1.719,-1.719,-1.7446,-1.7973,-1.8517,-1.8778,-1.931,-2.0379,-2.1441,-2.1441,-2.1441,-2.1441,-2.1441,-2.1441,-2.1441,-2.1441,-2.1183,-2.0639,-2.1169,-2.1183,-2.0639,-2.1169,-2.1441,-2.1441,-2.1441,-2.1441,-2.1441,-2.1441,-2.1441,-2.1441,-2.1441,-2.1441,-2.1441,-2.1441,-2.1441,-2.1441,-2.1441,-2.153,-2.1618,-2.1652,-2.174,-2.1862,-2.2072,-2.2201,-2.2289,-2.2323,-2.2445,-2.252,-2.2425,-2.2445,-2.2466,-2.2466,-2.2513,-2.2622,-2.2818,-2.3063,-2.3219,-2.3219,-2.3219,-2.3219,-2.3219,-2.3219,-2.3219,-2.3219,-2.3219,-2.3219,-2.3219,-2.3219,-2.3219,-2.3219,-2.3219,-2.3219,-2.3219,-2.3219,-2.3219,-2.3219,-2.3219,-2.3219,-0.9677,0.0,0.0,0.0,0.0,0.0,0.0,0.0,0.0,0.0,0.0,0.0,0.0,0.0,0.0,0.0,0.0,0.0,0.0,0.0,0.0,0.0,0.0,0.0,0.0,0.0,0.0,0.0,0.0,0.0,0.0,0.0,0.0,0.0,-1.719,-1.719,-1.719,-1.7718,-1.799,-1.8245,-1.8772,-1.9576,-2.0639,-2.0911,-2.0917,-2.0917,-2.0917,-2.0917,-2.0911,-2.0639,-2.0379,-2.0107,-2.0639,-2.0645,-2.0386,-2.1169,-2.1441,-2.1441,-2.1441,-2.1441,-2.1441,-2.1441,-2.1441,-2.1441,-2.1441,-2.1441,-2.1441,-2.1441,-2.1475,-2.153,-2.153,-2.1686,-2.1828,-2.1774,-2.1862,-2.2025,-2.216,-2.2269,-2.2337,-2.2337,-2.2411,-2.2445,-2.2357,-2.2337,-2.2337,-2.2337,-2.2391,-2.2534,-2.2832,-2.3029,-2.3151,-2.3219,-2.3219,-2.3219,-2.3219,-2.3219,-2.3219,-2.3219,-2.3219,-2.3219,-2.3219,-2.3219,-2.3219,-2.3219,-2.3219,-2.3219,-2.3219,-2.3219,-2.3219,-2.3219,-2.3219,-2.3219,-0.7938,0.0,0.0,0.0,0.0,0.0,0.0,0.0,0.0,0.0,0.0,0.0,0.0,0.0,0.0,0.0,0.0,0.0,0.0,0.0,0.0,0.0,0.0,0.0,0.0,0.0,0.0,0.0,0.0,0.0,0.0,0.0,0.0,-1.719,-1.719,-1.719,-1.719,-1.719,-1.7446,0.0,-1.7979,-1.8517,-1.9038,-1.9842,-2.0379,-2.0379,-2.0379,-2.0379,-2.0379,-1.9582,-1.9304,-1.9304,-2.0107,-2.0379,-2.0379,-2.0917,-2.1435,-2.1435,-2.1441,-2.1441,-2.1441,-2.1441,-2.1441,-2.1441,-2.1441,-2.1441,-2.1441,-2.1441,-2.155,-2.1672,-2.1672,-2.1882,-2.2079,-2.1937,-2.2025,-2.216,-2.2303,-2.2357,-2.2357,-2.2337,-2.2357,-2.2357,-2.2337,-2.2337,-2.2337,-2.2337,-2.2466,-2.2656,-2.294,-2.2995,-2.3063,-2.3185,-2.3219,-2.3219,-2.3219,-2.3219,-2.3219,-2.3219,-2.3219,-2.3219,-2.3219,-2.3219,-2.3219,-2.3219,-2.3219,-2.3219,-2.3219,-2.3219,-2.3219,-2.3219,-2.3219,-2.3219,-0.9372,-1.0405,0.0,0.0,-1.4304,0.0,0.0,0.0,0.0,0.0,0.0,0.0,0.0,0.0,0.0,0.0,0.0,0.0,0.0,0.0,0.0,0.0,0.0,0.0,0.0,0.0,0.0,0.0,0.0,0.0,0.0,0.0,0.0,-1.719,-1.719,-1.719,-1.719,-1.719,-1.719,0.0,-1.7457,-1.7446,-1.7718,-1.905,-1.9576,-1.9576,-1.9576,-1.9576,-1.9576,-1.931,-1.905,-1.8506,-1.9304,-1.9304,-1.8778,-2.0107,-2.0652,-2.0639,-2.1169,-2.1441,-2.1441,-2.1441,-2.1441,-2.1441,-2.1441,-2.1441,-2.1441,-2.1441,-2.155,-2.1672,-2.1672,-2.1882,-2.2113,-2.2072,-2.2181,-2.2303,-2.2337,-2.2432,-2.2479,-2.2357,-2.2432,-2.2466,-2.2357,-2.2337,-2.2337,-2.2337,-2.2466,-2.2574,-2.2642,-2.2873,-2.3029,-2.3049,-2.3151,-2.3219,-2.3219,-2.3219,-2.3219,-2.3219,-2.3219,-2.3219,-2.3219,-2.3219,-2.3219,-2.3219,-2.3219,-2.3219,-2.3219,-2.3219,-2.3219,-2.3219,-2.3219,-2.3219,-1.0321,0.0,0.0,-1.4394,0.0,-1.6148,-1.6402,-1.6429,0.0,0.0,0.0,0.0,0.0,0.0,0.0,0.0,0.0,0.0,0.0,0.0,0.0,0.0,0.0,0.0,0.0,0.0,0.0,0.0,0.0,0.0,0.0,-1.719,-1.7163,-1.7103,-1.7103,-1.7076,-1.7021,-1.7021,-1.7021,-1.7021,-1.7021,-1.7049,-1.7103,-1.8216,-1.905,-1.9304,-1.905,-1.8778,-1.8778,-1.8517,-1.7979,-1.7718,-1.8506,-1.8506,-1.8251,-1.9576,-1.9835,-1.9842,-2.0379,-2.0639,-2.0911,-2.0911,-2.1183,-2.1441,-2.1441,-2.1441,-2.1441,-2.1441,-2.1597,-2.1774,-2.1774,-2.1991,-2.2215,-2.2215,-2.2289,-2.2337,-2.2337,-2.2391,-2.2432,-2.2357,-2.2391,-2.2432,-2.2357,-2.2337,-2.2337,-2.2337,-2.2411,-2.2479,-2.2554,-2.2764,-2.292,-2.3008,-2.313,-2.3219,-2.3219,-2.3219,-2.3219,-2.3219,-2.3219,-2.3219,-2.3219,-2.3219,-2.3219,-2.3219,-2.3219,-2.3219,-2.3219,-2.3219,-2.3219,-2.3219,-2.3219,-2.3219,-1.0238,0.0,-1.4137,-1.5456,-1.598,0.0,-1.6586,-1.6601,-1.6581,-1.6608,0.0,0.0,0.0,0.0,0.0,0.0,0.0,0.0,0.0,0.0,0.0,0.0,0.0,0.0,0.0,0.0,0.0,0.0,0.0,0.0,-1.713,-1.713,-1.7076,-1.6978,-1.6978,-1.6918,-1.682,-1.682,-1.682,-1.682,-1.682,-1.688,-1.6978,-1.7606,-1.8205,-1.8778,-1.8251,-1.7979,-1.7973,-1.7462,-1.719,-1.719,-1.7718,-1.7979,-1.8245,-1.8778,-1.9038,-1.9038,-1.9304,-1.9582,-2.0114,-2.0379,-2.0911,-2.1169,-2.1441,-2.1441,-2.1441,-2.1441,-2.1638,-2.1848,-2.1882,-2.2093,-2.2303,-2.2337,-2.2337,-2.2337,-2.2337,-2.2337,-2.2337,-2.2337,-2.2337,-2.2337,-2.2337,-2.2337,-2.2337,-2.2337,-2.2337,-2.2378,-2.25,-2.2676,-2.2832,-2.2961,-2.3117,-2.3219,-2.3219,-2.3219,-2.3219,-2.3219,-2.3219,-2.3219,-2.3219,-2.3219,-2.3219,-2.3219,-2.3219,-2.3219,-2.3219,-2.3219,-2.3219,-2.3219,-2.3219,-2.3219,-0.866,0.0,-1.4992,0.0,-1.5734,-1.6088,0.0,0.0,-1.6618,0.0,0.0,0.0,0.0,0.0,0.0,0.0,0.0,0.0,0.0,0.0,0.0,0.0,0.0,0.0,0.0,0.0,0.0,0.0,0.0,0.0,-1.6864,-1.6864,-1.6864,-1.6853,-1.6853,-1.6837,-1.682,-1.682,-1.682,-1.682,-1.682,-1.6837,-1.6853,-1.6864,-1.7247,-1.7446,-1.7457,-1.7457,-1.7457,-1.719,-1.719,-1.719,-1.719,-1.7457,-1.7457,-1.7979,-1.8251,-1.8517,-1.9038,-1.931,-1.9582,-2.0114,-2.0386,-2.0658,-2.1169,-2.1441,-2.1441,-2.1441,-2.1564,-2.1726,-2.1848,-2.2004,-2.2181,-2.2303,-2.2337,-2.2337,-2.2337,-2.2337,-2.2337,-2.2337,-2.2337,-2.2337,-2.2337,-2.2337,-2.2337,-2.2337,-2.2337,-2.2337,-2.2357,-2.2608,-2.2784,-2.2818,-2.3063,-2.3219,-2.3219,-2.3219,-2.3219,-2.3219,-2.3219,-2.3219,-2.3219,-2.3219,-2.3219,-2.3219,-2.3219,-2.3219,-2.3219,-2.3219,-2.3219,-2.3219,-2.3219,-2.3219,-0.7582,-1.0999,-1.4428,0.0,-1.5674,-1.5961,-1.5956,-1.6146,-1.6288,-1.6529,-1.6717,0.0,0.0,0.0,0.0,0.0,0.0,0.0,0.0,0.0,0.0,0.0,0.0,0.0,0.0,0.0,0.0,0.0,0.0,-1.682,-1.682,-1.682,-1.6793,-1.6722,-1.6722,-1.6695,-1.6625,-1.6625,-1.6625,-1.6625,-1.6695,-1.6722,-1.6722,-1.6793,-1.6918,-1.7092,-1.7092,-1.7092,-1.7092,-1.7163,-1.7147,-1.7092,-1.7163,-1.719,-1.719,-1.7446,-1.7718,-1.7718,-1.7979,-1.8251,-1.8778,-1.905,-1.9848,-2.0386,-2.0639,-2.1183,-2.1441,-2.1441,-2.155,-2.1686,-2.174,-2.1862,-2.2004,-2.2072,-2.2147,-2.2215,-2.2215,-2.2289,-2.2337,-2.2337,-2.2337,-2.2337,-2.2337,-2.2337,-2.2337,-2.2337,-2.2337,-2.2378,-2.2445,-2.2642,-2.2818,-2.2907,-2.3097,-2.3219,-2.3219,-2.3219,-2.3219,-2.3219,-2.3219,-2.3219,-2.3219,-2.3219,-2.3219,-2.3219,-2.3219,-2.3219,-2.3219,-2.3219,-2.3219,-2.3219,-2.3219,-2.3219,-0.7056,0.0,-1.3939,-1.4629,-1.5369,-1.5762,0.0,0.0,-1.5879,0.0,-1.6485,-1.6402,0.0,0.0,0.0,0.0,0.0,0.0,0.0,0.0,0.0,0.0,0.0,0.0,0.0,0.0,0.0,0.0,0.0,-1.6641,-1.6641,-1.6641,-1.6597,-1.651,-1.65,-1.6456,-1.6375,-1.6418,-1.6429,-1.6429,-1.6543,-1.6597,-1.6597,-1.6695,-1.6793,-1.6918,-1.6978,-1.7021,-1.706,-1.7147,-1.713,-1.706,-1.7147,-1.719,-1.719,-1.719,-1.719,-1.719,-1.719,-1.7446,-1.7973,-1.8245,-1.905,-1.9854,-2.0107,-2.0386,-2.0911,-2.0911,-2.0983,-2.1357,-2.1431,-2.1774,-2.1862,-2.1971,-2.2059,-2.2127,-2.216,-2.2249,-2.2337,-2.2337,-2.2337,-2.2337,-2.2337,-2.2337,-2.2337,-2.2337,-2.2337,-2.2391,-2.2534,-2.2696,-2.2832,-2.2995,-2.313,-2.3219,-2.3219,-2.3219,-2.3219,-2.3219,-2.3219,-2.3219,-2.3219,-2.3219,-2.3219,-2.3219,-2.3219,-2.3219,-2.3219,-2.3219,-2.3219,-2.3219,-2.3219,-2.3219,0.0,-1.0686,-1.4303,-1.4261,-1.503,-1.5862,-1.5689,0.0,-1.5815,-1.6412,-1.6037,-1.5863,-1.5879,0.0,0.0,0.0,0.0,0.0,0.0,0.0,0.0,0.0,0.0,0.0,0.0,0.0,0.0,0.0,-1.6146,-1.6146,-1.6146,-1.6146,-1.6135,-1.6135,-1.6135,-1.6135,-1.6119,-1.6244,-1.6304,-1.6304,-1.6418,-1.6483,-1.6483,-1.6483,-1.6554,-1.6668,-1.6907,-1.7076,-1.7174,-1.719,-1.719,-1.7174,-1.719,-1.719,-1.719,-1.719,-1.719,-1.719,-1.719,-1.719,-1.7457,-1.7979,-1.8245,-1.8517,-1.9038,-1.931,-1.931,-1.931,-1.9854,-2.045,-2.0721,-2.1241,-2.1794,-2.2215,-2.2215,-2.2147,-2.2303,-2.2337,-2.2337,-2.2337,-2.2337,-2.2337,-2.2337,-2.2337,-2.2337,-2.2337,-2.2337,-2.2391,-2.2534,-2.2696,-2.2832,-2.2995,-2.313,-2.3219,-2.3219,-2.3219,-2.3219,-2.3219,-2.3219,-2.3219,-2.3219,-2.3219,-2.3219,-2.3219,-2.3219,-2.3219,-2.3219,-2.3219,-2.3219,-2.3219,-2.3219,-2.3219,0.0,-0.8413,-1.0462,-1.1362,-1.3144,-1.4986,-1.5329,-1.5436,-1.5771,-1.606,-1.5967,-1.5821,-1.5756,-1.6092,-1.6173,0.0,0.0,0.0,0.0,0.0,0.0,0.0,0.0,0.0,0.0,0.0,0.0,0.0,0.0,0.0,-1.6108,-1.6108,-1.6108,-1.6108,-1.6108,-1.6146,-1.6217,-1.626,-1.6331,-1.6402,-1.6456,-1.6472,-1.6472,-1.6472,-1.6527,-1.6641,-1.6739,-1.6837,-1.6962,-1.7119,-1.7147,-1.7076,-1.7163,-1.719,-1.719,-1.719,-1.719,-1.719,-1.719,-1.719,-1.719,-1.7446,-1.7724,-1.8245,-1.8506,-1.905,-1.931,-1.931,-1.9854,-2.0431,-2.0618,-2.1169,-2.176,-2.2113,-2.2147,-2.2147,-2.2303,-2.2337,-2.2337,-2.2337,-2.2337,-2.2337,-2.2337,-2.2411,-2.2445,-2.2357,-2.25,-2.2642,-2.2696,-2.2832,-2.2995,-2.313,-2.3185,-2.3219,-2.3219,-2.3219,-2.3219,-2.3219,-2.3219,-2.3219,-2.3219,-2.3219,-2.3219,-2.3219,-2.3219,-2.3219,-2.3219,-2.3219,-2.3219,-2.3219,-2.3219,-2.3219,-0.6832,0.0,0.0,0.0,-1.105,-1.3052,-1.4706,-1.5497,-1.58,-1.5734,-1.5771,-1.5891,-1.582,-1.5869,-1.5951,-1.5783,-1.5756,0.0,0.0,0.0,0.0,0.0,0.0,0.0,0.0,0.0,0.0,0.0,0.0,0.0,-1.5994,-1.5994,-1.5994,-1.5994,-1.5994,-1.6021,-1.6108,-1.619,-1.6277,-1.6347,-1.6429,-1.6472,-1.6472,-1.6472,-1.6516,-1.6581,-1.6625,-1.6739,-1.6891,-1.706,-1.7103,-1.7076,-1.7163,-1.719,-1.719,-1.719,-1.719,-1.719,-1.719,-1.719,-1.719,-1.719,-1.7446,-1.799,-1.799,-1.8245,-1.8506,-1.8506,-1.905,-1.9632,-1.9805,-2.0734,-2.1652,-2.1806,-2.1886,-2.2215,-2.2323,-2.2337,-2.2337,-2.2337,-2.2337,-2.2357,-2.2411,-2.2479,-2.2534,-2.25,-2.2656,-2.2798,-2.2852,-2.294,-2.3063,-2.3205,-2.3219,-2.3219,-2.3219,-2.3219,-2.3219,-2.3219,-2.3219,-2.3219,-2.3219,-2.3219,-2.3219,-2.3219,-2.3219,-2.3219,-2.3219,-2.3219,-2.3219,-2.3219,-2.3219,-2.3219,0.0,0.0,0.0,0.0,0.0,-1.0399,-1.4008,-1.5199,-1.5667,-1.5855,-1.5846,-1.5773,-1.5559,-1.5559,-1.5641,-1.5864,-1.5825,-1.5798,-1.5907,0.0,0.0,0.0,0.0,0.0,0.0,0.0,0.0,0.0,0.0,-1.5755,-1.5755,-1.5755,-1.5755,-1.5755,-1.5755,-1.5755,-1.5755,-1.5978,-1.6108,-1.6119,-1.6358,-1.6472,-1.6472,-1.6472,-1.6472,-1.6472,-1.6581,-1.6766,-1.6989,-1.7005,-1.7076,-1.719,-1.719,-1.719,-1.719,-1.719,-1.719,-1.719,-1.719,-1.719,-1.719,-1.719,-1.719,-1.719,-1.719,-1.719,-1.719,-1.719,-1.7718,-1.8309,-1.8563,-1.9909,-2.1185,-2.105,-2.1685,-2.2337,-2.2337,-2.2337,-2.2337,-2.2337,-2.2357,-2.2391,-2.2534,-2.2574,-2.2622,-2.2764,-2.2784,-2.2852,-2.2995,-2.3008,-2.3063,-2.3205,-2.3219,-2.3219,-2.3219,-2.3219,-2.3219,-2.3219,-2.3219,-2.3219,-2.3219,-2.3219,-2.3219,-2.3219,-2.3219,-2.3219,-2.3219,-2.3219,-2.3219,-2.3219,-2.3219,-2.3219,-0.7229,0.0,0.0,0.0,0.0,0.0,0.0,-1.2084,-1.4329,-1.4951,-1.5231,-1.541,-1.5195,-1.5391,-1.5461,-1.5526,-1.5586,-1.563,-1.5668,-1.5738,0.0,0.0,0.0,0.0,0.0,0.0,0.0,0.0,-1.5755,-1.5755,-1.5755,-1.5755,-1.5755,-1.5755,-1.5755,-1.5798,-1.588,-1.5951,-1.6065,-1.6233,-1.6304,-1.6385,-1.6472,-1.6472,-1.6472,-1.6472,-1.65,-1.6597,-1.675,-1.6935,-1.7076,-1.719,-1.719,-1.719,-1.719,-1.719,-1.719,-1.719,-1.719,-1.719,-1.719,-1.719,-1.719,-1.719,-1.719,-1.719,-1.719,-1.719,-1.7718,-1.8309,-1.9105,-1.9909,-2.0381,-2.035,-2.0645,-2.067,-2.067,-2.0752,-2.11,-2.2214,-2.2588,-2.2676,-2.271,-2.2818,-2.2852,-2.2798,-2.2961,-2.3083,-2.3008,-2.3097,-2.3185,-2.3219,-2.3219,-2.3219,-2.3219,-2.3219,-2.3219,-2.3219,-2.3219,-2.3219,-2.3219,-2.3219,-2.3219,-2.3219,-2.3219,-2.3219,-2.3219,-2.3219,-2.3219,-2.3219,-2.3219,-2.3219,0.0,0.0,0.0,0.0,0.0,0.0,-0.7664,-1.0299,-1.2955,-1.3011,-1.3984,-1.4793,-1.4733,-1.4983,-1.5097,-1.5097,-1.5233,-1.5391,-1.5488,-1.5559,-1.563,0.0,0.0,0.0,0.0,-1.5755,-1.5755,-1.5755,-1.5755,-1.5755,-1.5755,-1.5755,-1.5755,-1.5755,-1.5755,-1.5809,-1.5934,-1.5978,-1.6092,-1.6288,-1.6347,-1.6402,-1.6472,-1.6472,-1.6472,-1.6472,-1.6472,-1.6543,-1.6652,-1.6793,-1.6951,-1.7119,-1.7119,-1.7147,-1.719,-1.719,-1.719,-1.719,-1.719,-1.719,-1.719,-1.719,-1.719,-1.719,-1.719,-1.719,-1.719,-1.719,-1.7518,-1.8178,-1.8655,-1.9132,-1.9562,-1.9562,-1.9833,-2.0116,-2.0116,-2.0257,-2.066,-2.2009,-2.2115,-2.2523,-2.2866,-2.2961,-2.2995,-2.2974,-2.3117,-2.3185,-2.3117,-2.3171,-2.3219,-2.3219,-2.3219,-2.3219,-2.3219,-2.3219,-2.3219,-2.3219,-2.3219,-2.3219,-2.3219,-2.3219,-2.3219,-2.3219,-2.3219,-2.3219,-2.3219,-2.3219,-2.3219,-2.3219,-2.3219,-2.3219,0.0,0.0,0.0,0.0,0.0,0.0,-0.6407,-0.9293,-1.1784,-1.0812,-1.1992,-1.3514,-1.3961,-1.4222,-1.4379,-1.4336,-1.4657,-1.5021,-1.5331,-1.5374,-1.5434,-1.5543,0.0,0.0,-1.57,-1.5728,-1.5744,-1.5744,-1.5744,-1.5755,-1.5755,-1.5755,-1.5755,-1.5755,-1.5755,-1.5798,-1.5907,-1.601,-1.6135,-1.6277,-1.6375,-1.6445,-1.6472,-1.6472,-1.6472,-1.6472,-1.6472,-1.6527,-1.6625,-1.6625,-1.6766,-1.7005,-1.7005,-1.7076,-1.719,-1.719,-1.719,-1.719,-1.719,-1.719,-1.719,-1.719,-1.719,-1.719,-1.719,-1.719,-1.719,-1.7201,-1.7369,-1.7565,-1.7696,-1.8368,-1.9007,-1.9007,-1.9279,-1.9833,-1.9833,-2.005,-2.0477,-2.1195,-2.1297,-2.174,-2.273,-2.2757,-2.3076,-2.3198,-2.3219,-2.3219,-2.3219,-2.3219,-2.3219,-2.3219,-2.3219,-2.3219,-2.3219,-2.3219,-2.3219,-2.3219,-2.3219,-2.3219,-2.3219,-2.3219,-2.3219,-2.3219,-2.3219,-2.3219,-2.3219,-2.3219,-2.3219,-2.3219,-2.3219,-2.3219,-0.7575,-0.8088,-0.8287,0.0,0.0,0.0,0.0,-0.8694,-1.0614,-0.9873,-1.0378,-1.1124,-1.1851,-1.2368,-1.2564,-1.2275,-1.3319,-1.4417,-1.5151,-1.5331,-1.5401,-1.5418,-1.5434,0.0,-1.5461,-1.5543,-1.5613,-1.5613,-1.57,-1.5755,-1.5755,-1.5755,-1.5755,-1.5755,-1.5755,-1.5771,-1.5782,-1.5809,-1.594,-1.6146,-1.6163,-1.6277,-1.6472,-1.6472,-1.6472,-1.6472,-1.6472,-1.6483,-1.65,-1.65,-1.6695,-1.7005,-1.7005,-1.7076,-1.719,-1.719,-1.719,-1.719,-1.719,-1.719,-1.719,-1.719,-1.719,-1.719,-1.719,-1.719,-1.7201,-1.7299,-1.7429,-1.7565,-1.7696,-1.781,-1.8186,-1.8186,-1.8175,-1.8452,-1.8452,-1.8643,-1.8811,-1.963,-2.0394,-2.1137,-2.1174,-2.1749,-2.233,-2.235,-2.2938,-2.3219,-2.3219,-2.3219,-2.3219,-2.3219,-2.3219,-2.3219,-2.3219,-2.3219,-2.3219,-2.3219,-2.3219,-2.3219,-2.3219,-2.3219,-2.3219,-2.3219,-2.3219,-2.3219,-2.3219,-2.3219,-2.3219,-2.3219,-2.3219,-2.3219,-0.8525,-0.8799,-0.8938,-0.9004,0.0,0.0,0.0,0.0,-0.8828,-0.9495,-0.9889,-1.0329,-1.0954,-1.1291,-1.1476,-1.1536,-1.2553,-1.3439,-1.3749,-1.4559,-1.5151,-1.5206,-1.5222,0.0,-1.5304,-1.5418,-1.5488,-1.5488,-1.5603,-1.5673,-1.5673,-1.5728,-1.5755,-1.5755,-1.5755,-1.5782,-1.5842,-1.5842,-1.5923,-1.6108,-1.6108,-1.6206,-1.6385,-1.6385,-1.6418,-1.6472,-1.6472,-1.6472,-1.6472,-1.6472,-1.6614,-1.682,-1.6891,-1.7021,-1.719,-1.719,-1.719,-1.719,-1.719,-1.719,-1.719,-1.719,-1.719,-1.719,-1.719,-1.719,-1.7228,-1.7397,-1.7494,-1.7581,-1.7766,-1.7864,-1.7902,-1.7902,-1.7946,-1.7989,-1.7989,-1.8174,-1.8343,-1.8917,-1.9361,-2.0064,-2.0629,-2.1205,-2.1499,-2.1499,-2.2075,-2.265,-2.265,-2.2925,-2.3219,-2.3219,-2.3219,-2.3219,-2.3219,-2.3219,-2.3219,-2.3219,-2.3219,-2.3219,-2.3219,-2.3219,-2.3219,-2.3219,-2.3219,-2.3219,-2.3219,-2.3219,-2.3219,-2.3219,-2.3219,-2.3219,0.0,0.0,0.0,0.0,0.0,-0.7893,0.0,0.0,0.0,0.0,0.0,-0.9671,-1.0106,-1.0226,-1.0367,-1.071,0.0,0.0,0.0,-1.3249,0.0,-1.4504,-1.4744,0.0,-1.4939,-1.501,-1.5135,-1.5374,-1.5293,-1.5331,-1.5559,-1.5673,-1.5728,-1.5755,-1.5755,-1.5798,-1.5896,-1.5896,-1.5951,-1.6065,-1.6065,-1.6146,-1.6288,-1.6288,-1.6358,-1.6472,-1.6472,-1.6472,-1.6472,-1.6472,-1.6543,-1.6652,-1.6782,-1.6962,-1.7157,-1.7174,-1.719,-1.719,-1.719,-1.719,-1.719,-1.719,-1.719,-1.719,-1.719,-1.7201,-1.7261,-1.7484,-1.7554,-1.7625,-1.7848,-1.7902,-1.7902,-1.7902,-1.7989,-1.8076,-1.8076,-1.8272,-1.844,-1.844,-1.8538,-1.8903,-2.0346,-2.0641,-2.0629,-2.0629,-2.1493,-2.1781,-2.2075,-2.2644,-2.2931,-2.3219,-2.3219,-2.3219,-2.3219,-2.3219,-2.3219,-2.3219,-2.3219,-2.3219,-2.3219,-2.3219,-2.3219,-2.3219,-2.3219,-2.3219,-2.3219,-2.3219,-2.3219,-2.3219,-2.3219,-2.3219,0.0,0.0,0.0,0.0,-0.9141,0.0,0.0,0.0,0.0,0.0,0.0,0.0,0.0,0.0,0.0,0.0,0.0,0.0,-1.0335,-1.1275,-1.2167,-1.2607,-1.3689,0.0,0.0,-1.3863,-1.4249,-1.5304,-1.4521,-1.445,-1.5516,-1.5586,-1.5641,-1.5755,-1.5755,-1.5755,-1.5771,-1.5771,-1.5825,-1.594,-1.594,-1.6065,-1.6288,-1.6288,-1.6358,-1.6472,-1.6472,-1.6472,-1.6472,-1.6472,-1.6543,-1.6652,-1.6782,-1.6907,-1.7032,-1.7147,-1.719,-1.719,-1.719,-1.719,-1.719,-1.719,-1.719,-1.719,-1.719,-1.7261,-1.7369,-1.7494,-1.7625,-1.7734,-1.7864,-1.7902,-1.7902,-1.7902,-1.7989,-1.8076,-1.8076,-1.8272,-1.844,-1.844,-1.8538,-1.862,-1.8914,-1.9492,-2.0064,-2.0064,-2.0641,-2.1205,-2.2069,-2.2075,-2.2356,-2.3219,-2.3219,-2.3219,-2.3219,-2.3219,-2.3219,-2.3219,-2.3219,-2.3219,-2.3219,-2.3219,-2.3219,-2.3219,-2.3219,-2.3219,-2.3219,-2.3219,-2.3219,-2.3219,-2.3219,-2.3219,0.0,0.0,0.0,0.0,0.0,0.0,0.0,0.0,-0.7562,0.0,0.0,0.0,0.0,0.0,0.0,0.0,-0.8965,0.0,0.0,-1.0242,-1.1243,0.0,0.0,0.0,0.0,0.0,0.0,0.0,-1.4276,-1.4336,-1.5108,-1.5418,-1.5603,-1.5641,-1.5711,-1.5755,-1.5755,-1.5755,-1.5782,-1.5825,-1.5825,-1.5951,-1.6179,-1.6179,-1.6288,-1.6472,-1.6472,-1.6472,-1.6472,-1.6472,-1.65,-1.6554,-1.6668,-1.6837,-1.7005,-1.706,-1.713,-1.719,-1.719,-1.719,-1.719,-1.719,-1.719,-1.719,-1.719,-1.7217,-1.7299,-1.7484,-1.7581,-1.7663,-1.7848,-1.7902,-1.7902,-1.7902,-1.8044,-1.8185,-1.8185,-1.837,-1.8549,-1.8549,-1.8582,-1.862,-1.862,-1.8914,-1.9198,-1.9198,-1.9769,-2.0346,-2.0629,-2.1217,-2.1794,-2.2356,-2.2644,-2.265,-2.3219,-2.3219,-2.3219,-2.3219,-2.3219,-2.3219,-2.3219,-2.3219,-2.3219,-2.3219,-2.3219,-2.3219,-2.3219,-2.3219,-2.3219,-2.3219,-2.3219,-2.3219,-0.5936,0.0,0.0,0.0,0.0,0.0,0.0,0.0,0.0,0.0,0.0,0.0,0.0,0.0,0.0,0.0,0.0,-0.8823,0.0,-0.9209,-1.0014,0.0,0.0,0.0,0.0,0.0,0.0,0.0,0.0,-1.3934,-1.4814,-1.5222,-1.5472,-1.557,-1.5684,-1.5755,-1.5755,-1.5755,-1.5755,-1.5755,-1.5755,-1.588,-1.6108,-1.6108,-1.6244,-1.6472,-1.6472,-1.6472,-1.6472,-1.6472,-1.6472,-1.6483,-1.6554,-1.6739,-1.6962,-1.6989,-1.7092,-1.719,-1.719,-1.719,-1.719,-1.719,-1.719,-1.719,-1.719,-1.7228,-1.7315,-1.7494,-1.7581,-1.7679,-1.7864,-1.7902,-1.7902,-1.7902,-1.8087,-1.8256,-1.8256,-1.8451,-1.862,-1.862,-1.862,-1.862,-1.862,-1.862,-1.862,-1.862,-1.9198,-1.9481,-1.9769,-2.0346,-2.0923,-2.2069,-2.2075,-2.235,-2.3219,-2.3219,-2.3219,-2.3219,-2.3219,-2.3219,-2.3219,-2.3219,-2.3219,-2.3219,-2.3219,-2.3219,-2.3219,-2.3219,-2.3219,-2.3219,-2.3219,-2.3219,0.0,0.0,0.0,0.0,0.0,0.0,0.0,0.0,-0.8176,0.0,0.0,0.0,0.0,0.0,0.0,0.0,0.0,0.0,0.0,0.0,0.0,0.0,0.0,0.0,0.0,0.0,-1.1634,0.0,-1.252,0.0,-1.476,-1.4983,-1.5222,-1.5559,-1.5684,-1.5755,-1.5755,-1.5755,-1.5755,-1.5755,-1.5755,-1.588,-1.6108,-1.6108,-1.6244,-1.6472,-1.6472,-1.6472,-1.6472,-1.6472,-1.6472,-1.6472,-1.6472,-1.6625,-1.6837,-1.6962,-1.7092,-1.719,-1.719,-1.719,-1.719,-1.719,-1.719,-1.719,-1.719,-1.7342,-1.7527,-1.7538,-1.7706,-1.7891,-1.7902,-1.7902,-1.7902,-1.7902,-1.8087,-1.8256,-1.8256,-1.8451,-1.862,-1.862,-1.862,-1.862,-1.862,-1.862,-1.862,-1.862,-1.862,-1.8903,-1.9769,-1.9775,-2.0346,-2.2069,-2.2075,-2.235,-2.3219,-2.3219,-2.3219,-2.3219,-2.3219,-2.3219,-2.3219,-2.3219,-2.3219,-2.3219,-2.3219,-2.3219,-2.3219,-2.3219,-2.3219,-2.3219,-2.3219,-2.3219,0.0,0.0,-0.0385,-0.2147,0.0,0.0,0.0,0.0,0.0,0.0,0.0,0.0,0.0,0.0,0.0,0.0,0.0,0.0,0.0,0.0,0.0,0.0,0.0,0.0,0.0,0.0,0.0,-1.2471,-1.2487,-1.2988,-1.4195,-1.4602,-1.4923,-1.5206,-1.5488,-1.5673,-1.5755,-1.5755,-1.5755,-1.5755,-1.5755,-1.588,-1.6108,-1.6108,-1.6244,-1.6472,-1.6472,-1.6472,-1.6472,-1.6472,-1.6472,-1.6472,-1.6472,-1.6614,-1.682,-1.6864,-1.7021,-1.719,-1.719,-1.719,-1.719,-1.719,-1.719,-1.7201,-1.7272,-1.7359,-1.7456,-1.7609,-1.7723,-1.7804,-1.7891,-1.7902,-1.7902,-1.7902,-1.8087,-1.8256,-1.8256,-1.8451,-1.862,-1.862,-1.862,-1.862,-1.862,-1.862,-1.862,-1.862,-1.862,-1.8625,-1.8903,-1.8903,-1.9492,-2.0352,-2.0923,-2.1499,-2.2356,-2.2945,-2.3219,-2.3219,-2.3219,-2.3219,-2.3219,-2.3219,-2.3219,-2.3219,-2.3219,-2.3219,-2.3219,-2.3219,-2.3219,-2.3219,-2.3219,-2.3219,0.0,0.0,0.0,0.0,-0.2482,0.0,-0.6026,0.0,0.0,0.0,0.0,0.0,0.0,0.0,0.0,0.0,0.0,0.0,0.0,-0.7062,0.0,0.0,0.0,0.0,0.0,-1.0063,-1.09,-1.202,-1.2085,-1.2564,0.0,0.0,-1.4657,-1.4896,-1.5331,-1.5613,-1.5684,-1.5728,-1.5755,-1.5755,-1.5798,-1.5923,-1.6108,-1.6146,-1.6277,-1.6472,-1.6472,-1.6472,-1.6472,-1.6472,-1.6472,-1.6472,-1.6472,-1.6614,-1.682,-1.682,-1.6978,-1.719,-1.719,-1.719,-1.719,-1.719,-1.719,-1.7217,-1.7331,-1.7386,-1.7467,-1.7663,-1.775,-1.7804,-1.7891,-1.7902,-1.7918,-1.7962,-1.8114,-1.8272,-1.8315,-1.8478,-1.862,-1.862,-1.862,-1.862,-1.862,-1.862,-1.862,-1.862,-1.862,-1.862,-1.862,-1.862,-1.8903,-1.9769,-2.0352,-2.1205,-2.235,-2.2925,-2.3219,-2.3219,-2.3219,-2.3219,-2.3219,-2.3219,-2.3219,-2.3219,-2.3219,-2.3219,-2.3219,-2.3219,-2.3219,-2.3219,-2.3219,-2.3219]}]]